Casey Cardinia HPV Festival Round3 on Casey Cardinia Full Track
Laptimes of Casey Bass coast Round 3 - Casey Bass Coast round3 6 Hr


Time of Day Lap LeadLap Lap Tm Speed Hits Strength Noise
69 - Tru Blu Tru Blu R - Comm
10:04:36.0 1 1 2:29.267 53.059 35 144 7
10:07:04.6 2 2 2:28.600 53.297 34 151 8
10:09:36.6 3 3 2:31.985 52.110 35 140 7
10:12:08.4 4 4 2:31.824 52.166 33 142 7
10:14:42.1 5 5 2:33.681 51.535 40 142 8
10:17:17.2 6 6 2:35.142 51.050 38 139 9
10:19:50.0 7 7 2:32.791 51.836 38 136 8
10:22:23.4 8 8 2:33.370 51.640 34 144 8
10:24:59.2 9 9 2:35.827 50.826 33 143 8
10:28:18.7 10 10 3:19.521 39.695 42 147 9
10:30:58.5 11 11 2:39.748 49.578 33 143 8
10:33:39.9 12 12 2:41.375 49.078 35 142 9
10:36:18.4 13 13 2:38.535 49.957 38 146 10
10:38:56.6 14 14 2:38.236 50.052 38 148 11
10:41:36.5 15 15 2:39.909 49.528 36 145 10
10:44:15.1 16 16 2:38.578 49.944 34 142 11
10:46:52.3 17 17 2:37.171 50.391 36 142 11
10:49:28.7 18 18 2:36.374 50.648 37 140 10
10:52:05.6 19 19 2:36.961 50.458 40 135 10
10:54:47.9 20 20 2:42.275 48.806 36 143 10
10:57:30.1 21 21 2:42.188 48.832 40 140 10
11:00:12.5 22 22 2:42.412 48.765 38 137 10
11:02:58.1 23 23 2:45.558 47.838 40 143 10
11:05:38.1 24 24 2:39.987 49.504 35 143 9
11:08:22.5 25 25 2:44.445 48.162 36 139 9
11:11:01.6 26 26 2:39.112 49.776 35 142 10
11:13:44.0 27 27 2:42.395 48.770 31 140 9
11:16:28.3 28 28 2:44.338 48.193 39 146 10
11:19:12.1 29 29 2:43.718 48.376 38 136 10
11:21:52.0 30 30 2:39.961 49.512 38 143 11
11:24:31.3 31 31 2:39.316 49.713 37 141 10
11:27:14.2 32 32 2:42.880 48.625 38 138 10
11:29:56.0 33 33 2:41.778 48.956 40 143 12
11:32:42.6 34 34 2:46.647 47.526 37 142 11
11:35:27.6 35 35 2:44.984 48.005 37 142 12
11:38:11.9 36 36 2:44.253 48.218 38 143 11
11:41:52.2 37 37 3:40.336 35.945 37 134 9
11:44:31.9 38 38 2:39.695 49.595 36 145 9
11:47:09.1 39 39 2:37.190 50.385 38 138 9
11:49:47.4 40 40 2:38.264 50.043 35 143 10
11:52:27.5 41 41 2:40.117 49.464 35 146 10
11:55:07.4 42 42 2:39.945 49.517 37 142 10
11:57:44.9 43 43 2:37.496 50.287 33 141 10
12:00:24.1 44 44 2:39.214 49.744 35 143 11
12:03:03.2 45 45 2:39.046 49.797 32 139 11
12:05:43.2 46 46 2:40.017 49.495 34 145 10
12:08:23.4 47 47 2:40.220 49.432 31 146 10
12:11:09.1 48 48 2:45.728 47.789 33 141 10
12:13:50.5 49 49 2:41.361 49.082 38 139 11
12:16:33.0 50 50 2:42.444 48.755 39 134 11
12:19:14.3 51 51 2:41.377 49.078 40 145 9
12:21:56.7 52 52 2:42.349 48.784 30 144 9
12:24:40.4 53 53 2:43.734 48.371 40 136 10
12:27:25.1 54 54 2:44.677 48.094 27 143 10
12:30:12.6 55 55 2:47.477 47.290 35 143 10
12:32:59.0 56 56 2:46.453 47.581 34 139 10
12:35:46.0 57 57 2:47.014 47.421 31 142 10
12:38:33.6 58 58 2:47.605 47.254 37 134 9
12:41:19.2 59 59 2:45.534 47.845 36 143 10
12:44:07.3 60 60 2:48.106 47.113 40 135 12
12:46:58.5 61 61 2:51.263 46.245 37 144 12
12:49:56.5 62 62 2:57.929 44.512 36 143 11
12:52:54.2 63 63 2:57.685 44.573 42 142 11
12:56:23.8 64 64 3:29.612 37.784 36 151 10
12:59:02.4 65 65 2:38.600 49.937 35 144 10
13:01:42.6 66 66 2:40.241 49.426 30 141 11
13:04:24.9 67 67 2:42.250 48.814 38 137 10
13:07:09.5 68 68 2:44.627 48.109 37 135 11
13:09:52.9 69 69 2:43.451 48.455 39 144 11
13:12:36.0 70 70 2:43.095 48.561 39 143 11
13:15:24.7 71 71 2:48.666 46.957 39 147 11
13:18:12.1 72 72 2:47.360 47.323 40 140 11
13:20:57.1 73 73 2:45.037 47.989 35 140 12
13:23:44.5 74 74 2:47.410 47.309 38 133 10
13:26:34.3 75 75 2:49.777 46.649 32 146 10
13:29:24.1 76 76 2:49.845 46.631 35 142 11
13:32:12.8 77 77 2:48.718 46.942 31 142 8
13:35:02.1 78 78 2:49.282 46.786 40 142 10
13:37:53.5 79 79 2:51.340 46.224 38 148 9
13:40:43.5 80 80 2:50.010 46.585 35 149 9
13:43:30.5 81 81 2:47.050 47.411 39 142 9
13:46:19.1 82 82 2:48.564 46.985 39 144 10
13:49:07.7 83 83 2:48.635 46.965 38 136 10
13:51:57.3 84 84 2:49.561 46.709 37 139 11
13:55:57.3 85 85 3:59.980 33.003 35 142 10
13:58:25.2 86 86 2:27.956 53.529 36 141 10
14:01:00.9 87 87 2:35.641 50.886 37 135 10
14:03:33.7 88 88 2:32.854 51.814 36 139 10
14:06:07.6 89 89 2:33.919 51.456 36 137 11
14:08:47.5 90 90 2:39.815 49.557 35 135 11
14:11:19.9 91 91 2:32.489 51.938 35 143 12
14:13:53.7 92 92 2:33.751 51.512 29 146 11
14:16:28.5 93 93 2:34.792 51.165 35 143 11
14:19:01.3 94 94 2:32.810 51.829 35 144 12
14:21:40.4 95 95 2:39.133 49.770 35 141 11
14:24:16.3 96 96 2:35.893 50.804 33 142 12
14:26:54.9 97 97 2:38.622 49.930 33 140 11
14:29:27.6 98 98 2:32.665 51.878 36 141 10
14:32:06.0 99 99 2:38.378 50.007 32 136 11
14:34:43.5 100 100 2:37.543 50.272 32 140 11
14:37:19.4 101 101 2:35.827 50.826 35 139 12
14:39:59.4 102 102 2:40.022 49.493 33 145 10
14:42:35.4 103 103 2:36.036 50.758 34 143 10
14:45:16.5 104 104 2:41.109 49.159 36 139 10
14:47:53.5 105 105 2:36.946 50.463 37 142 11
14:50:30.9 106 106 2:37.483 50.291 32 143 10
14:53:06.3 107 107 2:35.367 50.976 36 138 10
14:55:35.6 108 108 2:29.293 53.050 36 143 10
15:00:32.7 109 109 4:57.070 26.660 32 139 10
15:03:17.3 110 110 2:44.668 48.097 29 138 12
15:06:03.3 111 111 2:45.929 47.731 34 136 10
15:08:47.6 112 112 2:44.323 48.198 36 145 10
15:11:31.4 113 113 2:43.769 48.361 36 142 11
15:14:16.1 114 114 2:44.765 48.068 35 142 11
15:17:01.8 115 115 2:45.630 47.817 37 142 10
15:20:48.2 116 116 3:46.436 34.977 56 148 9
15:24:29.0 117 117 3:40.849 35.862 32 142 11
15:27:11.9 118 118 2:42.901 48.618 37 142 10
15:29:58.5 119 119 2:46.532 47.558 32 141 9
15:36:02.1 120 120 6:03.622 21.781 49 148 9
15:38:49.8 121 121 2:47.729 47.219 40 147 10
15:41:35.2 122 122 2:45.409 47.881 35 142 10
15:45:48.3 123 123 4:13.096 31.292 41 136 8
15:48:47.8 124 124 2:59.445 44.136 37 139 9
15:51:50.3 125 125 3:02.555 43.384 43 141 9
15:54:51.0 126 126 3:00.709 43.827 42 142 9
15:57:55.4 127 127 3:04.375 42.956 39 143 9
16:01:01.6 128 128 3:06.211 42.532 39 137 10
16:04:20.1 129 129 3:18.488 39.902 38 141 8
60 - Aurora Aurora R - Comm
10:04:43.7 1 1 2:37.129 50.404 54 158 8
10:07:30.3 2 2 2:46.640 47.528 48 158 8
10:10:18.6 3 3 2:48.284 47.063 55 159 7
10:13:09.3 4 4 2:50.677 46.403 54 162 8
10:16:00.6 5 5 2:51.315 46.231 55 159 8
10:18:51.5 6 6 2:50.908 46.341 55 158 9
10:21:41.1 7 7 2:49.551 46.712 55 157 8
10:24:28.3 8 8 2:47.217 47.364 49 157 8
10:27:14.8 9 9 2:46.504 47.566 54 156 9
10:30:01.8 10 10 2:47.019 47.420 52 158 8
10:32:50.0 11 11 2:48.189 47.090 54 158 9
10:35:37.9 12 12 2:47.872 47.179 54 154 10
10:38:24.3 13 13 2:46.452 47.581 52 157 9
10:41:12.4 14 14 2:48.044 47.131 54 158 11
10:44:03.9 15 15 2:51.559 46.165 54 157 10
10:46:52.9 16 17 2:48.928 46.884 51 157 11
10:49:29.0 17 18 2:36.159 50.718 53 156 10
10:52:20.5 18 19 2:51.462 46.191 54 160 10
10:55:16.4 19 20 2:55.968 45.008 53 158 10
10:58:08.4 20 21 2:51.907 46.071 54 157 11
11:01:00.6 21 22 2:52.251 45.979 55 157 9
11:03:56.5 22 23 2:55.884 45.030 54 157 10
11:06:50.6 23 24 2:54.087 45.494 53 156 9
11:09:43.3 24 25 2:52.735 45.851 55 158 11
11:12:35.2 25 26 2:51.884 46.078 54 158 10
11:15:29.2 26 27 2:54.042 45.506 50 159 11
11:18:21.4 27 28 2:52.155 46.005 55 158 10
11:21:14.3 28 29 2:52.946 45.795 52 155 10
11:24:09.2 29 30 2:54.893 45.285 54 158 10
11:27:04.0 30 31 2:54.737 45.325 55 156 10
11:30:01.6 31 33 2:57.661 44.579 55 156 12
11:33:01.8 32 34 3:00.208 43.949 55 157 11
11:36:05.6 33 35 3:03.712 43.111 55 159 11
11:40:26.2 34 36 4:20.665 30.384 46 168 10
11:44:45.5 35 38 4:19.293 30.545 57 158 11
11:47:35.6 36 39 2:50.100 46.561 52 161 10
11:50:20.2 37 40 2:44.633 48.107 53 155 10
11:53:03.9 38 41 2:43.673 48.389 51 166 11
11:55:48.7 39 42 2:44.826 48.051 53 157 10
11:58:32.1 40 43 2:43.357 48.483 52 156 10
12:01:14.7 41 44 2:42.608 48.706 54 157 10
12:04:00.6 42 45 2:45.883 47.744 51 156 10
12:06:46.0 43 46 2:45.382 47.889 54 159 12
12:09:37.2 44 47 2:51.238 46.251 53 158 10
12:12:24.5 45 48 2:47.324 47.333 54 158 11
12:15:12.3 46 49 2:47.720 47.222 54 156 10
12:18:05.0 47 50 2:52.737 45.850 54 157 9
12:20:52.6 48 51 2:47.652 47.241 54 155 9
12:23:39.9 49 52 2:47.249 47.355 52 156 10
12:26:26.4 50 53 2:46.528 47.560 54 156 11
12:29:15.3 51 54 2:48.839 46.909 56 157 10
12:32:03.3 52 55 2:48.022 47.137 53 159 10
12:34:52.3 53 56 2:49.066 46.846 52 156 10
12:37:42.1 54 57 2:49.788 46.646 55 158 9
12:40:30.0 55 58 2:47.828 47.191 55 155 10
12:43:18.2 56 59 2:48.211 47.084 47 155 11
12:46:06.7 57 60 2:48.508 47.001 52 158 12
12:48:53.7 58 61 2:47.003 47.424 54 158 10
12:51:40.0 59 62 2:46.316 47.620 55 157 10
12:54:26.8 60 63 2:46.781 47.487 54 157 11
12:57:14.6 61 64 2:47.802 47.198 54 159 10
13:00:02.5 62 65 2:47.889 47.174 54 156 10
13:02:50.5 63 66 2:48.055 47.127 52 157 11
13:05:38.0 64 67 2:47.465 47.293 54 155 11
13:08:27.6 65 68 2:49.596 46.699 54 157 11
13:11:17.4 66 69 2:49.837 46.633 56 158 10
13:14:08.3 67 70 2:50.889 46.346 55 158 11
13:17:00.2 68 71 2:51.891 46.076 54 156 10
13:19:52.2 69 72 2:52.004 46.045 54 155 12
13:22:45.8 70 73 2:53.549 45.636 56 157 11
13:25:38.9 71 74 2:53.183 45.732 54 155 11
13:28:29.2 72 75 2:50.257 46.518 54 156 9
13:32:21.7 73 77 3:52.529 34.060 52 159 8
13:35:09.4 74 78 2:47.676 47.234 54 164 11
13:37:55.8 75 79 2:46.402 47.596 54 159 9
13:40:43.7 76 80 2:47.902 47.170 54 165 9
13:43:30.8 77 81 2:47.136 47.387 54 156 9
13:46:20.1 78 82 2:49.263 46.791 56 157 10
13:49:07.1 79 82 2:47.040 47.414 53 155 10
13:51:56.9 80 83 2:49.714 46.667 53 155 11
13:54:53.2 81 84 2:56.333 44.915 54 158 11
13:57:49.4 82 85 2:56.221 44.944 56 157 11
14:00:46.5 83 86 2:57.104 44.719 56 158 11
14:03:35.9 84 88 2:49.367 46.762 53 156 10
14:06:31.4 85 89 2:55.560 45.113 54 158 10
14:09:29.0 86 90 2:57.543 44.609 55 155 11
14:12:28.5 87 91 2:59.527 44.116 53 156 11
14:15:25.0 88 92 2:56.439 44.888 55 159 10
14:18:17.6 89 93 2:52.659 45.871 54 158 10
14:21:13.6 90 94 2:55.950 45.013 55 159 10
14:24:11.9 91 95 2:58.309 44.417 55 159 12
14:26:56.8 92 97 2:44.913 48.025 52 157 11
14:29:52.7 93 98 2:55.894 45.027 55 156 11
14:32:45.4 94 99 2:52.759 45.844 53 157 12
14:35:39.5 95 100 2:54.065 45.500 54 157 10
14:38:45.3 96 101 3:05.756 42.637 59 159 11
14:44:52.4 97 103 6:07.189 21.569 51 156 10
14:47:40.0 98 104 2:47.526 47.276 48 157 9
14:50:21.2 99 105 2:41.269 49.110 51 157 10
14:53:01.9 100 106 2:40.695 49.286 51 157 11
14:55:41.7 101 108 2:39.804 49.561 53 156 11
14:58:25.8 102 108 2:44.094 48.265 54 159 11
15:01:15.4 103 109 2:49.596 46.699 54 156 11
15:04:08.8 104 110 2:53.372 45.682 55 156 11
15:06:56.2 105 111 2:47.435 47.302 53 156 10
15:09:45.4 106 112 2:49.123 46.830 56 156 11
15:12:33.6 107 113 2:48.268 47.068 51 161 10
15:15:19.4 108 114 2:45.775 47.776 51 157 11
15:18:04.1 109 115 2:44.721 48.081 53 157 9
15:21:18.6 110 116 3:14.425 40.736 65 162 11
15:24:34.9 111 117 3:16.384 40.329 54 156 11
15:27:18.1 112 118 2:43.184 48.534 52 157 10
15:30:04.5 113 119 2:46.362 47.607 53 157 10
15:36:01.2 114 119 5:56.721 22.202 64 165 9
15:38:43.5 115 120 2:42.313 48.795 55 161 10
15:41:28.2 116 121 2:44.679 48.094 54 156 10
15:44:12.4 117 122 2:44.238 48.223 54 158 9
15:47:00.8 118 123 2:48.320 47.053 55 156 9
15:49:47.4 119 124 2:46.692 47.513 53 157 9
15:52:34.9 120 125 2:47.485 47.288 52 163 9
15:55:22.7 121 126 2:47.760 47.210 52 156 8
15:58:06.9 122 127 2:44.253 48.218 52 157 9
16:00:49.9 123 127 2:42.911 48.616 49 164 9
16:03:41.3 124 128 2:51.453 46.193 50 163 8
16:06:34.3 125 129 2:52.983 45.785 52 161 8
124 - Mnenits Purple Icecream - Comm
10:04:52.1 1 1 2:44.651 48.102 52 158 6
10:07:47.8 2 2 2:55.692 45.079 54 158 8
10:10:45.0 3 3 2:57.209 44.693 53 159 7
10:13:39.5 4 4 2:54.420 45.408 54 158 7
10:16:35.3 5 5 2:55.879 45.031 52 157 7
10:19:32.9 6 6 2:57.515 44.616 53 157 8
10:22:30.2 7 8 2:57.340 44.660 48 159 7
10:25:33.3 8 9 3:03.109 43.253 54 157 8
10:28:31.0 9 10 2:57.670 44.577 54 156 10
10:31:30.7 10 11 2:59.753 44.060 54 157 8
10:35:32.1 11 12 4:01.409 32.807 83 170 10
10:38:27.6 12 13 2:55.504 45.127 52 158 9
10:41:16.6 13 14 2:48.984 46.868 45 161 10
10:44:10.6 14 15 2:54.018 45.513 53 157 10
10:47:05.5 15 17 2:54.871 45.291 48 163 10
10:50:01.6 16 18 2:56.089 44.977 52 157 9
10:53:04.4 17 19 3:02.746 43.339 53 157 12
10:56:06.4 18 20 3:02.023 43.511 53 156 10
10:59:07.2 19 21 3:00.811 43.803 53 156 11
11:02:07.1 20 22 2:59.875 44.031 55 158 10
11:05:12.2 21 23 3:05.119 42.783 54 159 9
11:08:12.8 22 24 3:00.661 43.839 54 157 9
11:11:08.8 23 26 2:56.004 44.999 53 157 10
11:14:14.7 24 27 3:05.846 42.616 54 158 10
11:17:20.8 25 28 3:06.121 42.553 50 158 10
11:20:22.7 26 29 3:01.877 43.546 53 157 9
11:23:20.6 27 30 2:57.865 44.528 52 158 10
11:26:25.8 28 31 3:05.280 42.746 52 162 10
11:29:34.3 29 32 3:08.439 42.030 55 160 11
11:32:43.8 30 34 3:09.550 41.783 53 159 11
11:36:31.3 31 35 3:47.450 34.821 75 168 12
11:39:37.4 32 36 3:06.088 42.561 52 158 10
11:42:28.3 33 37 2:50.923 46.337 51 163 11
11:45:17.1 34 38 2:48.863 46.902 52 158 9
11:48:04.4 35 39 2:47.245 47.356 51 157 11
11:50:54.3 36 40 2:49.901 46.615 50 160 10
11:53:39.7 37 41 2:45.405 47.882 50 157 11
11:56:25.7 38 42 2:46.013 47.707 52 157 10
11:59:12.2 39 43 2:46.514 47.564 51 158 10
12:01:58.4 40 44 2:46.205 47.652 51 158 11
12:04:47.9 41 45 2:49.508 46.723 51 159 11
12:07:36.4 42 46 2:48.465 47.013 51 156 11
12:10:24.2 43 47 2:47.759 47.211 51 158 10
12:13:11.6 44 48 2:47.458 47.295 51 158 10
12:15:58.7 45 49 2:47.072 47.405 52 158 10
12:18:48.2 46 50 2:49.492 46.728 51 155 9
12:21:37.2 47 51 2:49.042 46.852 53 159 9
12:24:27.0 48 52 2:49.813 46.640 51 158 10
12:29:55.2 49 54 5:28.155 24.135 69 166 10
12:32:51.1 50 55 2:55.905 45.024 51 160 10
12:35:40.6 51 56 2:49.547 46.713 50 157 10
12:38:33.3 52 57 2:52.642 45.875 53 157 9
12:41:19.6 53 59 2:46.343 47.612 51 156 10
12:44:07.6 54 60 2:48.007 47.141 50 155 12
12:46:59.1 55 61 2:51.455 46.193 50 157 12
12:49:56.9 56 62 2:57.833 44.536 54 157 11
12:52:38.2 57 62 2:41.230 49.122 50 160 10
12:55:22.5 58 63 2:44.326 48.197 49 160 11
12:58:07.9 59 64 2:45.423 47.877 49 159 10
13:00:58.3 60 65 2:50.434 46.470 51 159 9
13:03:50.7 61 66 2:52.325 45.960 52 162 11
13:06:46.3 62 67 2:55.609 45.100 53 158 11
13:10:30.9 63 69 3:44.643 35.256 75 167 10
13:13:35.1 64 70 3:04.201 42.997 50 155 10
13:16:29.8 65 71 2:54.690 45.337 50 157 12
13:19:25.6 66 72 2:55.817 45.047 52 156 11
13:22:25.5 67 73 2:59.898 44.025 53 155 11
13:25:23.8 68 74 2:58.269 44.427 53 157 11
13:28:19.4 69 75 2:55.635 45.094 52 156 11
13:31:14.5 70 76 2:55.080 45.236 52 158 9
13:34:12.5 71 77 2:57.973 44.501 53 158 10
13:37:14.6 72 78 3:02.131 43.485 54 159 9
13:40:15.4 73 79 3:00.811 43.803 54 156 10
13:44:08.4 74 81 3:53.009 33.990 75 168 9
13:47:17.5 75 82 3:09.102 41.882 49 157 10
13:50:12.0 76 83 2:54.439 45.403 53 160 10
13:53:10.1 77 84 2:58.106 44.468 52 157 11
13:56:02.2 78 85 2:52.104 46.019 51 158 11
13:58:59.4 79 86 2:57.236 44.686 52 156 11
14:01:54.6 80 87 2:55.158 45.216 52 158 11
14:04:49.4 81 88 2:54.867 45.292 51 157 12
14:07:46.9 82 89 2:57.412 44.642 52 158 10
14:10:41.9 83 90 2:55.013 45.254 52 157 11
14:13:38.2 84 91 2:56.284 44.928 51 157 10
14:16:26.0 85 92 2:47.809 47.197 52 157 12
14:20:02.7 86 94 3:36.694 36.549 76 168 11
14:23:24.0 87 95 3:21.315 39.341 51 157 11
14:26:20.6 88 96 2:56.637 44.838 48 156 11
14:29:11.3 89 97 2:50.702 46.397 50 164 12
14:32:05.3 90 98 2:54.013 45.514 48 155 11
14:34:50.0 91 100 2:44.685 48.092 50 161 12
14:37:44.7 92 101 2:54.644 45.349 53 158 11
14:42:37.1 93 103 4:52.403 27.086 84 170 10
14:45:53.2 94 104 3:16.181 40.371 53 157 10
14:48:55.9 95 105 3:02.648 43.362 53 158 10
14:52:03.6 96 106 3:07.695 42.196 54 158 11
14:55:04.7 97 107 3:01.147 43.721 53 159 11
14:58:09.1 98 108 3:04.395 42.951 55 158 11
15:01:11.3 99 109 3:02.174 43.475 53 158 12
15:04:32.9 100 110 3:21.577 39.290 53 159 11
15:07:41.3 101 111 3:08.469 42.023 54 160 11
15:10:48.9 102 112 3:07.587 42.220 53 160 11
15:13:58.4 103 113 3:09.481 41.798 54 158 10
15:17:18.1 104 115 3:19.722 39.655 55 157 10
15:21:37.4 105 116 4:19.269 30.547 76 169 11
15:24:56.4 106 117 3:18.975 39.804 50 155 10
15:27:44.7 107 118 2:48.308 47.057 51 157 11
15:30:33.3 108 119 2:48.586 46.979 52 155 10
15:36:00.6 109 119 5:27.373 24.193 63 162 9
15:38:44.8 110 120 2:44.161 48.245 50 157 10
15:41:34.7 111 121 2:49.891 46.618 53 157 10
15:44:31.4 112 122 2:56.684 44.826 53 158 8
15:47:28.9 113 123 2:57.564 44.604 50 158 8
15:50:26.9 114 124 2:57.996 44.495 52 155 7
15:53:26.5 115 125 2:59.569 44.106 52 162 9
15:56:23.9 116 126 2:57.403 44.644 47 162 10
15:59:23.5 117 127 2:59.544 44.112 52 160 9
16:02:21.1 118 128 2:57.680 44.575 51 157 9
16:05:18.1 119 129 2:56.992 44.748 52 162 9
67 - Unleashed Dirty Mongrel R - Comm
10:05:00.0 1 1 2:52.085 46.024 50 147 7
10:07:52.4 2 2 2:52.324 45.960 51 150 8
10:10:46.3 3 3 2:53.985 45.521 53 147 7
10:13:37.7 4 4 2:51.393 46.210 53 147 7
10:16:34.0 5 5 2:56.295 44.925 52 147 7
10:19:31.9 6 6 2:57.830 44.537 54 150 8
10:22:29.6 7 8 2:57.742 44.559 53 148 7
10:25:28.3 8 9 2:58.691 44.322 53 148 8
10:28:32.6 9 10 3:04.306 42.972 53 147 10
10:31:31.9 10 11 2:59.273 44.178 53 146 8
10:34:30.8 11 12 2:58.936 44.262 52 147 10
10:37:36.4 12 13 3:05.597 42.673 52 147 10
10:40:45.0 13 14 3:08.558 42.003 53 149 10
10:43:56.0 14 15 3:11.046 41.456 53 149 11
10:47:04.9 15 17 3:08.923 41.922 54 148 10
10:50:07.8 16 18 3:02.829 43.319 53 146 10
10:53:16.6 17 19 3:08.849 41.938 53 149 10
10:56:28.8 18 20 3:12.199 41.207 56 148 10
10:59:45.8 19 21 3:16.998 40.203 54 149 10
11:02:59.1 20 23 3:13.337 40.965 51 147 10
11:06:59.7 21 24 4:00.569 32.922 51 147 9
11:09:58.5 22 25 2:58.786 44.299 53 152 10
11:13:01.8 23 26 3:03.259 43.218 46 147 10
11:16:03.1 24 27 3:01.332 43.677 51 147 10
11:19:11.5 25 28 3:08.427 42.032 53 146 10
11:22:15.1 26 30 3:03.605 43.136 48 149 9
11:25:22.0 27 31 3:06.899 42.376 53 148 10
11:28:34.3 28 32 3:12.279 41.190 54 149 11
11:31:52.8 29 33 3:18.503 39.899 53 152 10
11:35:42.4 30 35 3:49.644 34.488 50 152 11
11:38:28.1 31 36 2:45.698 47.798 49 147 11
11:41:18.8 32 36 2:50.694 46.399 48 147 11
11:44:11.9 33 37 2:53.100 45.754 48 146 12
11:47:04.1 34 38 2:52.179 45.999 48 147 10
11:49:55.8 35 40 2:51.715 46.123 52 147 9
11:52:56.1 36 41 3:00.231 43.944 44 146 11
11:55:57.8 37 42 3:01.709 43.586 50 147 10
11:59:00.8 38 43 3:03.075 43.261 51 147 11
12:01:58.9 39 44 2:58.068 44.477 50 148 10
12:04:59.1 40 45 3:00.190 43.954 51 148 9
12:08:04.1 41 46 3:04.981 42.815 51 147 10
12:11:05.4 42 47 3:01.270 43.692 52 148 10
12:14:05.9 43 49 3:00.572 43.861 51 146 11
12:17:07.3 44 50 3:01.335 43.676 50 148 9
12:20:13.4 45 51 3:06.147 42.547 51 148 9
12:23:22.3 46 52 3:08.848 41.938 51 147 10
12:26:30.0 47 53 3:07.757 42.182 50 146 11
12:29:41.8 48 54 3:11.810 41.291 51 149 11
12:32:55.6 49 55 3:13.742 40.879 52 148 10
12:36:05.0 50 57 3:09.467 41.801 52 148 10
12:40:18.9 51 58 4:13.890 31.195 53 148 11
12:43:18.5 52 59 2:59.591 44.100 48 147 11
12:46:10.2 53 60 2:51.659 46.138 50 147 12
12:49:07.0 54 61 2:56.801 44.796 49 148 11
12:52:02.5 55 62 2:55.523 45.122 48 153 10
12:55:00.9 56 63 2:58.368 44.403 52 146 11
12:58:03.8 57 64 3:02.916 43.299 52 149 10
13:01:01.0 58 65 2:57.261 44.680 50 149 9
13:04:09.5 59 66 3:08.459 42.025 54 151 11
13:07:18.7 60 68 3:09.221 41.856 53 149 11
13:10:28.1 61 69 3:09.337 41.830 51 149 10
13:13:35.3 62 70 3:07.262 42.294 51 150 11
13:16:48.1 63 71 3:12.750 41.089 52 149 11
13:20:02.6 64 72 3:14.500 40.720 54 148 12
13:23:10.2 65 73 3:07.616 42.214 52 148 11
13:26:17.1 66 74 3:06.922 42.371 54 150 11
13:29:15.6 67 75 2:58.502 44.369 51 148 10
13:32:12.5 68 76 2:56.856 44.782 51 148 8
13:35:15.5 69 78 3:02.981 43.283 54 152 10
13:38:27.7 70 79 3:12.229 41.201 53 148 9
13:41:28.5 71 80 3:00.859 43.791 52 148 10
13:44:37.1 72 81 3:08.586 41.997 51 148 10
13:47:51.0 73 82 3:13.869 40.852 52 148 10
13:51:43.7 74 83 3:52.732 34.031 49 148 11
13:54:34.7 75 84 2:50.939 46.332 50 147 11
13:57:26.5 76 85 2:51.795 46.101 48 147 11
14:00:21.8 77 86 2:55.342 45.169 52 148 11
14:03:19.8 78 87 2:57.973 44.501 50 146 10
14:06:15.4 79 89 2:55.628 45.095 51 148 10
14:09:15.6 80 90 3:00.202 43.951 50 147 10
14:12:17.7 81 91 3:02.131 43.485 49 147 10
14:15:18.6 82 92 3:00.818 43.801 51 146 10
14:18:17.9 83 93 2:59.320 44.167 50 148 10
14:21:18.4 84 94 3:00.566 43.862 51 147 10
14:24:24.8 85 96 3:06.389 42.492 53 148 11
14:27:34.7 86 97 3:09.898 41.707 50 148 10
14:30:41.0 87 98 3:06.235 42.527 49 148 13
14:33:47.7 88 99 3:06.719 42.417 50 148 12
14:36:54.7 89 100 3:07.007 42.351 50 147 12
14:39:57.9 90 101 3:03.220 43.227 50 148 10
14:43:04.0 91 103 3:06.136 42.550 50 146 10
14:46:13.3 92 104 3:09.288 41.841 53 148 8
14:50:22.0 93 105 4:08.639 31.853 47 150 10
14:53:18.6 94 107 2:56.633 44.839 50 157 10
14:56:21.1 95 108 3:02.480 43.402 50 148 10
14:59:24.2 96 108 3:03.103 43.254 51 150 10
15:02:29.5 97 109 3:05.351 42.730 51 149 11
15:05:32.4 98 110 3:02.905 43.301 52 148 11
15:08:38.5 99 111 3:06.091 42.560 51 148 11
15:11:50.4 100 113 3:11.825 41.288 51 151 11
15:14:59.3 101 114 3:08.988 41.907 45 147 10
15:18:40.4 102 115 3:41.055 35.828 54 150 11
15:21:52.3 103 116 3:11.944 41.262 58 153 10
15:24:59.0 104 117 3:06.614 42.441 49 147 10
15:27:53.8 105 118 2:54.802 45.308 50 148 9
15:30:49.9 106 119 2:56.126 44.968 51 148 10
15:35:59.6 107 119 5:09.713 25.572 66 157 9
15:38:55.3 108 121 2:55.717 45.072 51 147 10
15:41:56.3 109 122 3:01.005 43.756 50 150 9
15:44:52.9 110 122 2:56.548 44.860 52 150 8
15:47:52.7 111 123 2:59.793 44.051 54 146 8
15:50:51.4 112 124 2:58.783 44.300 50 146 9
15:53:50.3 113 125 2:58.882 44.275 51 147 9
15:56:49.1 114 126 2:58.785 44.299 50 148 9
15:59:40.5 115 127 2:51.369 46.216 50 149 9
16:02:31.7 116 128 2:51.259 46.246 52 151 9
16:05:23.8 117 129 2:52.023 46.040 49 153 9
59 - Silver Streak Platt R - Comm
10:05:00.6 1 1 2:52.360 45.950 53 148 7
10:07:52.7 2 2 2:52.104 46.019 54 151 8
10:10:47.2 3 3 2:54.456 45.398 55 147 7
10:13:39.9 4 4 2:52.725 45.853 53 149 7
10:16:36.3 5 5 2:56.370 44.906 54 147 7
10:19:34.2 6 6 2:57.890 44.522 53 148 8
10:22:33.6 7 8 2:59.482 44.127 54 148 7
10:25:34.0 8 9 3:00.358 43.913 53 148 8
10:28:33.8 9 10 2:59.774 44.055 53 149 9
10:31:34.2 10 11 3:00.396 43.903 55 147 8
10:34:34.0 11 12 2:59.818 44.045 52 148 10
10:37:37.0 12 13 3:03.012 43.276 55 149 10
10:40:45.5 13 14 3:08.503 42.015 54 150 10
10:43:56.5 14 15 3:10.960 41.475 55 151 11
10:47:05.3 15 17 3:08.847 41.939 52 149 10
10:50:06.5 16 18 3:01.193 43.710 55 150 9
10:53:08.4 17 19 3:01.859 43.550 52 155 12
10:56:11.7 18 20 3:03.350 43.196 54 149 10
10:59:15.1 19 21 3:03.422 43.179 54 153 9
11:02:14.2 20 22 2:59.045 44.235 53 148 9
11:05:13.8 21 23 2:59.574 44.104 55 149 9
11:08:16.2 22 24 3:02.410 43.419 53 149 9
11:11:14.9 23 26 2:58.736 44.311 54 149 9
11:14:16.1 24 27 3:01.167 43.717 54 149 10
11:17:22.8 25 28 3:06.712 42.418 55 148 10
11:20:22.0 26 29 2:59.214 44.193 54 148 9
11:23:19.0 27 30 2:57.005 44.744 53 149 10
11:26:16.7 28 31 2:57.728 44.562 54 148 10
11:29:16.8 29 32 3:00.033 43.992 54 149 10
11:32:17.6 30 33 3:00.818 43.801 56 149 11
11:35:23.8 31 34 3:06.189 42.537 55 149 11
11:38:31.3 32 36 3:07.542 42.231 50 148 11
11:41:31.8 33 36 3:00.524 43.872 52 148 11
11:44:40.8 34 38 3:08.973 41.911 55 150 10
11:48:25.8 35 39 3:45.017 35.197 52 148 10
11:51:19.3 36 40 2:53.455 45.660 53 150 10
11:54:09.6 37 41 2:50.347 46.493 52 148 10
11:56:58.9 38 42 2:49.223 46.802 52 148 10
11:59:51.3 39 43 2:52.496 45.914 52 150 11
12:02:42.3 40 44 2:50.918 46.338 53 150 11
12:05:36.1 41 45 2:53.869 45.552 52 149 10
12:08:25.7 42 47 2:49.610 46.695 53 148 10
12:11:16.0 43 48 2:50.221 46.528 52 147 9
12:14:08.1 44 49 2:52.168 46.002 52 147 9
12:16:59.0 45 50 2:50.828 46.362 53 154 10
12:19:50.1 46 51 2:51.124 46.282 52 148 10
12:22:42.5 47 52 2:52.415 45.936 53 147 11
12:25:33.8 48 53 2:51.329 46.227 52 150 9
12:28:26.4 49 54 2:52.556 45.898 52 149 10
12:31:20.1 50 55 2:53.709 45.593 53 149 10
12:34:15.6 51 56 2:55.472 45.135 53 148 10
12:37:12.3 52 57 2:56.701 44.821 52 148 10
12:40:09.0 53 58 2:56.696 44.823 48 154 10
12:43:06.3 54 59 2:57.292 44.672 53 150 11
12:46:06.5 55 60 3:00.208 43.949 51 148 12
12:49:04.0 56 61 2:57.564 44.604 53 150 11
12:52:02.7 57 62 2:58.692 44.322 52 150 10
12:55:01.2 58 63 2:58.473 44.376 52 148 11
12:58:04.1 59 64 3:02.940 43.293 53 151 10
13:01:01.5 60 65 2:57.407 44.643 52 149 9
13:04:10.2 61 66 3:08.640 41.985 55 151 11
13:07:19.1 62 68 3:08.960 41.914 55 149 11
13:10:28.9 63 69 3:09.730 41.744 55 151 10
13:13:39.1 64 70 3:10.248 41.630 55 149 11
13:17:27.2 65 71 3:48.034 34.732 51 149 12
13:20:14.7 66 72 2:47.536 47.273 52 149 12
13:23:05.8 67 73 2:51.103 46.288 53 150 11
13:26:02.7 68 74 2:56.931 44.763 53 152 11
13:28:56.6 69 75 2:53.890 45.546 53 150 10
13:31:50.7 70 76 2:54.100 45.491 53 148 9
13:34:43.3 71 77 2:52.546 45.901 52 147 9
13:37:37.4 72 78 2:54.161 45.475 52 149 9
13:40:30.2 73 79 2:52.774 45.840 51 149 10
13:43:27.6 74 80 2:57.380 44.650 54 151 10
13:46:20.7 75 82 2:53.158 45.739 53 149 10
13:49:17.5 76 83 2:56.768 44.804 53 148 11
13:52:21.0 77 84 3:03.459 43.170 54 152 11
13:55:27.8 78 84 3:06.821 42.394 53 150 12
13:58:35.7 79 86 3:07.909 42.148 55 148 11
14:01:44.4 80 87 3:08.727 41.965 55 149 11
14:04:50.7 81 88 3:06.314 42.509 53 149 12
14:07:58.6 82 89 3:07.871 42.157 55 153 12
14:11:11.9 83 90 3:13.260 40.981 56 152 12
14:14:24.0 84 92 3:12.144 41.219 54 149 10
14:17:33.4 85 93 3:09.360 41.825 54 150 11
14:20:42.5 86 94 3:09.153 41.871 54 149 11
14:29:33.6 87 98 8:51.062 14.914 52 148 11
14:32:28.9 88 99 2:55.313 45.176 53 150 11
14:35:28.0 89 100 2:59.106 44.220 52 147 10
14:38:29.9 90 101 3:01.886 43.544 53 147 12
14:41:34.8 91 102 3:04.952 42.822 54 148 10
14:44:46.4 92 103 3:11.573 41.342 55 149 10
14:47:53.8 93 105 3:07.365 42.270 55 151 11
14:52:06.6 94 106 4:12.831 31.325 61 155 11
14:56:54.0 95 108 4:47.368 27.560 55 147 10
14:59:54.2 96 108 3:00.211 43.948 54 148 11
15:02:56.5 97 109 3:02.281 43.449 53 149 12
15:05:58.7 98 110 3:02.226 43.463 51 148 10
15:08:56.7 99 112 2:57.963 44.504 53 147 11
15:11:59.5 100 113 3:02.851 43.314 52 148 11
15:15:05.4 101 114 3:05.878 42.609 54 148 10
15:18:07.8 102 115 3:02.381 43.426 56 149 10
15:21:33.2 103 116 3:25.436 38.552 65 152 11
15:26:15.6 104 117 4:42.353 28.050 52 147 10
15:29:11.4 105 118 2:55.834 45.042 53 147 9
15:36:00.1 106 119 6:48.722 19.377 64 160 9
15:38:55.0 107 121 2:54.911 45.280 52 147 10
15:41:57.3 108 122 3:02.274 43.451 55 148 8
15:45:17.0 109 122 3:19.681 39.663 56 149 8
15:48:37.3 110 123 3:20.310 39.539 56 149 9
15:51:46.8 111 124 3:09.497 41.795 54 147 9
15:54:51.5 112 126 3:04.726 42.874 56 149 9
15:58:18.1 113 127 3:26.575 38.340 56 148 9
16:01:36.6 114 128 3:18.478 39.904 54 149 9
16:05:01.3 115 129 3:24.772 38.677 59 153 9
16:07:45.6 115 129 2:44.257 48.217 73 107 9
78 - Mort Trike Mort Trikes - Comm
10:05:15.3 1 1 3:06.473 42.473 47 146 7
10:08:27.8 2 2 3:12.479 41.147 49 149 7
10:11:44.3 3 3 3:16.574 40.290 48 148 8
10:15:05.3 4 5 3:20.919 39.419 51 148 7
10:18:27.3 5 6 3:21.994 39.209 48 146 8
10:21:49.1 6 7 3:21.825 39.242 49 149 8
10:25:10.2 7 9 3:21.094 39.385 51 149 8
10:28:34.1 8 10 3:23.942 38.835 50 147 9
10:32:00.9 9 11 3:26.755 38.306 50 148 9
10:35:24.2 10 12 3:23.366 38.945 50 150 11
10:38:46.8 11 13 3:22.541 39.103 49 149 10
10:42:13.1 12 15 3:26.320 38.387 51 148 9
10:45:40.0 13 16 3:26.916 38.276 51 148 10
10:49:07.0 14 17 3:27.026 38.256 49 149 11
10:52:33.4 15 19 3:26.335 38.384 49 145 11
10:56:01.2 16 20 3:27.843 38.106 50 151 10
10:59:29.1 17 21 3:27.855 38.103 51 150 10
11:02:41.7 18 22 3:12.651 41.111 48 150 11
11:06:02.0 19 24 3:20.322 39.536 48 148 9
11:09:27.8 20 25 3:25.797 38.485 50 150 9
11:13:48.8 21 27 4:20.957 30.350 67 158 9
11:17:06.8 22 28 3:18.039 39.992 49 149 10
11:20:18.0 23 29 3:11.158 41.432 46 147 10
11:23:21.0 24 30 3:02.997 43.279 46 145 10
11:26:26.7 25 31 3:05.657 42.659 40 146 10
11:29:34.6 26 32 3:07.995 42.129 48 147 11
11:32:44.3 27 34 3:09.649 41.761 44 146 11
11:35:41.7 28 35 2:57.433 44.637 46 148 11
11:39:02.2 29 36 3:20.505 39.500 49 149 12
11:42:27.0 30 37 3:24.792 38.673 50 149 11
11:45:49.2 31 38 3:22.166 39.176 49 150 10
11:49:09.3 32 39 3:20.099 39.580 48 148 9
11:52:23.3 33 40 3:14.039 40.817 49 149 10
11:55:51.7 34 42 3:28.331 38.016 49 148 10
11:59:01.9 35 43 3:10.267 41.626 45 145 11
12:02:22.0 36 44 3:20.049 39.590 49 146 11
12:05:41.6 37 45 3:19.579 39.684 48 147 10
12:09:12.1 38 47 3:30.536 37.618 51 150 10
12:14:31.0 39 49 5:18.887 24.836 76 160 9
12:18:07.8 40 50 3:36.778 36.535 49 153 9
12:21:35.1 41 51 3:27.312 38.203 50 150 10
12:25:06.1 42 53 3:30.990 37.537 48 146 10
12:28:33.9 43 54 3:27.879 38.099 45 146 10
12:32:00.8 44 55 3:26.814 38.295 49 147 10
12:35:29.8 45 56 3:29.028 37.890 47 147 10
12:39:05.0 46 58 3:35.240 36.796 50 146 11
12:42:42.0 47 59 3:36.959 36.505 48 147 11
12:46:12.9 48 60 3:30.943 37.546 47 147 12
12:49:40.5 49 61 3:27.607 38.149 47 146 11
12:53:14.9 50 63 3:34.335 36.952 49 147 10
12:56:44.4 51 64 3:29.489 37.806 46 146 10
13:00:10.5 52 65 3:26.103 38.427 47 146 10
13:03:35.9 53 66 3:25.460 38.548 45 146 11
13:07:05.9 54 67 3:29.953 37.723 44 145 12
13:10:36.1 55 69 3:30.276 37.665 47 146 11
13:14:09.6 56 70 3:33.471 37.101 48 148 11
13:17:37.5 57 71 3:27.852 38.104 47 145 11
13:21:00.2 58 73 3:22.763 39.060 48 145 11
13:24:34.9 59 74 3:34.627 36.901 48 146 11
13:28:08.1 60 75 3:33.202 37.148 50 146 10
13:33:03.8 61 77 4:55.749 26.779 70 158 9
13:36:33.2 62 78 3:29.361 37.829 48 145 11
13:39:52.2 63 79 3:19.011 39.797 46 145 9
13:43:14.6 64 80 3:22.386 39.133 48 146 10
13:46:43.5 65 82 3:28.881 37.916 49 146 9
13:50:14.7 66 83 3:31.291 37.484 49 147 12
13:54:30.7 67 84 4:15.981 30.940 52 151 12
13:58:06.9 68 85 3:36.225 36.629 50 147 12
14:01:38.3 69 87 3:31.398 37.465 49 145 11
14:05:09.0 70 88 3:30.613 37.605 49 146 11
14:08:51.9 71 90 3:42.893 35.533 50 150 11
14:12:29.9 72 91 3:38.070 36.319 50 146 11
14:16:14.4 73 92 3:44.447 35.287 50 147 10
14:19:54.9 74 94 3:40.557 35.909 49 147 10
14:24:54.4 75 96 4:59.468 26.447 73 160 10
14:28:23.3 76 97 3:28.902 37.913 50 150 11
14:31:41.2 77 98 3:17.924 40.015 51 152 10
14:35:17.6 78 100 3:36.398 36.599 50 151 12
14:38:48.1 79 101 3:30.509 37.623 48 146 11
14:42:18.2 80 102 3:30.078 37.700 51 151 10
14:45:52.5 81 104 3:34.293 36.959 52 153 10
14:49:29.3 82 105 3:36.822 36.528 51 151 10
14:53:07.5 83 107 3:38.141 36.307 52 148 10
14:56:44.9 84 108 3:37.392 36.432 51 149 11
15:00:22.2 85 108 3:37.380 36.434 49 149 11
15:03:59.2 86 110 3:36.985 36.500 53 153 11
15:07:39.4 87 111 3:40.153 35.975 52 151 12
15:12:37.4 88 113 4:58.077 26.570 69 159 10
15:16:00.7 89 114 3:23.296 38.958 50 151 11
15:19:50.0 90 115 3:49.247 34.548 70 160 11
15:23:23.8 91 116 3:33.850 37.035 51 149 10
15:26:41.5 92 117 3:17.679 40.065 48 147 9
15:29:59.0 93 119 3:17.432 40.115 45 145 9
15:36:03.3 94 120 6:04.363 21.737 67 161 9
15:39:37.0 95 121 3:33.709 37.060 49 149 9
15:42:48.6 96 122 3:11.612 41.334 48 149 8
15:46:28.3 97 123 3:39.671 36.054 51 150 8
15:49:56.6 98 124 3:28.257 38.030 50 151 8
15:53:27.0 99 125 3:30.405 37.642 53 154 9
15:56:55.0 100 126 3:27.989 38.079 50 152 9
16:00:21.7 101 127 3:26.752 38.307 50 152 9
16:03:54.3 102 128 3:32.608 37.252 51 150 9
16:07:26.9 103 129 3:32.613 37.251 50 151 9
86 - Shagged Maiden Gully - Vet
10:05:07.6 1 1 2:57.502 44.619 59 159 6
10:08:04.8 2 2 2:57.180 44.700 60 160 7
10:11:10.2 3 3 3:05.426 42.712 62 162 7
10:14:21.1 4 4 3:10.875 41.493 58 165 8
10:17:31.3 5 6 3:10.216 41.637 61 161 9
10:20:41.0 6 7 3:09.713 41.747 61 161 7
10:23:50.7 7 8 3:09.723 41.745 58 159 9
10:27:03.0 8 9 3:12.269 41.192 61 160 9
10:30:17.1 9 10 3:14.103 40.803 62 160 10
10:33:27.9 10 11 3:10.801 41.509 60 163 9
10:36:44.5 11 13 3:16.582 40.289 60 163 10
10:40:06.9 12 14 3:22.434 39.124 62 162 10
10:43:25.1 13 15 3:18.202 39.959 63 163 9
10:47:51.6 14 17 4:26.435 29.726 82 167 10
10:51:13.1 15 18 3:21.516 39.302 60 164 10
10:54:27.9 16 19 3:14.863 40.644 61 163 10
10:57:48.6 17 21 3:20.623 39.477 61 165 11
11:01:11.2 18 22 3:22.655 39.081 61 163 9
11:04:35.4 19 23 3:24.188 38.788 60 167 10
11:07:59.1 20 24 3:23.731 38.875 60 162 9
11:11:22.7 21 26 3:23.529 38.913 58 161 10
11:14:50.9 22 27 3:28.234 38.034 63 161 10
11:18:15.6 23 28 3:24.650 38.700 63 164 10
11:21:39.5 24 29 3:23.986 38.826 62 162 11
11:26:20.4 25 31 4:40.858 28.199 84 168 10
11:30:10.8 26 33 3:50.381 34.378 63 162 10
11:33:51.2 27 34 3:40.386 35.937 64 161 12
11:37:25.0 28 35 3:33.872 37.031 62 162 10
11:41:03.3 29 36 3:38.239 36.290 60 159 10
11:44:39.8 30 38 3:36.531 36.577 60 161 10
11:48:15.5 31 39 3:35.655 36.725 61 162 9
11:51:58.7 32 40 3:43.234 35.478 61 169 10
11:56:51.7 33 42 4:52.994 27.031 84 170 10
12:00:34.2 34 44 3:42.485 35.598 62 159 12
12:03:58.2 35 45 3:24.005 38.823 59 160 10
12:07:24.8 36 46 3:26.645 38.327 59 159 11
12:10:57.5 37 47 3:32.632 37.247 63 161 9
12:14:33.0 38 49 3:35.555 36.742 60 160 10
12:18:07.7 39 50 3:34.686 36.891 61 161 9
12:21:45.0 40 51 3:37.316 36.445 60 159 9
12:25:25.7 41 53 3:40.732 35.881 60 161 11
12:29:08.1 42 54 3:42.360 35.618 60 159 10
12:32:57.0 43 55 3:48.857 34.607 58 157 10
12:36:40.1 44 57 3:43.167 35.489 62 161 10
12:41:34.8 45 59 4:54.702 26.875 84 169 10
12:44:42.4 46 60 3:07.523 42.235 53 157 11
12:47:38.2 47 61 2:55.808 45.049 55 164 12
12:50:38.2 48 62 3:00.028 43.993 58 161 10
12:53:41.9 49 63 3:03.693 43.115 57 158 11
12:56:47.6 50 64 3:05.720 42.645 53 167 10
12:59:53.1 51 65 3:05.481 42.700 58 159 11
13:03:13.1 52 66 3:20.007 39.599 59 160 10
13:06:22.5 53 67 3:09.398 41.817 56 159 11
13:09:24.7 54 68 3:02.208 43.467 57 165 11
13:12:34.2 55 69 3:09.512 41.792 55 159 11
13:15:54.1 56 71 3:19.841 39.632 59 161 11
13:19:00.8 57 72 3:06.771 42.405 56 158 11
13:23:26.8 58 73 4:25.943 29.781 81 168 10
13:26:57.0 59 75 3:30.258 37.668 60 161 11
13:30:26.6 60 76 3:29.565 37.793 59 160 10
13:33:55.9 61 77 3:29.262 37.847 58 160 9
13:37:25.4 62 78 3:29.523 37.800 61 162 9
13:40:56.1 63 80 3:30.739 37.582 61 161 9
13:44:30.5 64 81 3:34.422 36.937 61 160 10
13:47:59.3 65 82 3:28.760 37.938 59 159 10
13:52:29.4 66 84 4:30.103 29.322 81 168 11
13:56:19.3 67 85 3:49.866 34.455 61 162 12
14:00:04.3 68 86 3:45.077 35.188 62 162 11
14:03:46.3 69 88 3:41.952 35.683 61 161 11
14:07:25.5 70 89 3:39.182 36.134 58 157 11
14:11:01.8 71 90 3:36.312 36.614 59 162 10
14:14:37.1 72 92 3:35.331 36.781 60 162 10
14:18:12.7 73 93 3:35.586 36.737 57 160 11
14:21:50.2 74 95 3:37.514 36.411 61 160 10
14:25:30.5 75 96 3:40.299 35.951 62 159 11
14:29:08.4 76 97 3:37.909 36.345 61 159 11
14:32:43.6 77 99 3:35.202 36.803 60 158 12
14:36:25.4 78 100 3:41.747 35.716 62 159 12
14:40:07.0 79 102 3:41.603 35.740 61 160 11
14:43:44.3 80 103 3:37.304 36.447 60 161 9
14:47:26.5 81 104 3:42.183 35.646 62 160 8
14:51:10.0 82 106 3:43.503 35.436 60 160 10
14:54:51.2 83 107 3:41.237 35.799 62 158 10
14:58:41.6 84 108 3:50.408 34.374 61 160 11
15:03:33.5 85 110 4:51.843 27.138 82 167 11
15:06:41.6 86 111 3:08.120 42.101 56 159 11
15:09:52.6 87 112 3:11.013 41.463 57 158 11
15:13:04.8 88 113 3:12.252 41.196 58 160 11
15:16:17.7 89 114 3:12.877 41.062 54 157 10
15:20:52.0 90 116 4:34.236 28.880 81 165 9
15:24:52.0 91 117 4:00.077 32.989 54 157 9
15:27:58.2 92 118 3:06.120 42.553 58 158 9
15:31:12.6 93 119 3:14.482 40.724 64 162 11
15:37:18.5 94 120 6:05.870 21.647 57 158 8
15:41:57.9 95 122 4:39.382 28.348 84 167 8
15:45:19.3 96 122 3:21.447 39.316 56 160 8
15:48:38.7 97 123 3:19.345 39.730 59 157 9
15:51:53.0 98 125 3:14.348 40.752 58 157 9
15:55:16.2 99 126 3:23.186 38.979 59 156 9
15:58:39.3 100 127 3:23.070 39.001 61 163 8
16:02:00.9 101 128 3:21.608 39.284 60 161 9
16:05:16.5 102 129 3:15.651 40.480 61 158 9
61 - PIG BigBird R - Comm
10:05:19.4 1 1 3:10.416 41.593 55 146 6
10:08:41.6 2 2 3:22.220 39.165 57 138 7
10:12:07.6 3 3 3:25.957 38.455 52 138 7
10:15:34.1 4 5 3:26.512 38.351 46 139 8
10:19:03.7 5 6 3:29.610 37.784 48 148 8
10:22:33.2 6 8 3:29.503 37.804 54 136 7
10:25:59.5 7 9 3:26.298 38.391 45 146 8
10:29:27.4 8 10 3:27.842 38.106 53 142 8
10:32:57.6 9 11 3:30.208 37.677 56 136 10
10:36:29.8 10 13 3:32.190 37.325 55 148 10
10:40:04.0 11 14 3:34.261 36.964 50 141 10
10:43:40.1 12 15 3:36.074 36.654 57 145 10
10:47:14.9 13 17 3:34.818 36.868 56 146 11
10:51:08.5 14 18 3:53.634 33.899 58 152 10
10:55:11.7 15 20 4:03.115 32.577 58 132 10
10:59:41.5 16 21 4:29.826 29.352 55 133 9
11:03:05.1 17 23 3:23.595 38.901 54 140 11
11:06:28.0 18 24 3:22.905 39.033 45 142 9
11:09:53.5 19 25 3:25.492 38.542 53 147 10
11:13:22.1 20 26 3:28.646 37.959 53 141 10
11:16:53.4 21 28 3:31.279 37.486 53 135 9
11:20:15.9 22 29 3:22.486 39.114 46 146 10
11:23:38.9 23 30 3:23.000 39.015 43 144 9
11:26:55.9 24 31 3:17.033 40.196 53 141 10
11:30:17.4 25 33 3:21.442 39.317 55 148 10
11:33:43.6 26 34 3:26.209 38.408 55 143 10
11:37:05.5 27 35 3:21.888 39.230 53 143 10
11:40:26.4 28 36 3:20.939 39.415 56 133 10
11:43:54.5 29 37 3:28.077 38.063 45 134 12
11:47:18.4 30 39 3:23.912 38.840 55 149 11
11:50:34.5 31 40 3:16.139 40.380 52 149 10
11:55:36.9 32 42 5:02.360 26.194 54 142 10
11:59:18.8 33 43 3:41.882 35.695 55 140 10
12:02:56.8 34 44 3:38.002 36.330 53 141 11
12:06:39.4 35 46 3:42.623 35.576 55 142 12
12:10:31.2 36 47 3:51.790 34.169 55 142 10
12:14:16.8 37 49 3:45.615 35.104 57 144 9
12:18:08.5 38 50 3:51.650 34.190 57 141 9
12:22:05.8 39 52 3:57.363 33.367 56 144 9
12:26:05.2 40 53 3:59.335 33.092 57 143 10
12:30:15.7 41 55 4:10.503 31.616 60 146 10
12:34:24.1 42 56 4:08.409 31.883 57 143 10
12:38:49.4 43 58 4:25.347 29.848 45 144 10
12:42:18.8 44 59 3:29.382 37.826 45 140 11
12:45:49.4 45 60 3:30.568 37.613 47 138 11
12:49:23.7 46 61 3:34.315 36.955 52 146 11
12:52:57.8 47 63 3:34.082 36.995 46 141 10
12:56:35.4 48 64 3:37.637 36.391 46 144 9
13:00:06.5 49 65 3:31.080 37.521 51 142 10
13:03:35.6 50 66 3:29.102 37.876 53 136 11
13:07:25.5 51 68 3:49.918 34.447 57 144 11
13:11:25.5 52 69 3:59.995 33.001 56 141 10
13:15:26.0 53 71 4:00.521 32.929 56 143 11
13:19:14.7 54 72 3:48.672 34.635 56 137 11
13:23:07.3 55 73 3:52.599 34.050 57 136 11
13:27:00.5 56 75 3:53.194 33.963 53 145 10
13:31:22.0 57 76 4:21.479 30.289 52 139 10
13:34:39.1 58 77 3:17.111 40.180 53 141 9
13:37:57.4 59 79 3:18.361 39.927 46 141 10
13:41:21.6 60 80 3:24.169 38.791 55 135 10
13:44:43.7 61 81 3:22.096 39.189 47 136 10
13:48:02.3 62 82 3:18.627 39.874 51 142 10
13:51:15.2 63 83 3:12.926 41.052 52 129 11
13:54:36.0 64 84 3:20.755 39.451 50 137 11
13:57:55.6 65 85 3:19.648 39.670 56 145 12
14:01:24.2 66 87 3:28.571 37.973 48 143 11
14:04:48.1 67 88 3:23.846 38.853 54 135 12
14:08:11.4 68 89 3:23.319 38.954 46 150 10
14:11:34.4 69 91 3:22.967 39.021 55 143 11
14:14:57.3 70 92 3:22.948 39.025 52 139 10
14:19:23.9 71 94 4:26.608 29.707 53 142 10
14:22:47.9 72 95 3:24.021 38.820 52 140 11
14:26:17.6 73 96 3:29.632 37.780 54 143 11
14:29:54.3 74 98 3:36.720 36.545 53 138 11
14:33:34.5 75 99 3:40.177 35.971 47 138 11
14:37:11.6 76 100 3:37.144 36.473 52 140 11
14:40:49.5 77 102 3:37.902 36.347 53 140 10
14:44:37.2 78 103 3:47.649 34.790 55 138 11
14:48:22.0 79 105 3:44.894 35.217 46 140 12
14:52:11.7 80 106 3:49.636 34.489 53 139 10
14:56:49.4 81 108 4:37.741 28.516 40 135 10
14:59:44.9 82 108 2:55.455 45.140 41 141 10
15:02:42.2 83 109 2:57.326 44.664 43 140 11
15:05:42.1 84 110 2:59.919 44.020 42 132 10
15:08:39.6 85 111 2:57.520 44.615 41 132 11
15:11:39.3 86 113 2:59.699 44.074 42 136 10
15:14:43.9 87 114 3:04.607 42.902 43 140 10
15:17:48.2 88 115 3:04.275 42.979 47 143 11
15:21:21.1 89 116 3:32.878 37.204 64 148 11
15:25:08.1 90 117 3:47.041 34.884 44 140 10
15:28:16.2 91 118 3:08.024 42.122 50 136 9
15:31:27.0 92 119 3:10.799 41.510 57 143 9
15:36:25.9 93 120 4:58.955 26.492 54 141 10
15:39:43.3 94 121 3:17.376 40.126 45 143 10
15:42:56.1 95 122 3:12.790 41.081 51 141 8
15:46:06.2 96 123 3:10.094 41.664 50 145 8
15:49:25.3 97 124 3:19.094 39.780 51 137 8
15:52:35.1 98 125 3:09.807 41.727 42 141 9
15:55:44.2 99 126 3:09.079 41.887 52 139 8
15:58:58.3 100 127 3:14.124 40.799 51 143 9
16:02:13.6 101 128 3:15.285 40.556 52 141 10
16:05:28.2 102 129 3:14.673 40.684 44 144 9
144 - Inferno Too Terzo Racing - Comm
10:05:32.3 1 1 3:21.053 39.393 59 166 7
10:08:48.0 2 2 3:15.675 40.475 59 169 8
10:12:06.0 3 3 3:18.079 39.984 60 171 7
10:15:23.4 4 5 3:17.412 40.119 60 171 7
10:18:47.6 5 6 3:24.163 38.793 58 168 9
10:22:06.0 6 7 3:18.369 39.926 59 171 9
10:25:24.9 7 9 3:18.923 39.814 59 168 7
10:28:46.0 8 10 3:21.140 39.376 61 171 9
10:32:09.6 9 11 3:23.583 38.903 60 167 9
10:35:35.8 10 12 3:26.171 38.415 59 170 10
10:38:57.1 11 14 3:21.318 39.341 59 171 11
10:42:20.7 12 15 3:23.560 38.907 61 168 10
10:45:45.5 13 16 3:24.807 38.671 59 168 10
10:49:09.6 14 17 3:24.125 38.800 59 168 11
10:52:30.9 15 19 3:21.304 39.343 58 166 11
10:55:56.6 16 20 3:25.718 38.499 61 169 10
10:59:23.6 17 21 3:27.021 38.257 59 169 10
11:02:41.2 18 22 3:17.601 40.081 60 170 11
11:07:29.9 19 24 4:48.675 27.436 60 172 10
11:10:55.7 20 25 3:25.801 38.484 55 174 10
11:14:38.2 21 27 3:42.503 35.595 61 170 9
11:18:20.1 22 28 3:41.878 35.695 59 170 10
11:22:03.7 23 30 3:43.575 35.424 58 172 11
11:25:55.8 24 31 3:52.149 34.116 62 169 11
11:29:55.2 25 32 3:59.333 33.092 61 172 12
11:33:30.5 26 34 3:35.370 36.774 61 170 10
11:37:14.3 27 35 3:43.736 35.399 61 175 10
11:40:58.8 28 36 3:44.585 35.265 62 171 10
11:44:50.9 29 38 3:52.045 34.131 63 171 10
11:51:29.4 30 40 6:38.465 19.876 62 176 11
11:55:33.3 31 42 4:03.946 32.466 64 170 11
11:59:28.7 32 43 3:55.412 33.643 60 176 10
12:03:14.9 33 45 3:46.170 35.018 58 176 10
12:07:02.2 34 46 3:47.311 34.842 62 177 10
12:11:21.9 35 48 4:19.701 30.497 61 173 11
12:15:52.1 36 49 4:30.188 29.313 67 178 10
12:20:10.5 37 51 4:18.405 30.650 64 177 9
12:24:01.0 38 52 3:50.542 34.354 63 175 10
12:28:05.3 39 54 4:04.294 32.420 64 173 9
12:32:13.2 40 55 4:07.873 31.952 61 171 10
12:37:36.5 41 57 5:23.337 24.495 56 167 10
12:41:09.0 42 58 3:32.435 37.282 60 173 10
12:44:42.8 43 60 3:33.833 37.038 59 174 11
12:48:10.5 44 61 3:27.727 38.127 56 171 11
12:51:38.2 45 62 3:27.659 38.139 58 168 10
12:55:12.8 46 63 3:34.650 36.897 56 172 10
12:58:49.5 47 64 3:36.696 36.549 57 170 11
13:02:36.5 48 66 3:46.927 34.901 61 175 11
13:06:27.4 49 67 3:50.888 34.302 61 172 11
13:10:16.1 50 69 3:48.729 34.626 59 173 11
13:14:16.8 51 70 4:00.703 32.904 65 177 11
13:18:01.1 52 71 3:44.280 35.313 58 170 11
13:23:13.3 53 73 5:12.254 25.364 55 173 12
13:26:18.1 54 74 3:04.733 42.873 54 169 11
13:29:19.3 55 75 3:01.293 43.686 54 169 10
13:32:26.2 56 77 3:06.837 42.390 56 167 9
13:35:34.3 57 78 3:08.123 42.100 56 168 9
13:38:43.3 58 79 3:08.950 41.916 55 169 9
13:41:57.6 59 80 3:14.310 40.760 57 168 10
13:45:10.9 60 81 3:13.286 40.976 55 171 10
13:48:20.3 61 82 3:09.490 41.796 56 172 11
13:51:30.9 62 83 3:10.570 41.560 54 168 12
13:54:42.4 63 84 3:11.500 41.358 55 168 12
13:57:58.0 64 85 3:15.572 40.497 56 169 12
14:01:14.4 65 87 3:16.430 40.320 56 170 11
14:04:32.5 66 88 3:18.057 39.988 56 170 11
14:07:49.1 67 89 3:16.650 40.275 52 176 10
14:11:05.1 68 90 3:15.971 40.414 56 167 10
14:14:21.2 69 92 3:16.069 40.394 57 170 10
14:17:33.9 70 93 3:12.762 41.087 56 168 11
14:20:45.4 71 94 3:11.508 41.356 55 170 11
14:24:02.9 72 95 3:17.473 40.107 54 167 10
14:27:19.1 73 97 3:16.173 40.373 55 171 11
14:30:38.9 74 98 3:19.807 39.638 58 172 12
14:34:01.1 75 99 3:22.181 39.173 57 171 11
14:37:14.5 76 100 3:13.481 40.934 56 171 12
14:40:29.7 77 102 3:15.159 40.582 56 168 10
14:43:49.1 78 103 3:19.412 39.717 56 169 10
14:47:12.5 79 104 3:23.342 38.949 59 167 8
14:50:34.3 80 106 3:21.806 39.246 57 172 10
14:53:55.5 81 107 3:21.242 39.356 59 169 10
14:57:22.5 82 108 3:26.982 38.264 47 170 10
15:00:47.4 83 109 3:24.876 38.658 52 170 10
15:04:16.5 84 110 3:29.183 37.862 55 168 11
15:07:47.4 85 111 3:30.811 37.569 59 166 10
15:11:20.8 86 112 3:33.420 37.110 60 168 10
15:14:59.4 87 114 3:38.615 36.228 50 169 10
15:20:49.4 88 116 5:50.041 22.626 73 178 9
15:24:50.3 89 117 4:00.838 32.885 55 167 9
15:28:03.2 90 118 3:12.879 41.062 56 170 11
15:31:11.4 91 119 3:08.265 42.068 58 171 11
15:36:20.0 92 120 5:08.589 25.665 57 169 9
15:39:28.9 93 121 3:08.863 41.935 56 170 11
15:42:38.4 94 122 3:09.515 41.791 57 165 8
15:45:49.0 95 123 3:10.604 41.552 56 171 8
15:49:01.1 96 124 3:12.092 41.230 57 167 9
15:52:20.0 97 125 3:18.895 39.820 58 172 9
15:55:35.5 98 126 3:15.573 40.496 57 170 9
15:58:51.9 99 127 3:16.385 40.329 56 165 9
16:02:06.2 100 128 3:14.293 40.763 59 170 9
16:05:20.2 101 129 3:13.987 40.827 56 171 9
42 - Helter Skelter Woodleigh - Open
10:05:06.8 1 1 2:56.589 44.850 56 151 7
10:08:18.0 2 2 3:11.133 41.437 54 151 8
10:11:26.4 3 3 3:08.446 42.028 55 151 7
10:14:39.5 4 4 3:13.089 41.017 56 152 8
10:17:55.8 5 6 3:16.354 40.335 55 151 9
10:21:12.7 6 7 3:16.896 40.224 56 153 8
10:24:28.0 7 8 3:15.291 40.555 54 152 8
10:27:41.7 8 9 3:13.709 40.886 57 151 9
10:30:57.8 9 10 3:16.108 40.386 55 151 8
10:34:16.4 10 12 3:18.553 39.889 55 149 10
10:37:32.8 11 13 3:16.393 40.327 56 152 10
10:40:50.2 12 14 3:17.370 40.128 55 152 10
10:44:09.3 13 15 3:19.155 39.768 57 150 10
10:47:31.5 14 17 3:22.181 39.173 55 150 9
10:50:55.0 15 18 3:23.452 38.928 56 152 11
10:54:16.5 16 19 3:21.514 39.302 55 151 10
10:57:37.2 17 21 3:20.701 39.462 57 152 9
11:00:57.3 18 22 3:20.108 39.579 56 151 10
11:04:21.7 19 23 3:24.462 38.736 55 154 9
11:08:31.5 20 25 4:09.767 31.710 57 155 9
11:11:49.7 21 26 3:18.244 39.951 56 156 10
11:15:12.8 22 27 3:23.066 39.002 56 156 11
11:18:34.0 23 28 3:21.145 39.375 55 152 10
11:22:03.6 24 30 3:29.624 37.782 56 152 11
11:25:36.1 25 31 3:32.506 37.270 58 154 10
11:29:14.4 26 32 3:38.265 36.286 56 157 10
11:32:52.0 27 34 3:37.689 36.382 58 156 12
11:36:22.7 28 35 3:30.629 37.602 56 159 11
11:39:55.0 29 36 3:32.352 37.297 56 156 12
11:43:30.3 30 37 3:35.270 36.791 55 158 10
11:47:09.0 31 38 3:38.666 36.220 57 160 9
11:51:35.8 32 40 4:26.809 29.684 57 156 9
11:55:19.4 33 42 3:43.608 35.419 57 155 10
11:59:00.0 34 43 3:40.588 35.904 58 153 11
12:02:50.9 35 44 3:50.936 34.295 58 153 10
12:06:41.2 36 46 3:50.275 34.394 59 158 12
12:10:34.8 37 47 3:53.626 33.900 57 155 10
12:14:25.6 38 49 3:50.787 34.317 60 156 9
12:18:19.0 39 50 3:53.408 33.932 58 156 9
12:22:12.6 40 52 3:53.564 33.909 59 152 9
12:26:06.4 41 53 3:53.859 33.867 58 153 10
12:29:58.5 42 54 3:52.125 34.120 59 155 10
12:33:53.0 43 56 3:54.434 33.783 59 155 10
12:38:40.6 44 58 4:47.592 27.539 59 156 9
12:42:44.6 45 59 4:04.065 32.450 60 159 11
12:46:51.4 46 60 4:06.773 32.094 60 160 12
12:51:01.5 47 62 4:10.044 31.674 61 159 10
12:55:10.3 48 63 4:08.850 31.826 58 160 10
12:59:13.7 49 65 4:03.414 32.537 57 157 10
13:03:26.0 50 66 4:12.303 31.391 62 161 9
13:07:51.5 51 68 4:25.526 29.828 61 158 11
13:12:05.7 52 69 4:14.189 31.158 61 159 10
13:16:27.6 53 71 4:21.913 30.239 64 157 12
13:20:56.8 54 72 4:29.152 29.426 55 152 12
13:24:26.8 55 74 3:29.983 37.717 57 153 11
13:27:55.1 56 75 3:28.307 38.021 56 152 11
13:31:30.4 57 76 3:35.261 36.793 57 151 9
13:35:03.5 58 78 3:33.146 37.158 58 154 10
13:38:41.0 59 79 3:37.477 36.418 58 153 9
13:42:16.9 60 80 3:35.975 36.671 57 155 10
13:45:50.5 61 81 3:33.548 37.088 54 151 9
13:49:27.1 62 83 3:36.554 36.573 57 154 11
13:53:17.3 63 84 3:50.222 34.402 59 153 10
13:57:02.9 64 85 3:45.622 35.103 58 153 11
14:00:51.5 65 86 3:48.626 34.642 56 153 11
14:04:40.2 66 88 3:48.715 34.628 59 154 11
14:08:35.7 67 89 3:55.453 33.637 59 153 11
14:12:19.1 68 91 3:43.440 35.446 57 154 9
14:16:19.2 69 92 4:00.029 32.996 51 150 11
14:19:21.6 70 94 3:02.437 43.412 54 150 10
14:22:37.9 71 95 3:16.279 40.351 53 149 11
14:25:49.5 72 96 3:11.651 41.325 55 150 11
14:29:02.4 73 97 3:12.897 41.058 53 152 11
14:32:16.0 74 99 3:13.602 40.909 55 153 11
14:35:28.6 75 100 3:12.558 41.130 53 150 10
14:38:46.6 76 101 3:17.972 40.006 54 150 11
14:42:02.1 77 102 3:15.573 40.496 56 150 9
14:45:16.2 78 103 3:14.038 40.817 51 157 10
14:48:34.8 79 105 3:18.603 39.879 55 151 10
14:51:51.9 80 106 3:17.168 40.169 53 151 10
14:55:09.7 81 107 3:17.813 40.038 53 152 11
14:58:34.8 82 108 3:25.028 38.629 56 153 11
15:01:56.6 83 109 3:21.855 39.236 56 151 12
15:05:24.9 84 110 3:28.283 38.025 54 151 10
15:08:43.7 85 111 3:18.769 39.845 54 151 11
15:12:31.7 86 113 3:48.011 34.735 55 152 10
15:15:49.0 87 114 3:17.310 40.140 54 151 9
15:19:46.4 88 115 3:57.402 33.361 67 160 11
15:23:23.5 89 116 3:37.069 36.486 57 152 10
15:26:47.7 90 117 3:24.207 38.784 50 148 9
15:30:10.3 91 119 3:22.579 39.096 55 152 10
15:36:02.5 92 120 5:52.200 22.487 64 155 9
15:39:23.8 93 121 3:21.381 39.328 56 150 10
15:42:51.3 94 122 3:27.431 38.181 56 154 8
15:46:16.4 95 123 3:25.165 38.603 55 151 8
15:49:48.6 96 124 3:32.160 37.330 57 152 9
15:53:21.5 97 125 3:32.870 37.206 56 152 8
15:56:50.8 98 126 3:29.347 37.832 57 158 9
16:00:23.9 99 127 3:33.064 37.172 56 155 9
16:03:59.7 100 128 3:35.868 36.689 55 154 9
16:07:41.9 101 129 3:42.184 35.646 57 155 9
50 - Zeus SMS/BGS - Open
10:05:44.5 1 1 3:34.881 36.858 59 167 9
10:09:38.7 2 3 3:54.226 33.813 62 168 7
10:13:44.6 3 4 4:05.923 32.205 63 168 7
10:17:51.4 4 6 4:06.766 32.095 62 168 9
10:21:56.9 5 7 4:05.536 32.256 62 167 8
10:26:07.8 6 9 4:10.898 31.567 62 168 8
10:30:16.2 7 10 4:08.420 31.881 62 167 10
10:34:23.6 8 12 4:07.417 32.011 61 168 9
10:38:40.4 9 13 4:16.725 30.850 59 168 11
10:42:52.2 10 15 4:11.800 31.454 61 171 10
10:47:01.1 11 17 4:08.957 31.813 63 167 11
10:52:47.1 12 19 5:45.934 22.895 84 175 11
10:56:00.7 13 20 3:13.657 40.897 55 165 10
10:59:08.5 14 21 3:07.838 42.164 56 164 9
11:02:19.4 15 22 3:10.869 41.494 52 164 9
11:05:28.8 16 23 3:09.416 41.813 56 167 9
11:08:46.0 17 25 3:17.197 40.163 53 165 9
11:12:03.4 18 26 3:17.369 40.128 54 164 9
11:15:14.9 19 27 3:11.538 41.349 57 168 10
11:18:29.0 20 28 3:14.032 40.818 56 165 10
11:21:57.8 21 30 3:28.808 37.930 56 166 10
11:25:22.9 22 31 3:25.091 38.617 56 166 10
11:28:37.9 23 32 3:14.995 40.616 55 163 10
11:31:59.6 24 33 3:21.779 39.251 56 165 9
11:35:20.4 25 34 3:20.787 39.445 57 165 10
11:38:42.4 26 36 3:21.943 39.219 58 166 11
11:41:59.0 27 37 3:16.651 40.274 55 166 11
11:45:28.4 28 38 3:29.350 37.831 59 167 10
11:50:40.0 29 40 5:11.637 25.414 73 173 10
11:53:56.7 30 41 3:16.693 40.266 55 167 10
11:57:11.2 31 42 3:14.529 40.714 56 169 10
12:00:25.4 32 44 3:14.161 40.791 55 167 11
12:03:38.4 33 45 3:12.994 41.038 56 167 11
12:06:56.6 34 46 3:18.233 39.953 55 163 11
12:10:15.4 35 47 3:18.773 39.844 55 167 10
12:13:38.9 36 48 3:23.473 38.924 56 163 9
12:16:59.5 37 50 3:20.607 39.480 55 167 10
12:20:19.4 38 51 3:19.905 39.619 57 166 10
12:23:36.7 39 52 3:17.301 40.142 56 165 9
12:26:58.1 40 53 3:21.428 39.319 57 166 10
12:30:19.6 41 55 3:21.486 39.308 56 168 11
12:33:43.2 42 56 3:23.597 38.900 57 168 10
12:37:10.1 43 57 3:26.886 38.282 57 166 11
12:40:37.5 44 58 3:27.451 38.178 59 169 10
12:44:11.8 45 60 3:34.303 36.957 56 167 11
12:47:38.6 46 61 3:26.746 38.308 55 168 13
12:52:14.6 47 62 4:36.032 28.692 76 175 10
12:55:32.8 48 63 3:18.197 39.960 55 162 11
12:58:42.8 49 64 3:10.001 41.684 54 161 10
13:01:55.6 50 66 3:12.747 41.090 53 166 10
13:05:06.5 51 67 3:10.982 41.470 54 164 11
13:08:20.7 52 68 3:14.120 40.800 54 166 11
13:11:37.8 53 69 3:17.176 40.167 51 165 11
13:14:58.4 54 70 3:20.535 39.494 57 167 11
13:18:21.2 55 72 3:22.870 39.040 57 165 10
13:21:47.3 56 73 3:26.063 38.435 57 167 11
13:25:13.1 57 74 3:25.781 38.488 57 164 11
13:28:37.6 58 75 3:24.560 38.717 57 165 10
13:32:03.5 59 76 3:25.856 38.473 58 166 9
13:35:28.7 60 78 3:25.171 38.602 57 166 9
13:38:56.4 61 79 3:27.772 38.119 58 163 9
13:42:27.0 62 80 3:30.522 37.621 56 167 10
13:46:52.6 63 82 4:25.610 29.818 76 176 9
13:50:13.1 64 83 3:20.554 39.491 54 164 10
13:53:36.5 65 84 3:23.423 38.934 59 168 11
13:57:05.1 66 85 3:28.507 37.984 57 167 12
14:00:43.7 67 86 3:38.604 36.230 57 167 11
14:04:14.0 68 88 3:30.346 37.652 56 171 11
14:07:49.0 69 89 3:34.986 36.840 54 168 10
14:11:28.4 70 91 3:39.452 36.090 58 170 11
14:15:07.6 71 92 3:39.190 36.133 58 166 12
14:18:44.9 72 93 3:37.233 36.459 58 165 10
14:22:19.8 73 95 3:34.898 36.855 58 167 11
14:27:11.6 74 97 4:51.801 27.142 81 174 10
14:30:49.2 75 98 3:37.603 36.397 59 167 12
14:34:28.0 76 99 3:38.879 36.184 58 169 11
14:38:06.8 77 101 3:38.717 36.211 59 169 11
14:41:46.6 78 102 3:39.863 36.022 56 166 9
14:45:16.3 79 103 3:29.715 37.766 54 168 10
14:48:36.4 80 105 3:20.102 39.580 56 169 10
14:52:11.2 81 106 3:34.740 36.882 57 167 10
14:55:48.6 82 108 3:37.445 36.423 57 169 10
14:59:28.6 83 108 3:39.929 36.012 58 168 10
15:03:06.3 84 109 3:37.704 36.380 60 171 11
15:06:57.0 85 111 3:50.707 34.329 58 168 10
15:10:45.5 86 112 3:48.487 34.663 55 165 11
15:14:35.5 87 114 3:50.075 34.424 59 166 10
15:20:21.5 88 115 5:45.957 22.893 84 176 10
15:24:17.4 89 116 3:55.942 33.568 52 164 11
15:27:44.8 90 118 3:27.381 38.191 57 167 11
15:31:08.8 91 119 3:24.001 38.823 63 171 9
15:36:27.0 92 120 5:18.231 24.888 62 171 10
15:39:56.2 93 121 3:29.134 37.870 57 169 9
15:43:22.4 94 122 3:26.253 38.399 57 167 8
15:46:49.3 95 123 3:26.839 38.291 58 167 8
15:50:23.7 96 124 3:34.462 36.930 58 166 7
15:54:00.1 97 125 3:36.350 36.607 58 168 9
15:57:45.0 98 126 3:44.950 35.208 60 167 9
16:01:26.6 99 128 3:41.603 35.740 57 168 9
16:05:08.9 100 129 3:42.292 35.629 61 169 9
128 - Anti Venom Instinct - Vet
10:05:05.4 1 1 2:53.370 45.683 55 145 7
10:08:04.3 2 2 2:58.932 44.263 58 146 8
10:11:02.5 3 3 2:58.195 44.446 57 148 7
10:14:02.6 4 4 3:00.116 43.972 56 145 8
10:17:01.0 5 5 2:58.409 44.392 57 146 11
10:20:00.0 6 7 2:58.955 44.257 53 145 8
10:23:01.9 7 8 3:01.880 43.545 57 145 7
10:25:59.4 8 9 2:57.567 44.603 51 146 8
10:28:55.4 9 10 2:56.002 44.999 55 150 9
10:31:56.8 10 11 3:01.395 43.662 57 146 9
10:35:37.6 11 12 3:40.745 35.879 59 147 10
10:38:54.3 12 13 3:16.755 40.253 57 149 11
10:42:02.0 13 15 3:07.672 42.201 54 146 11
10:45:08.6 14 16 3:06.650 42.432 58 150 10
10:48:12.9 15 17 3:04.281 42.978 57 147 10
10:51:19.6 16 18 3:06.690 42.423 57 149 11
10:54:24.0 17 19 3:04.374 42.956 55 147 11
10:57:36.6 18 21 3:12.626 41.116 57 148 9
11:00:51.4 19 22 3:14.741 40.669 58 152 9
11:03:57.1 20 23 3:05.732 42.642 56 146 10
11:06:53.4 21 24 2:56.315 44.920 57 145 9
11:10:02.3 22 25 3:08.879 41.932 58 147 10
11:15:24.9 23 27 5:22.638 24.548 61 152 10
11:19:01.4 24 28 3:36.525 36.578 58 151 10
11:22:40.6 25 30 3:39.151 36.139 60 150 10
11:26:18.0 26 31 3:37.395 36.431 60 147 10
11:30:02.0 27 33 3:44.020 35.354 60 150 12
11:33:42.9 28 34 3:40.847 35.862 61 153 10
11:37:28.7 29 35 3:45.864 35.065 61 151 10
11:41:10.8 30 36 3:42.120 35.656 60 150 11
11:45:05.8 31 38 3:54.953 33.709 61 152 10
11:48:55.1 32 39 3:49.296 34.541 61 149 10
11:52:39.6 33 41 3:44.459 35.285 60 153 11
11:56:22.8 34 42 3:43.286 35.470 61 150 10
12:00:12.1 35 43 3:49.295 34.541 61 151 10
12:03:59.6 36 45 3:47.449 34.821 62 150 10
12:07:47.8 37 46 3:48.251 34.699 61 148 10
12:13:35.3 38 48 5:47.483 22.792 65 154 9
12:17:50.3 39 50 4:14.985 31.061 66 154 9
12:22:12.3 40 52 4:21.961 30.234 65 154 9
12:26:36.9 41 53 4:24.659 29.925 64 155 10
12:31:04.7 42 55 4:27.792 29.575 64 156 10
12:35:17.9 43 56 4:13.202 31.279 63 156 9
12:39:35.1 44 58 4:17.203 30.793 65 156 9
12:43:56.2 45 59 4:21.091 30.334 65 153 12
12:48:08.0 46 61 4:11.742 31.461 63 155 10
12:52:28.0 47 62 4:20.034 30.458 64 156 11
12:56:56.2 48 64 4:28.236 29.526 63 154 10
13:02:04.7 49 66 5:08.517 25.671 56 151 10
13:05:29.0 50 67 3:24.268 38.773 59 150 11
13:09:00.3 51 68 3:31.245 37.492 60 150 11
13:12:34.6 52 69 3:34.336 36.951 63 153 11
13:16:12.6 53 71 3:37.966 36.336 60 153 11
13:19:51.7 54 72 3:39.135 36.142 58 156 12
13:23:27.0 55 73 3:35.264 36.792 56 156 10
13:27:00.7 56 75 3:33.739 37.055 59 148 10
13:30:28.1 57 76 3:27.451 38.178 57 147 10
13:33:55.1 58 77 3:26.977 38.265 58 153 9
13:37:24.1 59 78 3:28.954 37.903 57 149 9
13:40:54.8 60 80 3:30.737 37.582 59 149 9
13:44:26.3 61 81 3:31.477 37.451 59 154 10
13:47:58.7 62 82 3:32.418 37.285 59 151 10
13:51:28.3 63 83 3:29.596 37.787 57 146 12
13:55:02.8 64 84 3:34.506 36.922 61 151 13
13:58:39.2 65 86 3:36.343 36.609 56 147 11
14:02:13.0 66 87 3:33.821 37.040 59 151 11
14:07:00.0 67 89 4:47.071 27.589 58 151 11
14:10:38.5 68 90 3:38.465 36.253 59 153 11
14:14:19.4 69 92 3:40.883 35.856 56 151 11
14:17:58.5 70 93 3:39.075 36.152 60 147 11
14:21:41.1 71 95 3:42.626 35.575 57 154 11
14:25:29.0 72 96 3:47.954 34.744 61 149 11
14:29:10.4 73 97 3:41.371 35.777 61 147 12
14:33:02.1 74 99 3:51.670 34.187 55 155 11
14:36:45.9 75 100 3:43.832 35.384 60 149 11
14:40:31.1 76 102 3:45.211 35.167 60 152 10
14:44:12.2 77 103 3:41.089 35.823 60 150 11
14:47:51.5 78 104 3:39.286 36.117 60 151 11
14:52:37.9 79 106 4:46.434 27.650 59 148 11
14:56:12.6 80 108 3:34.634 36.900 58 152 10
14:59:50.0 81 108 3:37.447 36.423 59 152 11
15:03:25.6 82 110 3:35.603 36.734 60 152 10
15:07:04.9 83 111 3:39.304 36.114 59 153 10
15:10:39.9 84 112 3:34.938 36.848 58 150 11
15:14:13.2 85 113 3:33.363 37.120 57 150 11
15:17:48.8 86 115 3:35.548 36.744 60 149 11
15:21:59.3 87 116 4:10.504 31.616 70 154 10
15:27:04.0 88 117 5:04.698 25.993 61 151 9
15:30:27.4 89 119 3:23.395 38.939 57 150 10
15:36:15.1 90 120 5:47.731 22.776 62 147 10
15:39:31.2 91 121 3:16.055 40.397 56 148 10
15:42:39.9 92 122 3:08.738 41.963 57 148 8
15:45:49.9 93 123 3:09.980 41.689 56 149 8
15:49:03.9 94 124 3:14.003 40.824 58 149 9
15:52:21.0 95 125 3:17.150 40.172 54 151 9
15:55:31.1 96 126 3:10.058 41.671 54 146 9
15:58:48.5 97 127 3:17.368 40.128 56 154 9
16:02:03.6 98 128 3:15.155 40.583 58 147 9
16:05:13.7 99 129 3:10.040 41.675 57 149 9
91 - Poison Instinct - Open
10:05:31.4 1 1 3:16.329 40.340 56 149 7
10:08:55.4 2 2 3:23.983 38.827 58 151 7
10:12:24.5 3 4 3:29.165 37.865 56 149 8
10:15:50.4 4 5 3:25.833 38.478 57 149 7
10:19:21.6 5 6 3:31.188 37.502 53 148 9
10:22:50.2 6 8 3:28.664 37.956 58 152 8
10:26:24.5 7 9 3:34.312 36.955 60 150 8
10:30:13.5 8 10 3:48.929 34.596 58 150 9
10:34:11.2 9 12 3:57.744 33.313 58 149 9
10:38:10.0 10 13 3:58.801 33.166 61 151 10
10:42:01.2 11 15 3:51.142 34.265 59 150 9
10:45:51.2 12 16 3:50.041 34.429 59 150 10
10:49:38.7 13 18 3:47.460 34.819 60 151 11
10:55:14.0 14 20 5:35.288 23.621 58 154 10
10:59:12.5 15 21 3:58.513 33.206 62 154 9
11:03:13.3 16 23 4:00.843 32.884 62 155 10
11:07:21.3 17 24 4:08.017 31.933 61 153 9
11:11:32.3 18 26 4:10.931 31.562 63 153 10
11:15:34.7 19 27 4:02.445 32.667 61 155 11
11:19:42.0 20 29 4:07.311 32.024 63 156 10
11:23:56.7 21 30 4:14.704 31.095 64 157 10
11:28:08.1 22 32 4:11.404 31.503 60 156 10
11:32:21.5 23 33 4:13.333 31.263 63 157 11
11:36:38.1 24 35 4:16.666 30.857 62 155 11
11:40:52.8 25 36 4:14.707 31.095 53 150 10
11:44:00.3 26 37 3:07.518 42.236 55 153 11
11:47:09.0 27 38 3:08.675 41.977 53 150 9
11:50:21.2 28 40 3:12.184 41.211 56 151 9
11:53:32.7 29 41 3:11.493 41.359 54 156 11
11:56:45.6 30 42 3:12.887 41.060 56 152 10
11:59:58.6 31 43 3:13.064 41.023 57 153 11
12:03:14.9 32 45 3:16.205 40.366 53 150 10
12:06:30.6 33 46 3:15.730 40.464 58 151 10
12:09:56.4 34 47 3:25.823 38.480 56 150 10
12:13:34.9 35 48 3:38.534 36.242 57 152 9
12:16:54.4 36 50 3:19.473 39.705 55 154 10
12:20:11.2 37 51 3:16.779 40.248 54 151 9
12:23:25.8 38 52 3:14.563 40.707 57 150 11
12:29:09.7 39 54 5:43.907 23.029 77 164 10
12:35:19.1 40 56 6:09.479 21.436 56 154 9
12:38:47.3 41 58 3:28.163 38.047 58 155 10
12:42:19.7 42 59 3:32.381 37.291 56 151 11
12:45:47.1 43 60 3:27.434 38.181 58 155 11
12:49:22.2 44 61 3:35.101 36.820 59 155 11
12:52:53.6 45 62 3:31.390 37.466 57 153 11
12:56:34.8 46 64 3:41.170 35.810 57 154 9
13:00:06.8 47 65 3:32.025 37.354 56 153 10
13:03:49.3 48 66 3:42.458 35.602 59 151 11
13:07:31.3 49 68 3:42.065 35.665 58 152 10
13:11:53.6 50 69 4:22.322 30.192 54 152 10
13:15:20.1 51 70 3:26.472 38.359 55 153 12
13:18:49.7 52 72 3:29.610 37.784 56 153 11
13:22:15.4 53 73 3:25.635 38.515 56 151 11
13:25:40.8 54 74 3:25.461 38.547 56 151 11
13:29:02.1 55 75 3:21.230 39.358 55 151 10
13:32:28.3 56 77 3:26.211 38.407 56 151 9
13:35:54.7 57 78 3:26.407 38.371 55 150 10
13:39:23.6 58 79 3:28.893 37.914 56 152 10
13:42:51.4 59 80 3:27.877 38.099 57 154 10
13:46:17.0 60 81 3:25.598 38.522 55 156 10
13:49:50.0 61 83 3:33.006 37.182 57 153 11
13:53:21.7 62 84 3:31.606 37.428 54 152 11
13:56:45.2 63 85 3:23.583 38.903 55 152 11
14:00:13.0 64 86 3:27.791 38.115 55 151 11
14:03:41.0 65 88 3:27.949 38.086 56 153 10
14:07:14.5 66 89 3:33.505 37.095 56 156 11
14:10:46.4 67 90 3:31.944 37.368 58 154 11
14:14:19.1 68 92 3:32.662 37.242 51 156 11
14:18:42.6 69 93 4:23.541 30.052 55 150 10
14:22:15.7 70 95 3:33.117 37.163 57 149 11
14:25:53.0 71 96 3:37.250 36.456 55 149 10
14:29:31.0 72 98 3:38.052 36.322 58 150 11
14:33:08.0 73 99 3:36.971 36.503 56 148 11
14:36:43.3 74 100 3:35.305 36.785 57 149 11
14:40:23.4 75 102 3:40.112 35.982 58 150 10
14:44:07.8 76 103 3:44.359 35.301 58 150 10
14:48:02.2 77 105 3:54.394 33.789 61 151 11
14:52:10.1 78 106 4:07.869 31.952 60 151 10
14:56:25.4 79 108 4:15.365 31.014 59 153 10
15:00:30.4 80 108 4:04.942 32.334 59 153 10
15:04:32.2 81 110 4:01.808 32.753 58 150 10
15:08:18.2 82 111 3:46.053 35.036 54 149 11
15:13:42.9 83 113 5:24.659 24.395 56 154 10
15:17:33.5 84 115 3:50.618 34.343 59 154 10
15:21:33.2 85 116 3:59.682 33.044 65 156 11
15:25:48.5 86 117 4:15.285 31.024 60 154 9
15:30:02.1 87 119 4:13.629 31.227 54 151 11
15:36:06.8 88 120 6:04.663 21.719 64 154 9
15:39:15.2 89 121 3:08.409 42.036 54 148 10
15:42:22.3 90 122 3:07.089 42.333 55 155 8
15:45:36.8 91 122 3:14.576 40.704 56 156 8
15:48:58.0 92 124 3:21.136 39.376 58 152 9
15:52:19.6 93 125 3:21.669 39.272 55 151 9
15:55:39.4 94 126 3:19.748 39.650 55 149 9
15:59:02.4 95 127 3:23.054 39.004 57 151 9
16:02:33.9 96 128 3:31.422 37.461 58 154 9
16:06:12.8 97 129 3:38.903 36.180 59 155 8
36 - Ceto SMS/BGS - Female
10:05:57.4 1 1 3:34.381 36.944 57 163 8
10:09:37.3 2 3 3:39.924 36.012 57 165 7
10:13:21.1 3 4 3:43.757 35.396 54 163 7
10:17:08.9 4 5 3:47.817 34.765 59 162 9
10:21:03.3 5 7 3:54.375 33.792 56 162 8
10:24:59.0 6 8 3:55.717 33.600 59 164 8
10:28:52.9 7 10 3:53.926 33.857 59 162 9
10:32:43.2 8 11 3:50.290 34.391 59 163 10
10:36:36.1 9 13 3:52.859 34.012 58 161 10
10:40:29.1 10 14 3:53.069 33.981 58 164 10
10:44:08.5 11 15 3:39.417 36.096 59 163 10
10:50:14.2 12 18 6:05.664 21.659 80 172 11
10:54:03.1 13 19 3:48.896 34.601 56 163 11
10:57:39.8 14 21 3:36.720 36.545 57 163 9
11:01:13.8 15 22 3:33.926 37.022 55 163 9
11:04:44.3 16 23 3:30.539 37.618 55 164 10
11:08:11.7 17 24 3:27.365 38.194 55 164 9
11:11:40.7 18 26 3:29.059 37.884 56 160 10
11:15:19.9 19 27 3:39.210 36.130 57 164 10
11:18:58.5 20 28 3:38.538 36.241 58 165 10
11:22:41.6 21 30 3:43.167 35.489 57 163 10
11:26:25.7 22 31 3:44.054 35.349 55 167 10
11:31:51.2 23 33 5:25.517 24.331 84 173 10
11:35:36.0 24 35 3:44.794 35.232 57 162 12
11:39:11.8 25 36 3:35.803 36.700 57 165 11
11:42:48.3 26 37 3:36.533 36.576 57 163 9
11:46:16.8 27 38 3:28.451 37.995 57 164 9
11:49:48.6 28 40 3:31.818 37.391 55 162 10
11:53:18.0 29 41 3:29.391 37.824 56 164 11
11:56:54.5 30 42 3:36.556 36.573 53 159 10
12:00:23.9 31 43 3:29.370 37.828 57 163 11
12:03:52.8 32 45 3:28.907 37.912 55 163 10
12:07:26.9 33 46 3:34.105 36.991 57 160 11
12:11:02.6 34 47 3:35.630 36.730 58 163 10
12:16:21.6 35 49 5:19.011 24.827 73 170 10
12:20:06.1 36 51 3:44.508 35.277 55 164 9
12:23:44.2 37 52 3:38.123 36.310 58 166 10
12:27:24.5 38 53 3:40.345 35.944 58 168 10
12:31:13.3 39 55 3:48.803 34.615 58 167 10
12:35:01.2 40 56 3:47.853 34.759 59 167 10
12:38:48.8 41 58 3:47.639 34.792 58 165 10
12:42:37.2 42 59 3:48.342 34.685 58 169 12
12:46:22.6 43 60 3:45.443 35.131 58 163 12
12:50:13.9 44 62 3:51.308 34.240 57 163 10
12:54:11.1 45 63 3:57.207 33.389 60 166 11
12:58:11.3 46 64 4:00.137 32.981 58 165 12
13:03:18.6 47 66 5:07.354 25.768 70 170 9
13:07:11.9 48 68 3:53.277 33.951 55 159 10
13:10:46.2 49 69 3:34.289 36.959 57 160 11
13:14:23.5 50 70 3:37.283 36.450 55 159 12
13:17:57.2 51 71 3:33.722 37.057 56 160 11
13:21:35.9 52 73 3:38.727 36.210 56 159 12
13:25:18.3 53 74 3:42.344 35.620 57 160 10
13:29:00.4 54 75 3:42.128 35.655 57 161 10
13:32:47.2 55 77 3:46.841 34.914 56 160 8
13:36:39.6 56 78 3:52.323 34.090 60 163 11
13:42:46.5 57 80 6:06.956 21.583 72 168 10
13:46:17.2 58 81 3:30.718 37.586 55 162 10
13:49:55.8 59 83 3:38.535 36.241 57 162 11
13:53:36.2 60 84 3:40.468 35.924 55 160 11
13:57:04.5 61 85 3:28.228 38.035 57 162 12
14:00:45.5 62 86 3:41.028 35.833 53 161 11
14:04:27.6 63 88 3:42.124 35.656 58 162 11
14:08:22.9 64 89 3:55.326 33.655 58 162 11
14:12:17.5 65 91 3:54.534 33.769 55 162 10
14:16:13.5 66 92 3:56.040 33.554 58 166 10
14:20:17.1 67 94 4:03.540 32.520 61 166 11
14:24:23.7 68 96 4:06.658 32.109 59 163 11
14:30:30.4 69 98 6:06.709 21.598 84 174 12
14:33:44.1 70 99 3:13.658 40.897 52 158 12
14:36:54.5 71 100 3:10.377 41.602 52 158 12
14:40:09.0 72 102 3:14.532 40.713 54 159 11
14:43:23.4 73 103 3:14.357 40.750 51 157 9
14:46:37.6 74 104 3:14.227 40.777 53 159 8
14:49:51.3 75 105 3:13.736 40.880 52 158 10
14:53:07.1 76 107 3:15.803 40.449 54 158 10
14:56:23.5 77 108 3:16.356 40.335 53 159 10
14:59:41.5 78 108 3:18.027 39.995 53 157 10
15:02:58.3 79 109 3:16.783 40.247 52 158 12
15:06:19.3 80 111 3:21.026 39.398 53 160 11
15:09:40.0 81 112 3:20.697 39.462 52 159 11
15:13:00.9 82 113 3:20.896 39.423 53 157 11
15:16:23.1 83 114 3:22.172 39.175 52 158 9
15:21:03.6 84 116 4:40.561 28.229 82 172 11
15:24:49.9 85 117 3:46.233 35.008 55 159 9
15:28:09.9 86 118 3:20.028 39.594 55 160 10
15:31:27.6 87 119 3:17.731 40.054 59 163 9
15:36:25.3 88 120 4:57.620 26.611 57 158 10
15:39:50.8 89 121 3:25.520 38.536 54 160 10
15:43:11.8 90 122 3:21.032 39.397 56 161 8
15:46:32.1 91 123 3:20.298 39.541 56 161 8
15:49:54.4 92 124 3:22.298 39.150 54 161 8
15:53:20.4 93 125 3:25.983 38.450 55 161 8
15:56:41.9 94 126 3:21.558 39.294 54 162 8
16:00:07.9 95 127 3:25.929 38.460 55 163 9
16:03:33.3 96 128 3:25.423 38.555 54 160 9
16:07:01.0 97 129 3:27.716 38.129 55 159 9
34 - Delicious Mt Eliza SC - Senior
10:05:23.8 1 1 3:09.370 41.823 59 140 6
10:08:43.5 2 2 3:19.727 39.654 62 141 7
10:13:20.9 3 4 4:37.372 28.554 72 148 7
10:16:46.2 4 5 3:25.285 38.581 58 144 8
10:20:10.7 5 7 3:24.547 38.720 56 142 8
10:23:56.3 6 8 3:45.555 35.113 61 143 8
10:29:34.6 7 10 5:38.273 23.413 84 152 8
10:33:08.0 8 11 3:33.421 37.110 61 142 9
10:36:50.7 9 13 3:42.688 35.565 60 145 10
10:40:36.5 10 14 3:45.814 35.073 62 143 11
10:44:35.6 11 16 3:59.163 33.115 66 144 9
10:48:42.6 12 17 4:06.981 32.067 63 143 11
10:53:58.1 13 19 5:15.510 25.102 83 151 11
10:57:01.0 14 20 3:02.850 43.314 56 145 10
11:00:09.5 15 21 3:08.482 42.020 55 146 10
11:03:23.2 16 23 3:13.708 40.886 59 143 10
11:06:39.5 17 24 3:16.304 40.346 57 147 10
11:12:14.7 18 26 5:35.230 23.626 84 152 10
11:15:40.6 19 27 3:25.883 38.468 59 149 10
11:19:00.8 20 28 3:20.195 39.561 57 143 10
11:22:20.7 21 30 3:19.946 39.611 59 142 10
11:28:07.4 22 32 5:46.638 22.848 84 151 10
11:32:16.7 23 33 4:09.326 31.766 66 144 11
11:36:28.1 24 35 4:11.439 31.499 60 143 12
11:40:38.3 25 36 4:10.197 31.655 60 143 10
11:44:53.2 26 38 4:14.857 31.076 62 145 11
11:49:02.6 27 39 4:09.442 31.751 62 142 9
11:55:04.2 28 41 6:01.551 21.906 84 152 10
11:58:45.4 29 43 3:41.168 35.810 59 141 10
12:02:28.7 30 44 3:43.364 35.458 60 142 10
12:06:14.6 31 46 3:45.836 35.070 59 142 10
12:10:07.4 32 47 3:52.834 34.016 56 142 10
12:13:55.0 33 49 3:47.635 34.793 59 144 11
12:17:46.1 34 50 3:51.060 34.277 60 143 10
12:21:38.6 35 51 3:52.515 34.062 59 147 9
12:26:40.6 36 53 5:02.032 26.222 73 148 10
12:30:01.1 37 54 3:20.451 39.511 56 142 10
12:33:23.4 38 56 3:22.311 39.148 57 147 10
12:36:45.5 39 57 3:22.072 39.194 56 142 11
12:40:09.1 40 58 3:23.617 38.897 55 140 10
12:43:32.6 41 59 3:23.489 38.921 56 141 11
12:46:58.8 42 61 3:26.277 38.395 54 141 12
12:50:22.8 43 62 3:23.912 38.840 59 142 11
12:53:51.5 44 63 3:28.696 37.950 50 139 10
12:57:16.6 45 64 3:25.101 38.615 58 140 10
13:03:22.1 46 66 6:05.574 21.665 74 146 9
13:06:49.4 47 67 3:27.296 38.206 55 140 11
13:10:19.9 48 69 3:30.508 37.623 58 141 12
13:13:46.4 49 70 3:26.486 38.356 55 139 11
13:17:16.0 50 71 3:29.629 37.781 58 139 11
13:20:50.3 51 72 3:34.218 36.972 57 138 12
13:26:08.8 52 74 5:18.525 24.865 84 151 11
13:30:07.5 53 76 3:58.732 33.175 59 141 10
13:34:03.2 54 77 3:55.703 33.602 60 141 9
13:37:59.0 55 79 3:55.757 33.594 62 143 10
13:41:56.7 56 80 3:57.728 33.315 61 143 10
13:46:00.8 57 81 4:04.135 32.441 58 143 10
13:49:59.4 58 83 3:58.575 33.197 63 148 11
13:54:00.9 59 84 4:01.518 32.793 58 143 12
13:57:44.0 60 85 3:43.034 35.510 60 147 11
14:01:29.8 61 87 3:45.870 35.064 60 143 11
14:05:23.2 62 88 3:53.350 33.940 58 144 11
14:09:24.6 63 90 4:01.451 32.802 58 141 10
14:13:20.5 64 91 3:55.897 33.574 60 142 10
14:19:55.0 65 94 6:34.440 20.079 74 148 10
14:23:02.2 66 95 3:07.220 42.303 54 139 11
14:26:00.8 67 96 2:58.594 44.346 52 139 11
14:29:02.1 68 97 3:01.306 43.683 55 143 11
14:32:05.4 69 98 3:03.335 43.200 50 138 11
14:35:05.6 70 100 3:00.114 43.972 53 144 11
14:38:08.7 71 101 3:03.111 43.252 56 138 11
14:41:13.9 72 102 3:05.212 42.762 54 140 11
14:44:21.5 73 103 3:07.625 42.212 57 141 9
14:47:31.7 74 104 3:10.153 41.651 56 143 8
14:50:38.4 75 106 3:06.742 42.411 55 143 10
14:53:46.3 76 107 3:07.931 42.143 57 141 10
14:56:54.1 77 108 3:07.822 42.168 46 139 10
15:01:20.2 78 109 4:26.015 29.773 75 148 10
15:04:43.8 79 110 3:23.641 38.892 57 141 11
15:08:09.1 80 111 3:25.262 38.585 57 139 11
15:11:49.5 81 113 3:40.466 35.924 57 139 11
15:15:32.5 82 114 3:42.934 35.526 61 140 10
15:19:45.4 83 115 4:12.890 31.318 75 143 11
15:23:32.0 84 116 3:46.632 34.947 58 139 10
15:27:07.9 85 117 3:35.918 36.681 56 140 10
15:30:51.4 86 119 3:43.479 35.440 59 139 10
15:36:06.9 87 120 5:15.531 25.101 66 148 9
15:40:57.0 88 121 4:50.121 27.299 76 147 8
15:44:05.5 89 122 3:08.461 42.025 54 146 9
15:47:21.4 90 123 3:15.901 40.429 57 144 8
15:50:31.7 91 124 3:10.279 41.623 56 150 8
15:53:43.7 92 125 3:12.064 41.236 55 145 8
15:56:54.8 93 126 3:11.076 41.449 53 145 9
16:00:12.7 94 127 3:17.851 40.030 57 141 8
16:03:27.5 95 128 3:14.850 40.647 58 148 9
16:06:51.5 96 129 3:23.983 38.827 62 146 8
119 - Alberto Victory Christian C - Middle
10:05:46.0 1 1 3:30.780 37.575 62 165 9
10:09:12.0 2 2 3:25.961 38.454 61 165 8
10:12:40.1 3 4 3:28.060 38.066 61 167 7
10:16:06.6 4 5 3:26.587 38.337 60 166 8
10:19:30.0 5 6 3:23.360 38.946 62 167 8
10:22:56.3 6 8 3:26.273 38.396 62 166 8
10:26:18.6 7 9 3:22.356 39.139 62 168 8
10:29:47.7 8 10 3:29.042 37.887 61 166 9
10:33:19.2 9 11 3:31.498 37.447 62 165 11
10:36:55.4 10 13 3:36.233 36.627 63 163 11
10:40:31.1 11 14 3:35.724 36.714 61 166 10
10:44:13.7 12 15 3:42.540 35.589 62 162 11
10:49:12.3 13 17 4:58.607 26.523 84 175 11
10:53:08.5 14 19 3:56.253 33.523 63 166 12
10:57:08.9 15 20 4:00.383 32.947 64 166 11
11:01:07.1 16 22 3:58.191 33.251 64 167 9
11:05:02.6 17 23 3:55.492 33.632 62 165 10
11:08:48.7 18 25 3:46.139 35.023 62 164 9
11:12:40.5 19 26 3:51.797 34.168 65 164 10
11:16:32.6 20 28 3:52.046 34.131 64 163 10
11:20:24.6 21 29 3:52.035 34.133 59 165 9
11:24:17.2 22 30 3:52.559 34.056 65 165 10
11:29:25.8 23 32 5:08.677 25.658 75 172 11
11:32:59.0 24 34 3:33.104 37.165 58 164 12
11:36:32.2 25 35 3:33.199 37.148 58 166 12
11:40:02.8 26 36 3:30.643 37.599 59 162 11
11:43:24.1 27 37 3:21.338 39.337 59 166 10
11:46:55.3 28 38 3:31.129 37.513 61 169 9
11:50:23.2 29 40 3:27.939 38.088 56 163 9
11:53:46.2 30 41 3:22.999 39.015 57 164 11
11:57:18.0 31 42 3:31.820 37.390 59 164 10
12:01:03.8 32 44 3:45.772 35.080 60 161 10
12:06:00.5 33 46 4:56.754 26.689 76 172 10
12:09:51.7 34 47 3:51.192 34.257 59 165 10
12:13:40.3 35 48 3:48.532 34.656 60 167 9
12:17:29.6 36 50 3:49.319 34.537 63 162 10
12:21:34.7 37 51 4:05.113 32.312 61 169 10
12:25:10.2 38 53 3:35.546 36.744 60 166 9
12:28:51.4 39 54 3:41.184 35.807 62 166 9
12:32:34.6 40 55 3:43.181 35.487 62 167 10
12:37:26.6 41 57 4:52.000 27.123 78 174 11
12:40:34.5 42 58 3:07.848 42.162 55 162 10
12:43:35.1 43 59 3:00.653 43.841 55 164 11
12:46:57.2 44 60 3:22.060 39.196 66 166 12
12:56:10.2 45 63 9:13.017 14.321 77 173 10
13:00:02.4 46 65 3:52.187 34.110 59 164 10
13:03:30.1 47 66 3:27.735 38.125 59 168 12
13:07:06.1 48 67 3:36.000 36.667 54 168 11
13:10:36.1 49 69 3:30.016 37.711 56 165 11
13:14:15.1 50 70 3:38.950 36.173 57 165 11
13:17:46.8 51 71 3:31.684 37.414 59 165 11
13:21:16.3 52 73 3:29.576 37.791 55 163 11
13:24:54.5 53 74 3:38.160 36.304 61 164 11
13:28:28.1 54 75 3:33.582 37.082 59 163 9
13:32:15.1 55 77 3:47.063 34.880 62 165 8
13:36:00.8 56 78 3:45.674 35.095 59 166 10
13:39:49.5 57 79 3:48.710 34.629 60 165 9
13:44:56.7 58 81 5:07.124 25.788 83 175 11
13:48:38.6 59 82 3:41.935 35.686 58 164 11
13:52:20.2 60 84 3:41.641 35.733 60 166 11
13:56:00.0 61 85 3:39.759 36.039 60 164 11
13:59:47.5 62 86 3:47.523 34.810 60 165 11
14:03:37.0 63 88 3:49.509 34.508 61 168 10
14:07:34.0 64 89 3:57.001 33.418 61 165 10
14:11:34.2 65 91 4:00.204 32.972 62 167 11
14:18:13.8 66 93 6:39.622 19.819 78 172 11
14:21:44.0 67 95 3:30.175 37.683 55 166 11
14:25:22.8 68 96 3:38.769 36.203 59 161 12
14:28:48.4 69 97 3:25.573 38.526 59 165 12
14:32:14.3 70 99 3:25.924 38.461 57 164 11
14:35:43.6 71 100 3:29.291 37.842 59 163 11
14:39:14.0 72 101 3:30.432 37.637 58 161 11
14:42:44.3 73 103 3:30.279 37.664 62 164 10
14:46:18.8 74 104 3:34.530 36.918 61 162 9
14:50:00.2 75 105 3:41.360 35.779 60 163 10
14:53:37.7 76 107 3:37.493 36.415 58 164 10
14:57:13.6 77 108 3:35.896 36.684 58 164 10
15:01:58.8 78 109 4:45.238 27.766 77 173 12
15:05:30.4 79 110 3:31.603 37.429 57 162 11
15:09:02.1 80 112 3:31.734 37.405 53 162 11
15:12:33.0 81 113 3:30.864 37.560 59 159 10
15:16:15.3 82 114 3:42.254 35.635 57 162 10
15:20:38.8 83 115 4:23.514 30.055 72 167 10
15:27:51.7 84 118 7:12.879 18.296 71 170 10
15:30:59.5 85 119 3:07.832 42.165 52 160 10
15:36:05.1 86 120 5:05.595 25.917 74 171 9
15:39:15.6 87 121 3:10.481 41.579 56 162 10
15:42:20.2 88 122 3:04.588 42.906 56 163 8
15:45:19.2 89 122 2:59.036 44.237 54 160 8
15:48:21.1 90 123 3:01.957 43.527 55 162 9
15:51:24.0 91 124 3:02.816 43.322 57 161 9
15:54:37.6 92 125 3:13.651 40.898 59 163 9
15:57:50.2 93 126 3:12.561 41.130 57 162 9
16:01:01.5 94 127 3:11.336 41.393 52 163 10
16:04:07.5 95 128 3:06.019 42.576 58 165 9
16:07:38.2 96 129 3:30.669 37.595 62 167 9
33 - Zavanz EDEC - Senior
10:05:13.5 1 1 3:06.123 42.553 55 164 7
10:08:38.2 2 2 3:24.720 38.687 58 165 8
10:12:06.6 3 3 3:28.419 38.000 57 166 7
10:15:32.8 4 5 3:26.220 38.406 56 165 8
10:19:01.5 5 6 3:28.622 37.963 58 166 10
10:22:31.9 6 8 3:30.451 37.633 56 163 7
10:25:55.6 7 9 3:23.667 38.887 57 164 8
10:29:25.2 8 10 3:29.596 37.787 57 165 8
10:32:55.0 9 11 3:29.843 37.743 58 165 10
10:36:30.1 10 13 3:35.122 36.816 56 173 10
10:40:00.1 11 14 3:29.915 37.730 55 165 10
10:43:34.8 12 15 3:34.719 36.885 59 165 11
10:47:06.0 13 17 3:31.267 37.488 55 172 10
10:50:37.0 14 18 3:30.947 37.545 58 166 10
10:54:13.4 15 19 3:36.382 36.602 56 166 9
10:57:46.4 16 21 3:33.020 37.180 58 165 11
11:01:09.3 17 22 3:22.918 39.031 58 165 9
11:04:44.6 18 23 3:35.315 36.783 57 171 10
11:08:11.3 19 24 3:26.704 38.316 55 168 9
11:11:38.7 20 26 3:27.388 38.189 55 165 10
11:15:13.4 21 27 3:34.699 36.889 58 171 10
11:18:44.7 22 28 3:31.271 37.487 58 166 10
11:22:17.9 23 30 3:33.254 37.139 58 164 10
11:26:02.6 24 31 3:44.675 35.251 59 166 11
11:29:55.3 25 32 3:52.649 34.043 57 167 12
11:33:42.4 26 34 3:47.134 34.869 58 166 10
11:39:06.1 27 36 5:23.724 24.465 56 171 11
11:43:14.9 28 37 4:08.792 31.834 63 174 11
11:47:31.0 29 39 4:16.053 30.931 60 172 11
11:51:55.7 30 40 4:24.693 29.921 62 170 11
11:56:18.2 31 42 4:22.516 30.170 63 169 10
12:00:45.1 32 44 4:26.935 29.670 64 171 10
12:05:13.7 33 45 4:28.612 29.485 63 175 11
12:09:36.6 34 47 4:22.868 30.129 65 167 10
12:14:00.8 35 49 4:24.193 29.978 61 172 10
12:18:49.1 36 50 4:48.335 27.468 56 168 9
12:22:01.9 37 52 3:12.751 41.089 54 167 9
12:25:23.6 38 53 3:21.696 39.267 55 171 11
12:28:49.0 39 54 3:25.391 38.561 57 168 9
12:32:20.1 40 55 3:31.156 37.508 57 166 11
12:35:46.0 41 56 3:25.917 38.462 55 171 10
12:39:23.0 42 58 3:36.925 36.510 59 171 9
12:42:49.8 43 59 3:26.869 38.285 54 170 12
12:46:13.9 44 60 3:24.113 38.802 54 165 12
12:49:40.6 45 61 3:26.699 38.317 56 169 11
12:53:19.9 46 63 3:39.273 36.119 56 168 11
12:56:47.6 47 64 3:27.714 38.129 52 165 10
13:00:21.2 48 65 3:33.581 37.082 55 165 11
13:03:52.0 49 66 3:30.808 37.570 58 168 11
13:07:26.4 50 68 3:34.376 36.944 56 172 11
13:10:50.4 51 69 3:24.018 38.820 56 169 10
13:14:23.8 52 70 3:33.395 37.114 57 167 12
13:17:54.0 53 71 3:30.167 37.684 58 167 11
13:21:27.1 54 73 3:33.166 37.154 57 174 12
13:26:35.6 55 75 5:08.430 25.678 56 169 10
13:30:38.4 56 76 4:02.821 32.617 59 166 11
13:34:44.2 57 77 4:05.771 32.225 54 166 10
13:38:49.7 58 79 4:05.549 32.254 60 170 9
13:43:04.8 59 80 4:15.125 31.044 59 168 10
13:47:05.0 60 82 4:00.172 32.976 60 170 11
13:51:15.0 61 83 4:10.018 31.678 59 167 11
13:55:30.2 62 84 4:15.227 31.031 61 170 12
13:59:44.6 63 86 4:14.376 31.135 62 172 11
14:03:59.0 64 88 4:14.353 31.138 55 166 11
14:07:20.1 65 89 3:21.133 39.377 55 165 10
14:10:40.9 66 90 3:20.807 39.441 56 168 11
14:14:01.6 67 92 3:20.727 39.457 55 172 10
14:17:23.3 68 93 3:21.617 39.282 55 166 11
14:20:43.9 69 94 3:20.604 39.481 57 167 11
14:24:04.0 70 95 3:20.111 39.578 56 168 10
14:27:24.5 71 97 3:20.531 39.495 57 166 11
14:30:44.1 72 98 3:19.610 39.677 57 167 13
14:34:07.4 73 99 3:23.254 38.966 57 170 12
14:37:32.5 74 101 3:25.116 38.612 57 167 10
14:40:55.5 75 102 3:22.996 39.016 57 168 10
14:44:19.4 76 103 3:23.937 38.836 58 170 9
14:47:49.2 77 104 3:29.768 37.756 56 171 10
14:51:12.8 78 106 3:23.595 38.901 55 167 10
14:54:37.9 79 107 3:25.073 38.620 58 173 10
14:58:09.6 80 108 3:31.750 37.403 59 169 11
15:01:37.6 81 109 3:27.997 38.077 58 171 11
15:05:07.9 82 110 3:30.317 37.657 55 173 10
15:10:26.1 83 112 5:18.140 24.895 57 169 10
15:14:33.3 84 114 4:07.191 32.040 60 169 11
15:18:50.6 85 115 4:17.396 30.770 80 173 9
15:23:18.0 86 116 4:27.311 29.628 62 172 10
15:27:33.5 87 118 4:15.543 30.993 62 170 9
15:36:08.7 88 120 8:35.243 15.371 68 172 9
15:40:15.3 89 121 4:06.556 32.123 58 167 8
15:44:25.2 90 122 4:09.922 31.690 63 170 9
15:48:44.2 91 123 4:18.991 30.580 63 169 8
15:52:47.0 92 125 4:02.819 32.617 60 171 9
15:56:45.7 93 126 3:58.679 33.183 59 170 8
16:00:46.2 94 127 4:00.469 32.936 59 170 8
16:04:45.7 95 129 3:59.551 33.062 59 168 8
68 - Contagious Heritage R - Senior
10:05:22.0 1 1 3:08.809 41.947 51 151 6
10:08:39.0 2 2 3:16.996 40.204 52 153 8
10:11:58.2 3 3 3:19.147 39.770 51 153 7
10:15:20.4 4 5 3:22.247 39.160 53 154 7
10:18:43.7 5 6 3:23.279 38.961 54 154 8
10:22:11.7 6 7 3:28.005 38.076 53 153 9
10:25:41.2 7 9 3:29.471 37.810 53 153 8
10:29:13.5 8 10 3:32.343 37.298 53 151 9
10:32:32.5 9 11 3:19.016 39.796 53 153 10
10:36:03.2 10 12 3:30.693 37.590 54 153 10
10:39:37.4 11 14 3:34.173 36.979 50 153 10
10:42:59.4 12 15 3:21.993 39.209 52 151 9
10:46:15.5 13 16 3:16.103 40.387 51 152 10
10:49:36.7 14 18 3:21.193 39.365 49 151 11
10:52:57.8 15 19 3:21.130 39.378 52 151 11
10:57:31.0 16 21 4:33.199 28.990 76 160 10
11:01:36.6 17 22 4:05.570 32.251 56 154 9
11:06:04.9 18 24 4:28.289 29.520 57 155 9
11:10:36.3 19 25 4:31.387 29.183 61 158 9
11:15:08.9 20 27 4:32.607 29.053 59 158 11
11:19:47.2 21 29 4:38.357 28.453 59 156 10
11:24:37.4 22 31 4:50.183 27.293 59 156 10
11:29:28.6 23 32 4:51.213 27.197 62 160 12
11:35:25.1 24 34 5:56.484 22.217 78 162 11
11:38:50.2 25 36 3:25.074 38.620 53 148 10
11:42:22.7 26 37 3:32.476 37.275 54 151 9
11:46:03.1 27 38 3:40.417 35.932 55 150 10
11:49:54.2 28 40 3:51.143 34.265 52 149 9
11:53:42.5 29 41 3:48.268 34.696 53 152 11
11:57:39.3 30 42 3:56.827 33.442 54 150 10
12:01:34.4 31 44 3:55.030 33.698 54 152 11
12:05:32.5 32 45 3:58.142 33.257 56 151 10
12:09:31.1 33 47 3:58.641 33.188 56 151 9
12:13:44.1 34 48 4:12.924 31.314 55 150 10
12:17:29.5 35 50 3:45.394 35.138 54 154 10
12:21:34.5 36 51 4:05.035 32.322 53 151 10
12:26:10.4 37 53 4:35.888 28.707 69 157 11
12:30:06.3 38 54 3:55.955 33.566 54 154 10
12:34:04.3 39 56 3:57.995 33.278 55 154 10
12:38:09.3 40 57 4:04.954 32.333 55 151 10
12:42:19.8 41 59 4:10.560 31.609 55 156 12
12:46:27.0 42 60 4:07.154 32.045 55 150 12
12:50:47.9 43 62 4:20.883 30.358 55 154 10
12:54:37.1 44 63 3:49.230 34.550 53 149 11
12:58:32.6 45 64 3:55.480 33.633 55 154 11
13:04:05.7 46 66 5:33.105 23.776 73 161 12
13:07:09.2 47 67 3:03.543 43.151 49 152 11
13:10:25.0 48 69 3:15.731 40.464 50 157 10
13:14:24.3 49 70 3:59.374 33.086 53 151 12
13:17:59.7 50 71 3:35.363 36.775 52 152 11
13:22:07.1 51 73 4:07.345 32.020 56 151 11
13:27:14.9 52 75 5:07.895 25.723 79 161 11
13:31:20.9 53 76 4:05.944 32.202 52 148 9
13:35:23.9 54 78 4:03.029 32.589 54 151 10
13:39:26.1 55 79 4:02.149 32.707 52 151 10
13:43:32.8 56 81 4:06.744 32.098 55 151 9
13:47:37.8 57 82 4:05.008 32.325 53 150 10
13:51:29.4 58 83 3:51.561 34.203 51 151 12
13:55:31.1 59 84 4:01.702 32.768 53 149 12
13:59:46.3 60 86 4:15.230 31.031 54 152 11
14:04:02.0 61 88 4:15.712 30.972 54 152 11
14:08:26.0 62 89 4:23.987 30.001 54 150 11
14:13:44.6 63 91 5:18.567 24.861 66 157 10
14:17:21.5 64 93 3:36.873 36.519 49 149 11
14:20:49.2 65 94 3:27.792 38.115 51 149 11
14:24:18.0 66 96 3:28.774 37.936 51 151 12
14:27:46.4 67 97 3:28.371 38.009 50 148 12
14:31:15.9 68 98 3:29.497 37.805 52 149 12
14:34:46.7 69 100 3:30.847 37.563 49 148 11
14:38:11.7 70 101 3:25.011 38.632 50 148 11
14:41:39.5 71 102 3:27.759 38.121 52 147 10
14:46:14.5 72 104 4:34.952 28.805 71 158 8
14:50:02.9 73 105 3:48.452 34.668 50 149 10
14:53:38.4 74 107 3:35.502 36.751 52 152 10
14:57:14.3 75 108 3:35.893 36.685 52 151 10
15:00:49.0 76 109 3:34.661 36.895 44 149 10
15:04:22.4 77 110 3:33.469 37.101 53 153 10
15:07:57.0 78 111 3:34.606 36.905 52 154 12
15:11:31.2 79 112 3:34.132 36.987 51 153 11
15:15:02.9 80 114 3:31.698 37.412 52 151 10
15:18:39.0 81 115 3:36.111 36.648 60 158 11
15:24:16.0 82 116 5:37.071 23.497 64 157 11
15:27:48.0 83 118 3:31.954 37.367 54 149 10
15:31:41.9 84 119 3:53.866 33.866 60 150 10
15:36:20.9 85 120 4:39.042 28.383 55 149 9
15:39:57.9 86 121 3:36.975 36.502 54 149 9
15:43:48.7 87 122 3:50.793 34.316 57 150 9
15:47:36.7 88 123 3:48.003 34.736 53 149 8
15:51:42.0 89 124 4:05.292 32.288 54 148 9
15:55:32.7 90 126 3:50.755 34.322 53 150 9
15:59:31.4 91 127 3:58.702 33.179 55 148 9
16:03:34.7 92 128 4:03.221 32.563 53 150 9
16:07:36.7 93 129 4:02.035 32.723 57 151 9
148 - Zoolander Rode Rage - Comm
10:05:20.5 1 1 3:08.137 42.097 53 162 6
10:08:54.6 2 2 3:34.084 36.995 59 163 8
10:12:44.2 3 4 3:49.571 34.499 56 166 8
10:16:54.0 4 5 4:09.865 31.697 68 166 7
10:24:05.2 5 8 7:11.152 18.369 57 162 8
10:27:49.7 6 9 3:44.527 35.274 60 164 8
10:31:31.4 7 11 3:41.672 35.728 57 164 8
10:35:10.6 8 12 3:39.195 36.132 57 161 10
10:38:36.3 9 13 3:25.733 38.496 56 161 10
10:42:05.1 10 15 3:28.844 37.923 55 158 11
10:45:31.4 11 16 3:26.207 38.408 56 167 10
10:50:46.3 12 18 5:14.962 25.146 58 161 10
10:54:24.4 13 19 3:38.133 36.308 56 165 11
10:57:56.6 14 21 3:32.148 37.332 56 164 10
11:01:28.3 15 22 3:31.742 37.404 57 160 10
11:05:03.5 16 23 3:35.115 36.818 57 160 10
11:08:36.5 17 25 3:33.094 37.167 56 165 9
11:12:14.3 18 26 3:37.718 36.377 58 161 10
11:16:02.9 19 27 3:48.618 34.643 58 165 10
11:19:52.2 20 29 3:49.288 34.542 54 159 10
11:23:38.8 21 30 3:46.671 34.941 57 162 9
11:27:18.7 22 32 3:39.828 36.028 57 163 11
11:30:51.1 23 33 3:32.438 37.281 56 162 10
11:35:30.9 24 35 4:39.788 28.307 56 159 12
11:39:06.1 25 36 3:35.219 36.800 51 161 11
11:42:45.7 26 37 3:39.555 36.073 55 160 10
11:46:25.1 27 38 3:39.461 36.088 56 166 9
11:50:01.0 28 40 3:35.847 36.693 56 159 10
11:53:33.9 29 41 3:32.913 37.198 56 162 10
11:57:16.3 30 42 3:42.367 35.617 59 164 10
12:01:02.9 31 44 3:46.643 34.945 59 161 10
12:04:50.0 32 45 3:47.083 34.877 58 160 11
12:08:47.5 33 47 3:57.487 33.349 61 165 10
12:12:33.4 34 48 3:45.911 35.058 57 161 9
12:16:48.6 35 50 4:15.216 31.033 61 163 10
12:20:41.7 36 51 3:53.126 33.973 62 165 10
12:25:15.2 37 53 4:33.459 28.962 56 163 10
12:28:52.2 38 54 3:37.018 36.495 57 163 9
12:32:31.1 39 55 3:38.910 36.179 58 164 10
12:36:07.3 40 57 3:36.161 36.639 55 161 10
12:39:41.2 41 58 3:33.951 37.018 57 163 10
12:43:18.2 42 59 3:36.940 36.508 51 163 11
12:47:06.2 43 61 3:48.065 34.727 56 163 12
12:50:51.8 44 62 3:45.548 35.114 58 163 10
12:54:41.4 45 63 3:49.654 34.487 58 164 11
12:58:26.1 46 64 3:44.630 35.258 57 161 10
13:02:16.7 47 66 3:50.660 34.336 56 163 10
13:06:01.0 48 67 3:44.325 35.306 56 162 10
13:09:42.3 49 68 3:41.212 35.803 55 161 11
13:14:48.8 50 70 5:06.513 25.839 56 162 11
13:18:15.2 51 72 3:26.478 38.358 54 157 11
13:21:38.2 52 73 3:22.973 39.020 55 160 12
13:25:01.4 53 74 3:23.226 38.971 55 162 11
13:28:30.8 54 75 3:29.394 37.823 55 157 9
13:32:00.4 55 76 3:29.607 37.785 58 157 9
13:35:37.2 56 78 3:36.799 36.532 57 161 9
13:39:12.4 57 79 3:35.200 36.803 56 161 11
13:42:40.4 58 80 3:27.914 38.093 56 161 9
13:46:13.2 59 81 3:32.831 37.213 56 159 10
13:49:48.3 60 83 3:35.078 36.824 56 162 11
13:53:24.5 61 84 3:36.242 36.626 55 161 11
13:57:00.7 62 85 3:36.196 36.633 57 161 11
14:00:41.7 63 86 3:40.966 35.843 56 160 11
14:04:18.1 64 88 3:36.398 36.599 57 159 10
14:08:00.9 65 89 3:42.818 35.545 56 161 12
14:11:33.9 66 91 3:32.965 37.189 56 157 11
14:16:18.7 67 92 4:44.843 27.805 57 165 11
14:20:11.2 68 94 3:52.525 34.061 59 167 12
14:24:14.3 69 95 4:03.027 32.589 59 168 12
14:28:15.2 70 97 4:00.946 32.870 61 165 10
14:32:11.8 71 99 3:56.650 33.467 58 160 11
14:36:10.5 72 100 3:58.676 33.183 61 163 11
14:40:12.5 73 102 4:02.025 32.724 58 164 11
14:44:11.7 74 103 3:59.166 33.115 59 164 11
14:48:22.2 75 105 4:10.516 31.615 58 160 12
14:52:31.0 76 106 4:08.814 31.831 61 163 11
14:57:58.5 77 108 5:27.462 24.186 59 158 11
15:03:04.3 78 109 5:05.758 25.903 61 162 11
15:09:02.0 79 112 5:57.758 22.138 55 165 11
15:13:33.6 80 113 4:31.625 29.158 60 168 11
15:18:08.6 81 115 4:34.907 28.810 61 168 10
15:22:50.3 82 116 4:41.703 28.115 63 168 10
15:28:20.5 83 118 5:30.206 23.985 58 164 10
15:36:14.7 84 120 7:54.273 16.699 60 164 10
15:40:11.6 85 121 3:56.880 33.435 60 159 8
15:44:07.8 86 122 3:56.168 33.535 60 165 9
15:48:47.1 87 123 4:39.270 28.360 58 161 9
15:52:29.6 88 125 3:42.501 35.595 57 161 9
15:56:04.5 89 126 3:34.945 36.847 57 161 9
15:59:54.5 90 127 3:50.006 34.434 60 161 9
16:03:52.2 91 128 3:57.704 33.319 59 164 9
16:07:34.2 92 129 3:41.973 35.680 57 161 9
88 - Pace Maker EDEC - Vet
10:05:36.4 1 1 3:26.694 38.318 64 189 7
10:09:10.3 2 2 3:33.817 37.041 67 184 8
10:12:43.2 3 4 3:32.976 37.187 64 184 8
10:16:18.6 4 5 3:35.355 36.776 64 187 8
10:19:46.9 5 6 3:28.273 38.027 62 185 8
10:23:23.0 6 8 3:36.183 36.636 63 189 8
10:26:59.6 7 9 3:36.566 36.571 66 190 8
10:30:37.1 8 10 3:37.484 36.416 64 187 8
10:34:11.9 9 12 3:34.814 36.869 65 187 9
10:37:46.3 10 13 3:34.437 36.934 66 188 10
10:41:22.6 11 14 3:36.213 36.631 63 189 11
10:44:59.9 12 16 3:37.316 36.445 65 188 10
10:48:35.6 13 17 3:35.745 36.710 64 187 10
10:52:13.0 14 19 3:37.368 36.436 65 188 10
10:55:50.2 15 20 3:37.180 36.467 65 189 10
10:59:25.5 16 21 3:35.285 36.788 66 188 10
11:03:04.6 17 23 3:39.126 36.144 64 187 11
11:06:47.1 18 24 3:42.509 35.594 66 188 9
11:10:22.6 19 25 3:35.529 36.747 62 187 10
11:15:18.8 20 27 4:56.232 26.736 66 186 10
11:19:17.9 21 29 3:59.035 33.133 68 185 10
11:23:22.6 22 30 4:04.676 32.369 69 186 10
11:27:23.2 23 32 4:00.669 32.908 65 182 11
11:31:26.0 24 33 4:02.813 32.618 66 184 13
11:35:38.9 25 35 4:12.848 31.323 69 184 12
11:39:52.8 26 36 4:13.947 31.188 70 184 11
11:44:10.8 27 37 4:17.927 30.706 68 184 12
11:48:19.9 28 39 4:09.146 31.789 67 184 9
11:52:26.2 29 40 4:06.250 32.162 67 184 10
11:56:42.0 30 42 4:15.796 30.962 70 183 11
12:01:01.0 31 44 4:18.999 30.579 69 182 11
12:05:19.3 32 45 4:18.295 30.663 68 186 10
12:09:35.2 33 47 4:15.984 30.939 68 183 10
12:14:01.3 34 49 4:26.016 29.773 68 187 11
12:18:34.3 35 50 4:33.007 29.010 72 183 9
12:23:10.3 36 52 4:36.064 28.689 63 186 9
12:26:55.5 37 53 3:45.174 35.173 61 183 10
12:30:36.2 38 55 3:40.702 35.885 61 187 9
12:34:20.4 39 56 3:44.187 35.328 60 183 10
12:38:06.0 40 57 3:45.607 35.105 64 187 9
12:41:55.9 41 59 3:49.875 34.454 63 185 9
12:45:48.9 42 60 3:53.011 33.990 64 180 11
12:49:49.7 43 61 4:00.787 32.892 66 181 10
12:53:45.7 44 63 3:56.045 33.553 61 183 11
12:57:38.6 45 64 3:52.931 34.001 64 183 11
13:01:33.4 46 65 3:54.720 33.742 68 182 10
13:05:43.5 47 67 4:10.159 31.660 66 183 11
13:10:41.8 48 69 4:58.330 26.548 63 184 11
13:14:38.4 49 70 3:56.564 33.479 66 188 10
13:18:40.0 50 72 4:01.628 32.778 66 185 10
13:22:41.9 51 73 4:01.862 32.746 63 187 11
13:26:36.8 52 75 3:54.900 33.716 65 186 10
13:30:46.0 53 76 4:09.219 31.779 65 188 11
13:34:50.5 54 77 4:04.452 32.399 68 187 9
13:38:58.8 55 79 4:08.372 31.888 68 186 10
13:43:04.5 56 80 4:05.623 32.245 61 184 10
13:47:03.2 57 82 3:58.768 33.170 65 186 11
13:51:09.0 58 83 4:05.778 32.224 66 186 11
13:55:23.0 59 84 4:13.966 31.185 67 188 12
13:59:36.0 60 86 4:13.048 31.298 65 184 11
14:04:01.7 61 88 4:25.654 29.813 59 180 11
14:07:40.5 62 89 3:38.798 36.198 64 180 10
14:11:43.2 63 91 4:02.671 32.637 64 183 11
14:15:09.9 64 92 3:26.740 38.309 63 179 12
14:18:54.6 65 93 3:44.721 35.244 64 180 11
14:22:44.3 66 95 3:49.723 34.476 65 180 11
14:26:41.2 67 96 3:56.863 33.437 65 181 11
14:30:35.7 68 98 3:54.541 33.768 69 184 12
14:34:19.8 69 99 3:44.091 35.343 60 179 11
14:39:05.7 70 101 4:45.885 27.703 62 189 11
14:42:48.2 71 103 3:42.503 35.595 66 186 9
14:46:28.6 72 104 3:40.352 35.942 65 187 9
14:50:07.7 73 105 3:39.165 36.137 63 189 10
14:53:49.6 74 107 3:41.831 35.703 63 189 10
14:57:31.6 75 108 3:42.074 35.664 59 185 11
15:01:13.0 76 109 3:41.345 35.781 64 189 12
15:04:56.7 77 110 3:43.736 35.399 63 189 10
15:08:37.9 78 111 3:41.168 35.810 61 187 11
15:12:23.4 79 113 3:45.495 35.123 61 188 10
15:16:07.4 80 114 3:44.042 35.351 64 187 10
15:20:51.3 81 116 4:43.833 27.904 78 187 9
15:25:13.4 82 117 4:22.158 30.211 65 190 10
15:29:07.9 83 118 3:54.466 33.779 64 187 9
15:36:32.6 84 120 7:24.724 17.809 66 187 10
15:40:25.6 85 121 3:52.942 34.000 65 186 9
15:44:23.3 86 122 3:57.743 33.313 66 185 9
15:48:33.2 87 123 4:09.921 31.690 70 190 9
15:52:45.1 88 125 4:11.928 31.438 64 190 9
15:57:05.4 89 126 4:20.280 30.429 69 187 8
16:01:28.8 90 128 4:23.394 30.069 67 187 9
16:05:58.0 91 129 4:29.183 29.422 67 189 9
14 - Ziptar Maiden Gully Comm - Junior
10:05:51.9 1 1 3:37.822 36.360 59 154 9
10:09:36.3 2 2 3:44.442 35.288 57 157 7
10:13:18.6 3 4 3:42.314 35.625 58 157 7
10:17:07.6 4 5 3:48.946 34.593 59 155 9
10:21:02.3 5 7 3:54.718 33.743 61 159 8
10:25:02.8 6 9 4:00.535 32.927 61 158 8
10:29:11.6 7 10 4:08.768 31.837 60 158 9
10:34:28.1 8 12 5:16.499 25.024 81 164 10
10:38:33.3 9 13 4:05.184 32.302 59 154 9
10:42:23.7 10 15 3:50.427 34.371 58 156 11
10:46:26.6 11 16 4:02.868 32.610 61 156 10
10:50:26.9 12 18 4:00.295 32.959 57 155 10
10:54:05.7 13 19 3:38.802 36.197 56 156 9
10:57:47.9 14 21 3:42.232 35.638 59 159 11
11:02:33.1 15 22 4:45.187 27.771 84 163 9
11:06:19.2 16 24 3:46.134 35.023 57 158 9
11:10:01.9 17 25 3:42.656 35.571 57 156 10
11:13:40.0 18 26 3:38.106 36.313 58 157 9
11:17:17.9 19 28 3:37.860 36.354 58 154 10
11:20:58.4 20 29 3:40.591 35.904 58 156 9
11:24:45.7 21 31 3:47.227 34.855 59 156 9
11:28:33.5 22 32 3:47.820 34.764 60 157 11
11:33:19.6 23 34 4:46.131 27.680 84 164 9
11:37:44.6 24 35 4:24.953 29.892 57 156 9
11:41:59.3 25 37 4:14.758 31.088 59 156 11
11:46:25.3 26 38 4:25.915 29.784 59 157 9
11:50:58.9 27 40 4:33.681 28.939 61 157 10
11:55:32.2 28 42 4:33.288 28.980 62 159 11
12:01:40.9 29 44 6:08.722 21.480 77 163 10
12:05:53.9 30 46 4:13.001 31.304 60 158 11
12:10:11.4 31 47 4:17.506 30.757 61 156 10
12:14:27.8 32 49 4:16.374 30.892 62 156 9
12:18:46.2 33 50 4:18.375 30.653 61 156 9
12:23:03.5 34 52 4:17.284 30.783 62 157 10
12:27:27.7 35 54 4:24.224 29.975 63 159 10
12:33:21.2 36 56 5:53.445 22.408 78 163 10
12:37:07.4 37 57 3:46.221 35.010 58 157 11
12:40:48.3 38 58 3:40.907 35.852 57 158 10
12:44:30.6 39 60 3:42.295 35.628 50 155 11
12:48:09.1 40 61 3:38.510 36.245 56 156 11
12:51:54.4 41 62 3:45.313 35.151 58 156 11
12:55:40.2 42 63 3:45.823 35.072 56 159 10
12:59:30.0 43 65 3:49.734 34.475 60 159 10
13:03:34.1 44 66 4:04.119 32.443 60 157 11
13:07:25.0 45 68 3:50.937 34.295 58 157 11
13:12:19.2 46 69 4:54.214 26.919 81 163 11
13:16:15.6 47 71 3:56.389 33.504 58 157 11
13:19:54.8 48 72 3:39.167 36.137 58 156 12
13:23:34.3 49 73 3:39.569 36.071 56 154 10
13:27:16.8 50 75 3:42.426 35.607 58 154 11
13:31:03.0 51 76 3:46.185 35.016 57 154 11
13:34:53.2 52 77 3:50.194 34.406 58 157 9
13:38:37.2 53 79 3:44.065 35.347 56 156 9
13:42:26.1 54 80 3:48.852 34.608 59 153 10
13:46:27.9 55 82 4:01.875 32.744 60 155 10
13:50:15.2 56 83 3:47.217 34.857 57 159 12
13:55:42.2 57 84 5:27.065 24.215 77 163 11
13:59:17.1 58 86 3:34.856 36.862 54 154 11
14:02:44.1 59 87 3:27.051 38.251 55 155 11
14:06:16.1 60 89 3:31.986 37.361 57 160 10
14:09:48.0 61 90 3:31.861 37.383 57 154 10
14:13:25.4 62 91 3:37.442 36.424 57 153 12
14:17:09.9 63 93 3:44.518 35.276 57 158 10
14:20:57.7 64 94 3:47.793 34.768 59 156 11
14:24:52.1 65 96 3:54.395 33.789 59 157 10
14:28:53.8 66 97 4:01.676 32.771 58 156 11
14:33:47.8 67 99 4:53.962 26.942 75 161 12
14:38:05.8 68 101 4:18.051 30.692 60 155 11
14:42:13.7 69 102 4:07.875 31.952 60 156 10
14:46:24.0 70 104 4:10.336 31.637 62 156 8
14:50:37.5 71 106 4:13.502 31.242 60 156 10
14:54:55.0 72 107 4:17.463 30.762 60 155 10
14:59:18.5 73 108 4:23.507 30.056 60 156 11
15:04:24.2 74 110 5:05.710 25.907 75 162 10
15:08:08.5 75 111 3:44.301 35.310 56 154 11
15:11:30.3 76 112 3:21.774 39.252 56 156 11
15:15:02.3 77 114 3:32.038 37.352 56 156 10
15:18:43.3 78 115 3:41.013 35.835 62 155 11
15:24:19.3 79 116 5:35.939 23.576 80 162 11
15:28:22.3 80 118 4:02.993 32.594 59 153 10
15:36:11.6 81 120 7:49.292 16.876 62 154 9
15:41:14.6 82 121 5:03.014 26.137 77 163 9
15:45:00.8 83 122 3:46.242 35.007 58 157 8
15:48:57.1 84 124 3:56.268 33.521 59 155 9
15:52:44.2 85 125 3:47.068 34.879 57 158 9
15:56:37.4 86 126 3:53.251 33.955 60 155 9
16:00:38.5 87 127 4:01.127 32.846 59 158 9
16:04:34.9 88 129 3:56.408 33.501 58 155 9
27 - FBRD EDEC - Middle
10:05:45.1 1 1 3:34.220 36.971 64 183 9
10:09:23.1 2 2 3:38.001 36.330 66 185 8
10:12:59.3 3 4 3:36.214 36.630 62 185 7
10:16:36.0 4 5 3:36.692 36.550 61 187 7
10:20:10.9 5 7 3:34.899 36.855 60 182 8
10:23:50.3 6 8 3:39.325 36.111 62 183 9
10:27:30.9 7 9 3:40.608 35.901 65 185 9
10:31:10.7 8 11 3:39.877 36.020 65 181 8
10:34:57.6 9 12 3:46.813 34.919 65 186 11
10:38:29.0 10 13 3:31.446 37.456 62 183 9
10:43:14.4 11 15 4:45.366 27.754 62 186 10
10:47:20.2 12 17 4:05.846 32.215 67 185 10
10:51:36.8 13 18 4:16.571 30.869 70 184 10
10:55:57.3 14 20 4:20.489 30.404 69 183 10
11:00:16.3 15 22 4:19.043 30.574 72 182 9
11:05:04.3 16 23 4:48.004 27.500 64 181 10
11:08:46.2 17 25 3:41.874 35.696 62 185 9
11:12:29.1 18 26 3:42.938 35.526 63 190 9
11:16:18.9 19 27 3:49.787 34.467 65 185 10
11:20:08.3 20 29 3:49.396 34.525 66 184 10
11:24:06.5 21 30 3:58.165 33.254 66 186 10
11:28:20.0 22 32 4:13.479 31.245 64 182 10
11:32:00.7 23 33 3:40.763 35.876 63 185 9
11:35:47.7 24 35 3:46.970 34.894 64 185 11
11:39:38.9 25 36 3:51.156 34.263 66 185 10
11:43:26.1 26 37 3:47.299 34.844 63 182 10
11:48:33.7 27 39 5:07.543 25.752 62 180 8
11:53:03.2 28 41 4:29.529 29.385 60 187 11
11:57:38.7 29 42 4:35.460 28.752 67 182 10
12:02:30.2 30 44 4:51.482 27.171 65 185 10
12:07:19.6 31 46 4:49.425 27.365 69 187 10
12:12:08.1 32 48 4:48.473 27.455 69 186 10
12:17:26.5 33 50 5:18.433 24.872 66 188 10
12:22:11.7 34 52 4:45.198 27.770 62 180 9
12:25:53.4 35 53 3:41.699 35.724 64 184 10
12:29:43.4 36 54 3:49.976 34.438 66 182 11
12:33:30.6 37 56 3:47.261 34.850 64 185 10
12:37:26.3 38 57 3:55.675 33.606 67 184 10
12:41:25.6 39 59 3:59.265 33.101 67 181 10
12:45:24.5 40 60 3:58.888 33.154 67 184 12
12:49:25.9 41 61 4:01.402 32.808 65 185 10
12:53:22.2 42 63 3:56.303 33.516 63 182 11
12:57:32.5 43 64 4:10.332 31.638 67 181 11
13:01:34.3 44 65 4:01.761 32.760 67 184 10
13:06:44.0 45 67 5:09.772 25.567 66 183 11
13:11:21.7 46 69 4:37.647 28.525 68 186 10
13:16:01.5 47 71 4:39.817 28.304 71 187 11
13:20:42.1 48 72 4:40.614 28.224 67 186 11
13:25:25.4 49 74 4:43.272 27.959 68 185 11
13:30:06.3 50 76 4:40.900 28.195 68 187 10
13:34:49.5 51 77 4:43.220 27.964 71 185 9
13:39:34.8 52 79 4:45.306 27.760 68 186 10
13:44:27.4 53 81 4:52.630 27.065 69 186 10
13:49:23.8 54 83 4:56.324 26.728 70 186 11
13:54:22.9 55 84 4:59.163 26.474 69 187 11
13:59:20.4 56 86 4:57.495 26.622 68 185 11
14:04:06.1 57 88 4:45.674 27.724 66 183 12
14:08:51.6 58 90 4:45.560 27.735 59 179 11
14:12:32.4 59 91 3:40.766 35.875 63 184 11
14:16:07.6 60 92 3:35.183 36.806 62 182 10
14:19:41.2 61 94 3:33.562 37.085 64 183 11
14:23:20.7 62 95 3:39.578 36.069 64 178 11
14:27:03.1 63 97 3:42.406 35.611 66 180 10
14:30:41.2 64 98 3:38.070 36.319 57 187 13
14:34:20.3 65 99 3:39.037 36.158 61 179 11
14:38:06.4 66 101 3:46.146 35.022 61 182 11
14:41:47.7 67 102 3:41.314 35.786 63 182 11
14:45:33.1 68 104 3:45.431 35.133 66 186 10
14:49:26.6 69 105 3:53.423 33.930 63 184 11
14:53:18.6 70 107 3:52.047 34.131 63 180 10
14:58:10.5 71 108 4:51.867 27.136 67 184 11
15:02:13.0 72 109 4:02.477 32.663 68 183 12
15:06:23.4 73 111 4:10.493 31.618 65 183 11
15:10:38.1 74 112 4:14.625 31.105 65 181 11
15:15:01.5 75 114 4:23.427 30.065 65 181 10
15:19:51.5 76 115 4:50.031 27.307 84 183 11
15:24:18.5 77 116 4:26.975 29.666 66 184 11
15:28:40.8 78 118 4:22.244 30.201 68 183 9
15:36:07.4 79 120 7:26.699 17.730 70 182 9
15:39:41.5 80 121 3:34.028 37.005 60 185 10
15:43:27.2 81 122 3:45.709 35.089 64 181 8
15:47:13.2 82 123 3:46.035 35.039 61 184 8
15:50:52.6 83 124 3:39.350 36.107 65 181 9
15:54:41.1 84 125 3:48.560 34.652 63 184 10
15:58:37.8 85 127 3:56.644 33.468 66 184 8
16:02:35.1 86 128 3:57.340 33.370 63 183 8
16:06:29.0 87 129 3:53.890 33.862 59 180 8
22 - Scorpius SMS/BGS - Middle
10:05:54.5 1 1 3:30.503 37.624 56 162 8
10:09:24.0 2 2 3:29.457 37.812 58 163 8
10:13:00.3 3 4 3:36.330 36.611 56 162 7
10:16:38.8 4 5 3:38.503 36.247 57 164 7
10:20:13.1 5 7 3:34.291 36.959 59 164 8
10:23:55.3 6 8 3:42.159 35.650 59 164 8
10:27:43.9 7 9 3:48.564 34.651 59 163 9
10:31:30.5 8 11 3:46.675 34.940 58 168 8
10:35:13.7 9 12 3:43.171 35.488 56 163 11
10:38:52.7 10 13 3:38.959 36.171 55 163 11
10:42:28.6 11 15 3:35.937 36.677 58 163 9
10:46:14.2 12 16 3:45.575 35.110 59 161 10
10:52:04.4 13 18 5:50.219 22.614 81 169 10
10:56:21.4 14 20 4:16.964 30.821 60 164 11
11:01:13.9 15 22 4:52.567 27.071 83 171 9
11:05:29.6 16 23 4:15.714 30.972 59 164 9
11:09:41.7 17 25 4:12.094 31.417 59 165 11
11:13:53.4 18 27 4:11.720 31.464 60 166 9
11:18:00.0 19 28 4:06.527 32.126 59 165 10
11:22:05.1 20 30 4:05.100 32.313 60 163 11
11:26:16.2 21 31 4:11.134 31.537 59 166 10
11:30:28.7 22 33 4:12.541 31.361 63 165 9
11:36:02.3 23 35 5:33.519 23.747 78 170 11
11:39:50.4 24 36 3:48.134 34.716 58 163 11
11:43:30.4 25 37 3:39.979 36.003 55 160 10
11:47:16.2 26 39 3:45.771 35.080 58 161 11
11:51:04.8 27 40 3:48.686 34.633 58 160 11
11:54:59.8 28 41 3:54.965 33.707 60 161 10
11:58:58.0 29 43 3:58.218 33.247 53 159 11
12:03:53.0 30 45 4:54.998 26.848 70 167 10
12:07:45.9 31 46 3:52.909 34.005 59 165 10
12:11:59.3 32 48 4:13.348 31.261 61 166 9
12:16:17.7 33 49 4:18.406 30.649 61 168 10
12:20:40.0 34 51 4:22.318 30.192 61 163 9
12:26:31.8 35 53 5:51.812 22.512 84 171 11
12:30:04.6 36 54 3:32.795 37.219 52 161 10
12:33:27.8 37 56 3:23.220 38.973 54 165 10
12:36:55.8 38 57 3:27.982 38.080 54 162 10
12:40:25.0 39 58 3:29.174 37.863 56 164 11
12:43:57.3 40 59 3:32.329 37.301 56 162 12
12:47:24.9 41 61 3:27.631 38.145 54 165 12
12:52:13.2 42 62 4:48.222 27.479 74 169 10
12:55:42.2 43 63 3:29.046 37.886 55 159 10
12:59:13.8 44 65 3:31.628 37.424 53 157 10
13:02:48.8 45 66 3:34.966 36.843 59 164 11
13:06:38.1 46 67 3:49.334 34.535 56 159 11
13:10:25.8 47 69 3:47.675 34.786 61 163 10
13:16:08.2 48 71 5:42.435 23.128 74 168 11
13:20:12.8 49 72 4:04.561 32.385 59 162 12
13:24:26.0 50 74 4:13.219 31.277 58 159 11
13:28:31.3 51 75 4:05.231 32.296 58 166 9
13:32:43.4 52 77 4:12.097 31.416 58 161 8
13:38:10.4 53 79 5:27.074 24.215 82 170 9
13:43:00.9 54 80 4:50.456 27.267 62 164 10
13:47:41.9 55 82 4:41.029 28.182 60 163 10
13:52:13.3 56 84 4:31.421 29.180 57 161 11
13:56:41.7 57 85 4:28.343 29.514 60 162 12
14:02:31.6 58 87 5:49.921 22.634 76 169 11
14:06:18.4 59 89 3:46.806 34.920 57 158 10
14:10:12.6 60 90 3:54.202 33.817 57 166 11
14:14:05.5 61 92 3:52.930 34.002 56 160 11
14:17:59.3 62 93 3:53.720 33.887 56 158 11
14:21:49.5 63 95 3:50.256 34.396 56 160 10
14:25:46.5 64 96 3:56.964 33.423 56 160 11
14:30:55.0 65 98 5:08.553 25.668 83 172 11
14:35:16.0 66 100 4:20.929 30.353 60 166 12
14:39:48.1 67 101 4:32.179 29.098 62 166 11
14:44:33.7 68 103 4:45.594 27.732 61 163 10
14:49:23.6 69 105 4:49.870 27.323 65 167 11
14:55:32.5 70 107 6:08.890 21.470 75 168 10
14:59:06.0 71 108 3:33.515 37.093 57 166 11
15:02:33.6 72 109 3:27.585 38.153 55 161 12
15:06:02.8 73 110 3:29.205 37.858 54 161 10
15:09:31.9 74 112 3:29.106 37.876 56 164 11
15:13:01.8 75 113 3:29.920 37.729 55 162 11
15:18:02.2 76 115 5:00.399 26.365 75 168 9
15:22:11.7 77 116 4:09.457 31.749 79 173 10
15:26:20.6 78 117 4:08.875 31.823 56 165 10
15:30:07.1 79 119 3:46.518 34.964 56 159 10
15:36:06.3 80 120 5:59.206 22.049 65 164 9
15:41:27.9 81 121 5:21.666 24.622 76 170 10
15:45:40.5 82 122 4:12.554 31.360 60 163 9
15:50:58.1 83 124 5:17.648 24.933 74 168 9
15:55:13.3 84 126 4:15.125 31.044 58 163 10
15:59:39.7 85 127 4:26.460 29.723 60 163 9
16:04:03.2 86 128 4:23.483 30.059 60 163 8
16:08:19.5 87 129 4:16.310 30.900 60 163 8
134 - Weeroona Weeroona College - Middle
10:05:40.1 1 1 3:19.757 39.648 60 151 7
10:09:03.3 2 2 3:23.180 38.980 59 151 8
10:12:25.0 3 4 3:21.703 39.266 59 151 8
10:15:52.4 4 5 3:27.407 38.186 53 150 7
10:19:21.7 5 6 3:29.342 37.833 59 153 8
10:22:50.8 6 8 3:29.105 37.876 53 151 8
10:26:18.8 7 9 3:27.937 38.088 60 155 8
10:29:48.0 8 10 3:29.225 37.854 60 152 9
10:33:15.8 9 11 3:27.766 38.120 52 150 11
10:36:43.5 10 13 3:27.730 38.126 55 151 10
10:40:15.9 11 14 3:32.383 37.291 52 152 10
10:45:55.9 12 16 5:40.015 23.293 77 162 11
10:49:51.2 13 18 3:55.302 33.659 63 155 9
10:53:56.7 14 19 4:05.479 32.263 60 160 11
10:57:56.8 15 21 4:00.122 32.983 60 153 10
11:01:57.3 16 22 4:00.468 32.936 65 155 9
11:05:58.9 17 24 4:01.671 32.772 65 158 9
11:10:14.9 18 25 4:15.969 30.941 64 158 10
11:14:35.8 19 27 4:20.857 30.361 63 157 9
11:20:25.7 20 29 5:49.995 22.629 76 160 9
11:23:30.0 21 30 3:04.247 42.986 54 151 10
11:26:47.6 22 31 3:17.620 40.077 54 151 10
11:30:12.0 23 33 3:24.371 38.753 57 154 10
11:33:38.4 24 34 3:26.379 38.376 56 150 10
11:37:04.8 25 35 3:26.463 38.360 50 151 10
11:40:36.5 26 36 3:31.687 37.414 50 154 10
11:44:12.1 27 37 3:35.572 36.739 59 156 12
11:47:49.4 28 39 3:37.284 36.450 60 153 10
11:51:37.4 29 40 3:48.056 34.728 59 150 11
11:55:21.0 30 42 3:43.593 35.422 56 152 10
11:59:01.2 31 43 3:40.144 35.976 57 154 11
12:05:07.1 32 45 6:05.928 21.644 79 160 11
12:10:18.0 33 47 5:10.914 25.473 67 153 10
12:15:04.0 34 49 4:46.043 27.688 70 155 11
12:19:39.2 35 51 4:35.117 28.788 67 154 10
12:24:20.3 36 52 4:41.167 28.168 67 152 9
12:29:03.4 37 54 4:43.069 27.979 68 154 10
12:33:51.4 38 56 4:47.991 27.501 70 154 10
12:38:54.2 39 58 5:02.809 26.155 69 153 10
12:43:49.8 40 59 4:55.555 26.797 68 154 11
12:51:33.7 41 62 7:43.993 17.069 78 160 9
12:55:13.5 42 63 3:39.771 36.038 58 156 10
12:58:50.3 43 64 3:36.759 36.538 46 157 11
13:02:36.9 44 66 3:46.591 34.953 54 157 11
13:06:16.8 45 67 3:39.979 36.003 44 155 12
13:10:01.2 46 69 3:44.329 35.305 59 155 11
13:13:47.5 47 70 3:46.277 35.001 59 154 11
13:20:17.7 48 72 6:30.290 20.293 73 157 12
13:24:12.5 49 74 3:54.750 33.738 58 157 10
13:28:07.8 50 75 3:55.346 33.653 59 160 10
13:31:54.4 51 76 3:46.571 34.956 51 152 9
13:35:41.5 52 78 3:47.086 34.877 58 153 9
13:41:47.8 53 80 6:06.303 21.621 78 160 10
13:46:10.4 54 81 4:22.589 30.161 60 155 10
13:50:45.8 55 83 4:35.451 28.753 66 156 11
13:55:30.8 56 84 4:44.944 27.795 69 157 12
14:00:20.8 57 86 4:50.019 27.309 65 157 11
14:04:51.7 58 88 4:30.925 29.233 66 156 12
14:11:29.2 59 91 6:37.450 19.927 73 157 11
14:14:58.7 60 92 3:29.535 37.798 53 152 10
14:18:22.9 61 93 3:24.158 38.793 55 152 12
14:21:52.4 62 95 3:29.506 37.803 51 151 10
14:25:31.0 63 96 3:38.602 36.230 54 151 11
14:29:10.0 64 97 3:39.021 36.161 54 154 12
14:32:44.2 65 99 3:34.202 36.974 49 151 12
14:37:54.1 66 101 5:09.863 25.560 77 159 11
14:41:41.5 67 102 3:47.452 34.821 61 155 10
14:45:48.9 68 104 4:07.339 32.021 63 155 10
14:51:44.1 69 106 5:55.277 22.292 83 162 11
14:56:41.0 70 108 4:56.884 26.677 67 154 10
15:03:09.0 71 109 6:27.959 20.415 73 160 11
15:07:00.7 72 111 3:51.745 34.175 50 154 11
15:10:48.8 73 112 3:48.057 34.728 49 157 11
15:14:39.6 74 114 3:50.801 34.315 57 153 10
15:20:31.0 75 115 5:51.390 22.539 84 162 11
15:25:54.3 76 117 5:23.343 24.494 65 158 10
15:31:05.3 77 119 5:10.999 25.466 70 159 9
15:39:10.6 78 121 8:05.327 16.319 73 158 10
15:42:19.6 79 122 3:09.004 41.904 47 155 8
15:45:34.8 80 122 3:15.202 40.573 57 150 8
15:49:00.6 81 124 3:25.756 38.492 51 152 9
15:52:20.9 82 125 3:20.342 39.532 46 153 9
15:55:41.9 83 126 3:20.997 39.404 52 150 8
15:59:19.2 84 127 3:37.253 36.455 54 150 9
16:02:51.6 85 128 3:32.431 37.283 56 150 9
16:06:28.8 86 129 3:37.127 36.476 53 152 8
28 - Hectic Mt Eliza SC - Senior
10:05:38.2 1 1 3:18.823 39.834 48 94 7
10:09:06.5 2 2 3:28.240 38.033 45 101 8
10:12:39.0 3 4 3:32.549 37.262 47 99 7
10:16:07.3 4 5 3:28.253 38.031 39 107 8
10:21:22.8 5 7 5:15.538 25.100 77 129 8
10:25:42.0 6 9 4:19.224 30.553 62 124 8
10:29:45.2 7 10 4:03.192 32.567 61 122 9
10:33:49.6 8 12 4:04.401 32.406 64 124 9
10:39:31.3 9 14 5:41.742 23.175 69 102 10
10:42:51.9 10 15 3:20.527 39.496 38 103 9
10:46:16.7 11 16 3:24.826 38.667 36 93 10
10:49:43.8 12 18 3:27.138 38.235 40 94 11
10:53:09.1 13 19 3:25.255 38.586 38 90 11
10:56:32.0 14 20 3:22.893 39.035 46 96 9
11:00:02.8 15 21 3:30.800 37.571 44 94 9
11:05:31.9 16 23 5:29.108 24.065 81 109 9
11:10:11.2 17 25 4:39.277 28.359 39 93 10
11:14:59.7 18 27 4:48.508 27.452 44 98 10
11:19:43.0 19 29 4:43.360 27.950 44 83 10
11:26:27.5 20 31 6:44.503 19.580 73 120 10
11:30:36.5 21 33 4:08.999 31.807 58 118 10
11:34:24.2 22 34 3:47.614 34.796 58 122 12
11:38:09.8 23 35 3:45.685 35.093 58 116 11
11:41:52.6 24 37 3:42.793 35.549 58 121 9
11:45:25.4 25 38 3:32.774 37.223 58 116 10
11:48:58.7 26 39 3:33.272 37.136 56 116 10
11:52:38.8 27 41 3:40.127 35.979 57 118 11
11:56:17.6 28 42 3:38.820 36.194 60 113 10
11:59:58.4 29 43 3:40.736 35.880 56 120 11
12:07:11.6 30 46 7:13.230 18.281 68 101 10
12:11:06.7 31 47 3:55.094 33.689 43 87 10
12:15:27.1 32 49 4:20.398 30.415 43 85 9
12:20:03.0 33 51 4:35.908 28.705 53 95 9
12:26:41.8 34 53 6:38.820 19.859 65 102 10
12:30:10.5 35 54 3:28.731 37.944 47 95 11
12:36:55.7 36 57 6:45.171 19.547 78 105 10
12:40:31.3 37 58 3:35.600 36.735 49 100 10
12:44:06.6 38 59 3:35.323 36.782 43 92 12
12:47:39.4 39 61 3:32.753 37.226 49 84 13
12:51:20.7 40 62 3:41.306 35.788 45 90 10
12:55:01.5 41 63 3:40.753 35.877 47 97 11
13:00:19.3 42 65 5:17.846 24.918 71 96 11
13:04:45.8 43 67 4:26.508 29.718 46 86 11
13:09:12.6 44 68 4:26.759 29.690 55 94 10
13:13:57.5 45 70 4:44.965 27.793 48 92 11
13:18:49.1 46 72 4:51.567 27.164 47 99 11
13:23:38.9 47 73 4:49.815 27.328 51 101 10
13:30:07.3 48 76 6:28.382 20.392 65 103 10
13:33:45.5 49 77 3:38.160 36.304 35 99 9
13:37:18.4 50 78 3:32.934 37.195 48 88 10
13:40:55.3 51 80 3:36.917 36.512 45 97 9
13:47:15.2 52 82 6:19.867 20.849 67 105 9
13:50:57.9 53 83 3:42.687 35.566 50 92 11
13:54:43.5 54 84 3:45.617 35.104 41 98 12
14:01:31.4 55 87 6:47.929 19.415 73 128 11
14:05:55.2 56 88 4:23.827 30.020 60 117 11
14:10:12.9 57 90 4:17.640 30.741 61 115 11
14:14:25.0 58 92 4:12.116 31.414 61 114 11
14:18:46.1 59 93 4:21.125 30.330 59 120 10
14:23:02.9 60 95 4:16.772 30.844 61 118 11
14:30:34.7 61 98 7:31.842 17.528 77 124 12
14:33:59.4 62 99 3:24.692 38.692 54 119 11
14:37:21.5 63 101 3:22.103 39.188 48 113 13
14:40:41.3 64 102 3:19.797 39.640 46 102 11
14:44:07.8 65 103 3:26.445 38.364 40 102 10
14:47:30.7 66 104 3:22.959 39.023 47 105 8
14:50:48.9 67 106 3:18.219 39.956 51 105 10
14:54:21.5 68 107 3:32.569 37.258 46 99 10
14:57:54.3 69 108 3:32.780 37.222 50 104 11
15:04:31.1 70 110 6:36.790 19.960 69 102 10
15:08:13.1 71 111 3:42.000 35.676 47 122 11
15:12:08.8 72 113 3:55.754 33.594 49 108 11
15:16:08.8 73 114 4:00.011 32.998 48 91 10
15:20:53.9 74 116 4:45.006 27.789 62 107 9
15:25:15.1 75 117 4:21.221 30.319 49 108 10
15:29:33.9 76 118 4:18.868 30.595 55 110 10
15:36:06.8 77 120 6:32.859 20.160 46 94 9
15:41:56.0 78 122 5:49.232 22.678 75 123 8
15:45:45.0 79 122 3:48.996 34.586 52 119 8
15:49:25.9 80 124 3:40.920 35.850 52 104 8
15:53:07.2 81 125 3:41.240 35.798 50 105 9
15:56:49.6 82 126 3:42.435 35.606 50 96 9
16:00:09.3 83 127 3:19.679 39.664 46 109 8
16:03:34.6 84 128 3:25.325 38.573 49 118 9
16:07:05.5 85 129 3:30.862 37.560 48 110 9
87 - Gecko 1 Gecko R seymour - Vet
10:05:58.0 1 1 3:47.107 34.873 60 167 8
10:09:45.2 2 3 3:47.196 34.860 63 167 7
10:13:47.1 3 4 4:01.826 32.751 61 167 7
10:17:39.9 4 6 3:52.858 34.012 61 171 9
10:21:39.4 5 7 3:59.441 33.077 61 167 8
10:25:39.1 6 9 3:59.706 33.040 62 166 8
10:29:43.3 7 10 4:04.214 32.431 60 167 8
10:33:37.1 8 11 3:53.815 33.873 61 167 9
10:38:50.9 9 13 5:13.781 25.241 76 171 11
10:42:56.7 10 15 4:05.772 32.225 60 165 10
10:47:07.1 11 17 4:10.466 31.621 58 165 10
10:51:14.9 12 18 4:07.749 31.968 62 166 10
10:55:24.3 13 20 4:09.420 31.754 62 167 9
10:59:35.4 14 21 4:11.101 31.541 62 167 9
11:03:43.7 15 23 4:08.327 31.893 60 164 10
11:07:50.4 16 24 4:06.675 32.107 62 165 9
11:11:55.6 17 26 4:05.235 32.296 61 165 10
11:16:06.3 18 27 4:10.702 31.591 62 167 10
11:21:30.4 19 29 5:24.062 24.440 81 171 10
11:25:37.7 20 31 4:07.271 32.030 61 165 10
11:29:45.1 21 32 4:07.438 32.008 59 164 10
11:33:53.3 22 34 4:08.226 31.906 63 167 12
11:38:03.4 23 35 4:10.094 31.668 63 167 12
11:42:30.0 24 37 4:26.559 29.712 61 169 11
11:46:55.0 25 38 4:25.010 29.886 63 165 9
11:51:20.7 26 40 4:25.686 29.810 62 165 10
11:56:41.6 27 42 5:20.914 24.680 76 170 11
12:00:33.3 28 44 3:51.748 34.175 59 163 12
12:04:39.9 29 45 4:06.541 32.124 61 164 11
12:08:44.4 30 47 4:04.553 32.386 59 164 10
12:12:44.7 31 48 4:00.226 32.969 59 164 9
12:16:37.2 32 50 3:52.529 34.060 59 164 10
12:20:36.2 33 51 3:59.018 33.136 60 163 9
12:24:30.1 34 52 3:53.904 33.860 58 165 10
12:30:05.0 35 54 5:34.913 23.648 75 170 10
12:34:01.6 36 56 3:56.576 33.478 59 164 10
12:37:56.6 37 57 3:55.018 33.700 57 166 10
12:41:59.2 38 59 4:02.619 32.644 59 165 9
12:45:57.1 39 60 3:57.859 33.297 60 165 12
12:50:00.9 40 62 4:03.797 32.486 62 168 10
12:54:06.0 41 63 4:05.112 32.312 59 166 11
12:57:56.5 42 64 3:50.518 34.357 58 164 11
13:03:20.5 43 66 5:24.028 24.442 73 170 9
13:07:32.3 44 68 4:11.783 31.456 60 165 10
13:11:49.4 45 69 4:17.082 30.807 60 165 10
13:16:07.6 46 71 4:18.151 30.680 63 168 11
13:20:30.0 47 72 4:22.412 30.182 61 165 12
13:24:53.8 48 74 4:23.777 30.025 62 167 11
13:29:14.3 49 75 4:20.595 30.392 60 164 10
13:33:45.5 50 77 4:31.128 29.211 62 164 9
13:39:07.9 51 79 5:22.402 24.566 77 171 11
13:43:15.9 52 80 4:08.011 31.934 54 167 10
13:47:28.3 53 82 4:12.435 31.374 59 164 10
13:51:36.6 54 83 4:08.258 31.902 60 165 11
13:55:52.6 55 84 4:16.004 30.937 63 164 10
14:00:26.5 56 86 4:33.913 28.914 62 164 10
14:04:31.9 57 88 4:05.432 32.270 61 167 11
14:10:06.8 58 90 5:34.894 23.649 75 170 11
14:14:06.9 59 92 4:00.118 32.984 58 166 11
14:18:06.8 60 93 3:59.899 33.014 59 163 10
14:22:10.5 61 95 4:03.623 32.509 59 163 11
14:26:15.9 62 96 4:05.423 32.271 60 167 11
14:30:18.3 63 98 4:02.431 32.669 60 168 11
14:34:19.5 64 99 4:01.145 32.843 58 168 11
14:39:37.2 65 101 5:17.700 24.929 73 169 10
14:43:41.8 66 103 4:04.647 32.373 61 165 9
14:47:45.7 67 104 4:03.898 32.473 61 167 10
14:51:48.7 68 106 4:03.028 32.589 59 161 11
14:55:44.6 69 108 3:55.839 33.582 60 161 11
15:00:49.3 70 109 5:04.704 25.992 76 173 10
15:05:07.5 71 110 4:18.255 30.667 59 163 11
15:09:27.2 72 112 4:19.688 30.498 60 163 10
15:13:44.3 73 113 4:17.055 30.811 60 165 10
15:18:11.0 74 115 4:26.745 29.691 62 165 10
15:23:46.8 75 116 5:35.753 23.589 79 169 10
15:27:52.8 76 118 4:06.043 32.189 62 166 9
15:36:10.2 77 120 8:17.427 15.922 63 169 9
15:40:14.7 78 121 4:04.450 32.399 62 165 8
15:44:29.4 79 122 4:14.664 31.100 63 164 8
15:49:48.2 80 124 5:18.872 24.838 77 171 9
15:53:52.3 81 125 4:04.070 32.450 60 166 9
15:58:01.6 82 127 4:09.312 31.767 60 165 9
16:02:04.5 83 128 4:02.898 32.606 60 168 9
16:06:05.9 84 129 4:01.338 32.817 63 167 8
70 - GSR Great Southern R - Comm
10:05:48.3 1 1 3:35.152 36.811 63 163 9
10:09:37.0 2 3 3:48.660 34.637 63 166 7
10:13:20.6 3 4 3:43.679 35.408 60 166 7
10:17:08.5 4 5 3:47.811 34.766 64 164 9
10:21:02.5 5 7 3:54.057 33.838 63 163 8
10:26:31.5 6 9 5:28.962 24.076 80 175 8
10:30:58.5 7 11 4:27.045 29.658 60 169 8
10:35:19.6 8 12 4:21.110 30.332 67 169 10
10:39:38.9 9 14 4:19.263 30.548 65 168 10
10:43:45.6 10 15 4:06.690 32.105 63 166 9
10:48:00.9 11 17 4:15.359 31.015 68 165 10
10:52:27.9 12 19 4:26.962 29.667 66 167 11
10:56:46.4 13 20 4:18.544 30.633 65 167 10
11:00:53.6 14 22 4:07.159 32.044 66 168 10
11:05:06.2 15 23 4:12.617 31.352 67 166 10
11:09:38.0 16 25 4:31.814 29.138 67 169 10
11:15:12.7 17 27 5:34.678 23.665 77 174 10
11:18:33.4 18 28 3:20.710 39.460 60 163 10
11:22:08.3 19 30 3:34.872 36.859 63 161 10
11:25:55.5 20 31 3:47.223 34.856 64 163 11
11:29:50.6 21 32 3:55.115 33.686 67 164 11
11:33:39.6 22 34 3:48.993 34.586 61 162 10
11:37:32.4 23 35 3:52.786 34.023 64 164 11
11:41:23.6 24 36 3:51.196 34.257 63 163 10
11:45:20.9 25 38 3:57.250 33.383 64 164 9
11:49:13.3 26 39 3:52.434 34.074 63 164 9
11:53:03.6 27 41 3:50.284 34.392 57 162 11
11:56:56.0 28 42 3:52.389 34.081 62 164 10
12:00:49.0 29 44 3:53.052 33.984 63 165 10
12:04:50.9 30 45 4:01.850 32.748 65 164 10
12:08:49.9 31 47 3:59.045 33.132 65 165 10
12:12:47.9 32 48 3:58.028 33.273 64 163 9
12:16:49.9 33 50 4:01.982 32.730 61 164 10
12:20:52.3 34 51 4:02.386 32.675 64 167 9
12:26:30.8 35 53 5:38.499 23.397 80 174 11
12:31:16.8 36 55 4:46.029 27.690 65 168 10
12:35:41.1 37 56 4:24.304 29.965 66 167 10
12:39:52.2 38 58 4:11.091 31.542 66 167 11
12:44:30.4 39 60 4:38.147 28.474 64 168 11
12:50:23.7 40 62 5:53.344 22.414 78 174 11
12:54:04.2 41 63 3:40.436 35.929 60 164 11
12:57:48.2 42 64 3:44.044 35.350 62 166 10
13:01:30.0 43 65 3:41.755 35.715 62 163 9
13:05:23.8 44 67 3:53.882 33.863 63 165 11
13:09:21.8 45 68 3:57.993 33.278 63 164 11
13:13:20.5 46 70 3:58.627 33.190 63 163 11
13:17:23.2 47 71 4:02.759 32.625 63 165 12
13:21:24.2 48 73 4:01.009 32.862 61 164 12
13:25:26.7 49 74 4:02.478 32.663 63 165 11
13:30:43.2 50 76 5:16.454 25.027 77 174 11
13:35:11.4 51 78 4:28.228 29.527 69 164 11
13:40:10.8 52 79 4:59.451 26.448 68 164 9
13:45:16.5 53 81 5:05.691 25.909 70 163 10
13:50:50.2 54 83 5:33.691 23.735 68 165 11
13:55:54.2 55 84 5:03.950 26.057 70 166 10
14:01:52.1 56 87 5:57.894 22.129 73 166 11
14:08:57.7 57 90 7:05.680 18.606 73 173 10
14:12:51.6 58 91 3:53.850 33.868 61 163 11
14:16:30.5 59 93 3:38.899 36.181 61 165 11
14:20:24.8 60 94 3:54.329 33.799 63 166 11
14:24:15.4 61 95 3:50.565 34.350 65 165 12
14:28:16.4 62 97 4:01.061 32.855 66 165 10
14:32:26.1 63 99 4:09.609 31.730 64 164 11
14:39:56.1 64 101 7:30.068 17.597 76 174 10
14:44:04.7 65 103 4:08.607 31.858 63 169 10
14:48:38.1 66 105 4:33.370 28.972 67 167 10
14:53:01.2 67 106 4:23.136 30.099 63 168 11
14:57:10.2 68 108 4:08.964 31.812 65 169 10
15:01:41.5 69 109 4:31.293 29.194 66 167 12
15:06:10.7 70 111 4:29.252 29.415 64 166 10
15:10:27.3 71 112 4:16.506 30.876 62 167 11
15:14:58.5 72 114 4:31.217 29.202 63 166 10
15:19:46.5 73 115 4:48.081 27.492 71 170 11
15:26:11.6 74 117 6:25.043 20.569 78 173 10
15:31:04.0 75 119 4:52.381 27.088 72 167 10
15:37:20.0 76 120 6:16.062 21.060 68 167 9
15:41:50.7 77 122 4:30.690 29.259 61 164 9
15:46:03.4 78 123 4:12.640 31.349 65 166 9
15:50:26.7 79 124 4:23.378 30.071 60 165 7
15:54:43.7 80 125 4:16.986 30.819 65 165 10
15:59:09.2 81 127 4:25.487 29.832 69 166 8
16:03:30.5 82 128 4:21.275 30.313 66 167 9
16:07:57.2 83 129 4:26.684 29.698 72 167 9
23 - Taurus SMS/BGS - Open
10:06:35.0 1 1 4:13.467 31.247 62 157 6
10:10:46.0 2 3 4:11.001 31.554 62 157 7
10:14:57.5 3 5 4:11.474 31.494 64 157 7
10:19:24.5 4 6 4:26.995 29.663 66 158 8
10:23:59.5 5 8 4:35.023 28.798 60 158 8
10:29:39.5 6 10 5:40.043 23.291 80 161 8
10:33:31.6 7 11 3:52.051 34.130 59 155 10
10:37:27.4 8 13 3:55.865 33.579 62 155 9
10:41:47.6 9 15 4:20.122 30.447 63 159 11
10:46:00.0 10 16 4:12.488 31.368 62 157 10
10:52:07.0 11 19 6:06.930 21.584 74 162 10
10:56:18.4 12 20 4:11.424 31.501 62 160 9
11:00:29.2 13 22 4:10.831 31.575 63 157 9
11:04:46.1 14 23 4:16.864 30.833 62 160 10
11:08:49.5 15 25 4:03.420 32.536 59 155 10
11:12:48.0 16 26 3:58.490 33.209 60 157 9
11:18:19.4 17 28 5:31.351 23.902 75 161 10
11:22:25.4 18 30 4:06.040 32.190 63 159 12
11:26:44.2 19 31 4:18.828 30.599 60 154 10
11:31:05.9 20 33 4:21.683 30.266 62 155 10
11:35:31.8 21 35 4:25.903 29.785 62 159 12
11:40:03.4 22 36 4:31.614 29.159 65 159 11
11:45:57.0 23 38 5:53.605 22.398 75 160 10
11:49:33.4 24 39 3:36.398 36.599 61 160 10
11:53:40.5 25 41 4:07.037 32.060 63 159 11
11:57:45.1 26 43 4:04.612 32.378 64 159 10
12:02:02.1 27 44 4:16.990 30.818 64 158 10
12:07:56.7 28 46 5:54.675 22.330 78 161 11
12:12:07.5 29 48 4:10.737 31.587 61 154 10
12:16:16.5 30 49 4:09.014 31.805 61 155 10
12:20:31.0 31 51 4:14.494 31.121 62 158 9
12:24:48.3 32 53 4:17.309 30.780 63 154 9
12:30:23.1 33 55 5:34.818 23.655 81 162 11
12:34:29.4 34 56 4:06.292 32.157 61 157 10
12:38:37.8 35 58 4:08.397 31.884 59 152 9
12:42:45.4 36 59 4:07.626 31.984 61 161 12
12:46:55.6 37 60 4:10.172 31.658 62 159 12
12:51:12.6 38 62 4:17.016 30.815 62 157 10
12:56:50.9 39 64 5:38.306 23.411 80 162 10
13:00:37.3 40 65 3:46.357 34.989 55 152 11
13:04:25.8 41 67 3:48.537 34.655 60 157 10
13:08:20.8 42 68 3:55.010 33.701 55 151 11
13:12:02.2 43 69 3:41.392 35.774 59 156 10
13:17:07.3 44 71 5:05.078 25.961 75 161 11
13:20:39.7 45 72 3:32.382 37.291 59 154 12
13:24:24.8 46 74 3:45.114 35.182 60 153 11
13:28:15.1 47 75 3:50.342 34.384 60 153 11
13:32:06.9 48 76 3:51.721 34.179 58 156 9
13:35:54.0 49 78 3:47.158 34.866 59 153 9
13:41:11.3 50 80 5:17.308 24.960 76 161 9
13:45:07.8 51 81 3:56.522 33.485 60 157 10
13:49:13.9 52 83 4:06.080 32.185 61 155 11
13:53:31.4 53 84 4:17.476 30.760 61 155 11
13:57:37.2 54 85 4:05.800 32.221 61 159 11
14:03:02.1 55 87 5:24.866 24.379 79 162 11
14:07:09.1 56 89 4:06.984 32.067 59 155 12
14:11:23.7 57 91 4:14.598 31.108 59 160 11
14:15:28.7 58 92 4:05.084 32.315 61 157 10
14:19:39.3 59 94 4:10.605 31.604 61 157 11
14:26:36.0 60 96 6:56.710 19.006 78 162 12
14:30:53.8 61 98 4:17.756 30.727 64 157 11
14:35:06.0 62 100 4:12.203 31.403 62 154 11
14:39:32.4 63 101 4:26.419 29.728 63 155 10
14:45:15.4 64 103 5:43.008 23.090 69 158 10
14:49:04.0 65 105 3:48.538 34.655 61 152 11
14:53:18.2 66 107 4:14.240 31.152 58 152 10
14:57:36.0 67 108 4:17.787 30.723 63 153 11
15:01:47.1 68 109 4:11.060 31.546 60 154 13
15:07:11.2 69 111 5:24.141 24.434 80 163 10
15:11:47.2 70 113 4:36.021 28.693 59 157 11
15:16:08.2 71 114 4:20.993 30.346 62 159 10
15:20:57.8 72 116 4:49.590 27.349 77 163 9
15:29:04.0 73 118 8:06.209 16.289 83 162 9
15:36:16.5 74 120 7:12.475 18.313 59 160 10
15:40:07.0 75 121 3:50.496 34.361 59 152 8
15:45:03.6 76 122 4:56.655 26.698 74 162 8
15:48:45.4 77 123 3:41.752 35.716 58 152 8
15:52:32.4 78 125 3:46.989 34.892 59 156 9
15:56:23.9 79 126 3:51.542 34.205 59 155 10
16:00:24.8 80 127 4:00.923 32.874 59 155 9
16:04:26.2 81 129 4:01.325 32.819 55 152 9
118 - Ernie Weeroona C - Middle
10:05:39.8 1 1 3:16.914 40.221 57 155 7
10:09:09.2 2 2 3:29.348 37.832 62 154 8
10:12:45.1 3 4 3:35.875 36.688 63 153 8
10:16:32.0 4 5 3:46.895 34.906 65 154 7
10:20:20.9 5 7 3:48.967 34.590 64 155 8
10:24:16.1 6 8 3:55.180 33.676 67 155 9
10:29:54.6 7 10 5:38.494 23.398 77 164 9
10:37:49.9 8 13 7:55.333 16.662 70 161 10
10:44:14.3 9 15 6:24.406 20.603 73 161 11
10:52:09.7 10 19 7:55.322 16.662 78 163 10
10:55:50.0 11 20 3:40.324 35.947 56 153 10
10:59:33.1 12 21 3:43.157 35.491 61 155 9
11:03:19.2 13 23 3:46.107 35.028 60 156 10
11:07:05.8 14 24 3:46.512 34.965 61 153 10
11:10:47.4 15 25 3:41.693 35.725 62 154 9
11:14:33.5 16 27 3:46.071 35.033 62 154 9
11:18:18.1 17 28 3:44.570 35.267 60 156 10
11:21:54.3 18 30 3:36.193 36.634 59 153 10
11:25:38.8 19 31 3:44.520 35.275 61 156 10
11:31:34.7 20 33 5:55.886 22.254 74 161 13
11:35:30.8 21 35 3:56.160 33.537 61 158 12
11:39:43.0 22 36 4:12.191 31.405 66 159 10
11:43:54.6 23 37 4:11.516 31.489 58 161 12
11:47:52.8 24 39 3:58.263 33.241 65 156 10
11:52:24.7 25 40 4:31.916 29.127 67 157 10
11:57:09.4 26 42 4:44.684 27.820 67 156 10
12:01:33.7 27 44 4:24.275 29.969 63 157 11
12:07:32.2 28 46 5:58.509 22.091 76 163 11
12:11:31.2 29 48 3:58.988 33.140 60 152 10
12:15:11.2 30 49 3:39.989 36.002 62 152 11
12:18:44.7 31 50 3:33.544 37.088 60 152 9
12:22:13.1 32 52 3:28.327 38.017 62 153 9
12:25:39.6 33 53 3:26.582 38.338 57 153 11
12:29:11.1 34 54 3:31.441 37.457 58 153 10
12:32:46.2 35 55 3:35.088 36.822 62 156 10
12:36:22.3 36 57 3:36.172 36.637 62 155 10
12:42:50.0 37 59 6:27.629 20.432 75 164 11
12:46:58.2 38 60 4:08.255 31.903 61 160 12
12:51:11.1 39 62 4:12.856 31.322 61 158 10
12:55:10.8 40 63 3:59.678 33.044 62 155 10
12:59:03.6 41 65 3:52.801 34.020 61 155 10
13:02:53.3 42 66 3:49.792 34.466 61 160 11
13:06:47.8 43 67 3:54.454 33.781 63 158 11
13:10:45.9 44 69 3:58.097 33.264 61 157 11
13:14:42.6 45 70 3:56.658 33.466 60 158 11
13:21:20.8 46 73 6:38.293 19.885 78 162 12
13:27:05.8 47 75 5:44.912 22.962 70 158 10
13:32:52.9 48 77 5:47.139 22.815 69 156 9
13:40:57.6 49 80 8:04.748 16.338 78 161 9
13:45:15.9 50 81 4:18.266 30.666 63 158 10
13:49:52.0 51 83 4:36.098 28.685 65 155 11
13:54:14.2 52 84 4:22.181 30.208 64 160 11
13:58:58.7 53 86 4:44.508 27.838 66 155 11
14:04:27.4 54 88 5:28.709 24.094 72 159 11
14:09:03.2 55 90 4:35.758 28.721 64 154 10
14:13:44.1 56 91 4:40.919 28.193 63 155 11
14:18:22.6 57 93 4:38.542 28.434 64 158 12
14:24:55.7 58 96 6:33.039 20.151 73 161 10
14:28:41.4 59 97 3:45.690 35.092 60 152 11
14:32:23.6 60 99 3:42.230 35.639 60 154 11
14:37:56.3 61 101 5:32.762 23.801 78 163 11
14:41:38.1 62 102 3:41.780 35.711 60 157 10
14:45:26.5 63 104 3:48.367 34.681 60 158 10
14:49:19.5 64 105 3:52.998 33.992 62 157 10
14:53:09.1 65 107 3:49.560 34.501 60 158 10
14:56:44.2 66 108 3:35.163 36.809 60 155 11
15:00:22.9 67 108 3:38.729 36.209 58 155 11
15:05:23.8 68 110 5:00.891 26.322 74 160 10
15:09:54.8 69 112 4:30.990 29.226 65 156 11
15:14:43.8 70 114 4:48.934 27.411 63 160 10
15:20:00.7 71 115 5:16.897 24.992 72 162 10
15:25:23.8 72 117 5:23.142 24.509 67 159 10
15:32:47.9 73 119 7:24.138 17.832 82 162 8
15:37:23.5 74 120 4:35.514 28.746 60 154 9
15:41:07.0 75 121 3:43.552 35.428 63 156 8
15:45:00.1 76 122 3:53.083 33.979 64 153 8
15:50:07.9 77 124 5:07.819 25.729 78 161 9
15:53:55.0 78 125 3:47.114 34.872 59 153 9
15:57:21.0 79 126 3:25.985 38.449 59 153 8
16:00:50.5 80 127 3:29.514 37.802 60 154 9
16:04:29.2 81 129 3:38.713 36.212 62 154 9
43 - Electric feel Woodliegh school - Open
10:06:15.1 1 1 3:43.206 35.483 60 158 7
10:10:15.4 2 3 4:00.287 32.961 60 158 7
10:14:20.9 3 4 4:05.550 32.254 59 157 8
10:18:26.9 4 6 4:05.917 32.206 59 157 8
10:22:30.4 5 8 4:03.497 32.526 55 161 7
10:27:33.6 6 9 5:03.257 26.116 62 161 9
10:32:04.5 7 11 4:30.861 29.240 64 160 9
10:36:36.4 8 13 4:31.905 29.128 62 161 10
10:41:16.8 9 14 4:40.375 28.248 57 156 10
10:46:16.9 10 16 5:00.187 26.384 58 157 10
10:50:25.2 11 18 4:08.217 31.908 62 160 10
10:54:40.8 12 19 4:15.660 30.979 60 160 11
10:58:47.3 13 21 4:06.504 32.129 61 160 10
11:03:01.2 14 23 4:13.846 31.200 63 161 11
11:07:27.0 15 24 4:25.855 29.791 58 156 9
11:12:39.4 16 26 5:12.400 25.352 63 158 10
11:17:13.6 17 28 4:34.134 28.891 64 160 10
11:21:56.7 18 30 4:43.132 27.973 64 161 10
11:26:34.2 19 31 4:37.540 28.536 65 162 11
11:31:28.8 20 33 4:54.567 26.887 66 161 13
11:36:14.0 21 35 4:45.236 27.766 56 159 10
11:39:58.2 22 36 3:44.144 35.334 60 159 12
11:43:55.1 23 37 3:56.879 33.435 57 163 12
11:47:46.2 24 39 3:51.102 34.271 58 162 10
11:51:38.0 25 40 3:51.871 34.157 57 154 11
11:55:40.9 26 42 4:02.847 32.613 58 156 10
11:59:44.5 27 43 4:03.655 32.505 59 161 10
12:03:48.3 28 45 4:03.774 32.489 57 159 9
12:07:46.4 29 46 3:58.064 33.268 59 161 10
12:11:39.3 30 48 3:52.916 34.004 59 157 10
12:15:35.2 31 49 3:55.896 33.574 58 158 10
12:19:33.7 32 51 3:58.531 33.203 59 158 9
12:23:35.9 33 52 4:02.146 32.708 60 159 9
12:27:37.0 34 54 4:01.182 32.838 60 160 9
12:31:27.1 35 55 3:50.062 34.426 56 154 10
12:36:54.3 36 57 5:27.220 24.204 60 160 10
12:41:22.4 37 59 4:28.119 29.539 61 159 10
12:45:49.3 38 60 4:26.837 29.681 57 160 11
12:50:19.5 39 62 4:30.233 29.308 60 157 9
12:54:58.8 40 63 4:39.289 28.358 63 159 11
12:59:28.0 41 65 4:29.222 29.418 63 158 10
13:04:31.8 42 67 5:03.807 26.069 66 160 10
13:09:37.8 43 68 5:05.927 25.889 62 158 11
13:15:01.3 44 70 5:23.585 24.476 63 163 11
13:19:52.9 45 72 4:51.521 27.168 65 162 12
13:24:48.4 46 74 4:55.582 26.795 65 163 10
13:29:43.9 47 76 4:55.447 26.807 66 163 10
13:34:44.2 48 77 5:00.313 26.372 59 160 10
13:39:38.8 49 79 4:54.580 26.886 64 163 10
13:44:35.2 50 81 4:56.378 26.723 65 163 10
13:49:57.1 51 83 5:21.970 24.599 54 154 11
13:53:49.2 52 84 3:52.103 34.123 58 158 12
13:57:39.6 53 85 3:50.382 34.378 57 159 11
14:01:34.9 54 87 3:55.238 33.668 61 160 11
14:05:36.4 55 88 4:01.577 32.785 56 160 11
14:09:45.7 56 90 4:09.303 31.769 60 159 11
14:13:57.4 57 92 4:11.710 31.465 61 162 11
14:18:12.8 58 93 4:15.315 31.021 59 161 11
14:23:08.1 59 95 4:55.382 26.813 59 157 11
14:27:08.5 60 97 4:00.318 32.956 59 157 10
14:31:11.9 61 98 4:03.438 32.534 61 159 12
14:35:16.9 62 100 4:05.006 32.326 59 159 12
14:39:15.1 63 101 3:58.217 33.247 56 155 11
14:43:23.5 64 103 4:08.391 31.885 60 160 9
14:47:27.5 65 104 4:04.016 32.457 56 153 8
14:51:11.2 66 106 3:43.708 35.403 57 156 10
14:55:10.6 67 107 3:59.408 33.082 60 157 11
15:01:08.3 68 109 5:57.685 22.142 67 163 10
15:06:00.4 69 110 4:52.092 27.115 62 158 10
15:10:45.7 70 112 4:45.258 27.764 63 160 11
15:15:40.9 71 114 4:55.211 26.828 65 160 10
15:20:57.8 72 116 5:16.917 24.991 69 164 9
15:26:50.2 73 117 5:52.394 22.475 61 156 9
15:31:02.7 74 119 4:12.549 31.360 63 155 10
15:36:30.8 75 120 5:28.093 24.139 54 163 10
15:40:34.0 76 121 4:03.132 32.575 61 159 8
15:46:19.0 77 123 5:45.042 22.954 63 159 8
15:50:54.9 78 124 4:35.886 28.708 64 160 9
15:55:35.3 79 126 4:40.428 28.243 63 161 9
16:00:13.0 80 127 4:37.676 28.522 62 161 8
16:04:46.5 81 129 4:33.506 28.957 63 163 8
71 - Lynx SMS/BGS - Vet
10:06:17.6 1 1 3:56.680 33.463 64 176 7
10:10:41.6 2 3 4:24.021 29.998 69 179 7
10:15:16.1 3 5 4:34.506 28.852 68 175 7
10:19:49.6 4 6 4:33.504 28.958 68 177 8
10:26:34.3 5 9 6:44.739 19.568 83 176 8
10:30:41.2 6 10 4:06.902 32.078 65 176 8
10:34:58.3 7 12 4:17.064 30.809 64 179 11
10:39:20.0 8 14 4:21.668 30.267 65 177 10
10:43:46.4 9 15 4:26.485 29.720 67 178 9
10:48:18.8 10 17 4:32.308 29.085 65 178 10
10:52:53.9 11 19 4:35.122 28.787 66 173 11
10:58:47.3 12 21 5:53.438 22.408 81 176 10
11:03:07.7 13 23 4:20.355 30.420 67 178 10
11:07:41.4 14 24 4:33.711 28.936 66 176 9
11:12:12.2 15 26 4:30.780 29.249 64 171 10
11:18:05.7 16 28 5:53.534 22.402 77 175 11
11:22:18.7 17 30 4:12.991 31.305 66 174 10
11:26:37.9 18 31 4:19.224 30.553 66 178 10
11:32:31.7 19 33 5:53.765 22.388 82 176 11
11:36:23.1 20 35 3:51.434 34.221 59 176 11
11:40:26.0 21 36 4:02.878 32.609 61 175 10
11:44:29.0 22 37 4:02.986 32.594 65 174 9
11:48:33.7 23 39 4:04.769 32.357 59 170 8
11:52:27.2 24 40 3:53.494 33.920 62 174 10
11:57:52.3 25 43 5:25.095 24.362 81 176 10
12:01:46.6 26 44 3:54.250 33.810 64 172 10
12:05:46.0 27 46 3:59.453 33.075 62 171 10
12:09:45.1 28 47 3:59.055 33.130 65 170 9
12:13:39.3 29 48 3:54.248 33.810 63 174 9
12:17:35.6 30 50 3:56.224 33.527 63 171 10
12:22:52.3 31 52 5:16.744 25.004 84 175 11
12:26:55.8 32 53 4:03.512 32.524 60 174 10
12:30:36.5 33 55 3:40.730 35.881 62 176 9
12:34:20.8 34 56 3:44.235 35.320 61 176 10
12:38:06.6 35 57 3:45.819 35.072 62 177 9
12:41:56.3 36 59 3:49.649 34.487 62 175 9
12:46:59.9 37 61 5:03.664 26.081 76 176 12
12:51:00.3 38 62 4:00.406 32.944 64 174 10
12:54:52.0 39 63 3:51.630 34.192 60 171 11
12:58:35.4 40 64 3:43.417 35.449 63 171 11
13:03:59.6 41 66 5:24.229 24.427 81 176 10
13:08:15.7 42 68 4:16.052 30.931 63 177 10
13:12:42.8 43 70 4:27.152 29.646 68 176 10
13:17:17.2 44 71 4:34.403 28.863 67 179 11
13:21:51.3 45 73 4:34.123 28.892 68 179 10
13:26:30.9 46 74 4:39.615 28.325 67 178 10
13:32:08.4 47 76 5:37.409 23.473 84 177 9
13:36:02.2 48 78 3:53.834 33.870 62 173 10
13:39:50.4 49 79 3:48.193 34.707 63 174 9
13:43:45.7 50 81 3:55.354 33.651 62 176 10
13:47:34.4 51 82 3:48.637 34.640 59 172 10
13:52:42.4 52 84 5:08.046 25.710 77 175 11
13:57:09.6 53 85 4:27.190 29.642 64 177 11
14:01:27.7 54 87 4:18.118 30.684 67 172 11
14:06:01.5 55 88 4:33.730 28.934 67 178 10
14:10:42.7 56 90 4:41.277 28.157 67 178 11
14:16:15.0 57 92 5:32.237 23.838 80 176 10
14:20:09.2 58 94 3:54.203 33.817 64 173 12
14:24:02.7 59 95 3:53.493 33.920 59 176 10
14:27:47.7 60 97 3:45.085 35.187 62 174 12
14:31:38.5 61 98 3:50.746 34.323 64 174 10
14:36:58.8 62 100 5:20.335 24.724 79 176 12
14:41:17.0 63 102 4:18.199 30.674 66 179 10
14:45:45.0 64 104 4:27.922 29.561 64 176 9
14:50:11.7 65 105 4:26.761 29.689 65 177 10
14:54:35.3 66 107 4:23.569 30.049 66 179 10
15:00:15.3 67 108 5:40.043 23.291 84 176 10
15:04:44.4 68 110 4:29.046 29.437 66 179 11
15:09:08.0 69 112 4:23.650 30.040 67 175 11
15:13:36.3 70 113 4:28.278 29.522 63 178 11
15:18:03.5 71 115 4:27.190 29.642 67 176 9
15:23:59.9 72 116 5:56.384 22.223 79 176 10
15:28:28.4 73 118 4:28.540 29.493 65 178 10
15:36:08.0 74 120 7:39.538 17.235 75 181 9
15:40:28.2 75 121 4:20.205 30.438 64 179 9
15:46:05.4 76 123 5:37.225 23.486 83 177 8
15:50:28.1 77 124 4:22.767 30.141 66 175 8
15:54:52.7 78 126 4:24.547 29.938 67 178 9
15:59:25.3 79 127 4:32.594 29.054 66 177 9
16:03:57.4 80 128 4:32.102 29.107 65 177 9
16:08:25.8 81 129 4:28.455 29.502 66 175 8
72 - Electra SMS/BGS - Vet
10:06:56.1 1 1 4:37.467 28.544 66 172 7
10:12:00.1 2 3 5:03.989 26.054 67 173 7
10:17:14.8 3 5 5:14.761 25.162 66 170 9
10:22:36.0 4 8 5:21.213 24.657 66 173 7
10:29:36.0 5 10 6:59.933 18.860 78 175 8
10:34:50.1 6 12 5:14.151 25.211 68 174 10
10:40:30.7 7 14 5:40.613 23.252 67 175 10
10:46:44.1 8 16 6:13.359 21.213 69 170 10
10:52:55.7 9 19 6:11.632 21.311 71 172 11
11:01:12.3 10 22 8:16.544 15.950 83 174 9
11:06:09.0 11 24 4:56.732 26.691 64 172 9
11:11:16.0 12 26 5:06.982 25.800 68 174 10
11:17:50.1 13 28 6:34.135 20.095 82 172 10
11:24:09.8 14 30 6:19.682 20.860 74 175 10
11:31:32.7 15 33 7:22.866 17.884 77 173 13
11:34:57.0 16 34 3:24.324 38.762 58 168 11
11:38:26.6 17 36 3:29.651 37.777 57 168 11
11:41:58.9 18 37 3:32.294 37.307 53 168 11
11:45:35.4 19 38 3:36.509 36.580 60 170 10
11:49:04.1 20 39 3:28.650 37.958 55 166 9
11:54:42.3 21 41 5:38.261 23.414 83 175 10
11:58:54.7 22 43 4:12.332 31.387 59 168 10
12:02:45.9 23 44 3:51.195 34.257 58 168 10
12:06:36.2 24 46 3:50.327 34.386 59 168 11
12:10:31.7 25 47 3:55.465 33.636 60 167 10
12:14:19.7 26 49 3:48.003 34.736 58 169 9
12:20:12.5 27 51 5:52.801 22.449 83 175 9
12:23:40.4 28 52 3:27.889 38.097 56 162 10
12:27:09.7 29 53 3:29.377 37.827 57 168 10
12:30:47.3 30 55 3:37.602 36.397 56 166 10
12:34:19.9 31 56 3:32.550 37.262 58 168 10
12:37:56.4 32 57 3:36.555 36.573 54 172 10
12:43:13.6 33 59 5:17.183 24.970 76 172 12
12:47:14.8 34 61 4:01.126 32.846 57 163 14
12:51:05.1 35 62 3:50.395 34.376 60 170 10
12:54:52.5 36 63 3:47.342 34.837 56 163 11
13:00:21.9 37 65 5:29.387 24.045 84 173 11
13:04:45.1 38 67 4:23.245 30.086 60 166 11
13:09:12.8 39 68 4:27.654 29.590 62 169 10
13:13:44.0 40 70 4:31.174 29.206 62 169 11
13:18:13.2 41 72 4:29.292 29.410 63 168 11
13:22:50.4 42 73 4:37.136 28.578 64 170 11
13:29:03.0 43 75 6:12.584 21.257 74 170 10
13:32:31.9 44 77 3:28.889 37.915 57 162 9
13:36:21.7 45 78 3:49.885 34.452 58 166 10
13:40:20.2 46 79 3:58.500 33.208 59 163 10
13:44:16.5 47 81 3:56.250 33.524 60 166 10
13:49:57.0 48 83 5:40.485 23.261 81 174 11
13:54:36.9 49 84 4:39.950 28.291 63 170 11
13:59:23.4 50 86 4:46.443 27.649 63 170 11
14:03:56.6 51 88 4:33.208 28.989 61 165 10
14:08:44.0 52 89 4:47.443 27.553 64 167 10
14:15:01.4 53 92 6:17.387 20.986 72 171 11
14:18:36.4 54 93 3:35.033 36.832 58 166 10
14:22:23.7 55 95 3:47.232 34.854 59 166 12
14:26:20.7 56 96 3:56.991 33.419 55 165 11
14:30:18.8 57 98 3:58.096 33.264 59 167 11
14:36:10.2 58 100 5:51.424 22.537 81 173 11
14:40:14.8 59 102 4:04.583 32.382 57 168 11
14:44:59.5 60 103 4:44.700 27.819 59 169 10
14:48:56.7 61 105 3:57.217 33.387 58 169 10
14:52:50.1 62 106 3:53.411 33.932 59 167 11
14:59:58.2 63 108 7:08.114 18.500 79 171 10
15:03:20.1 64 110 3:21.919 39.224 53 161 12
15:06:45.0 65 111 3:24.905 38.652 54 163 11
15:10:13.5 66 112 3:28.441 37.996 55 163 10
15:13:40.8 67 113 3:27.373 38.192 55 166 10
15:17:08.8 68 115 3:28.007 38.076 55 164 10
15:25:00.6 69 117 7:51.799 16.787 82 173 10
15:29:13.2 70 118 4:12.569 31.358 61 166 9
15:36:19.6 71 120 7:06.351 18.576 61 169 9
15:41:50.8 72 122 5:31.220 23.912 74 171 9
15:45:09.2 73 122 3:18.407 39.918 55 163 8
15:48:41.8 74 123 3:32.639 37.246 57 164 8
15:52:10.8 75 125 3:28.955 37.903 56 166 9
15:55:41.4 76 126 3:30.607 37.606 56 166 8
15:59:24.1 77 127 3:42.682 35.566 57 164 9
16:03:02.2 78 128 3:38.113 36.311 57 164 9
16:06:41.8 79 129 3:39.609 36.064 57 162 9
39 - Uno Crusoe college - Middle
10:05:28.7 1 1 3:20.054 39.589 60 103 7
10:09:15.0 2 2 3:46.323 34.994 60 103 8
10:13:08.8 3 4 3:53.797 33.876 60 104 8
10:18:51.2 4 6 5:42.318 23.136 61 98 9
10:22:35.8 5 8 3:44.600 35.263 58 101 7
10:27:39.3 6 9 5:03.583 26.088 65 97 9
10:31:47.3 7 11 4:07.933 31.944 57 105 9
10:38:18.8 8 13 6:31.528 20.228 70 98 11
10:43:14.7 9 15 4:55.905 26.765 61 103 10
10:53:10.9 10 19 9:56.221 13.284 57 95 11
11:00:31.8 11 22 7:20.846 17.965 62 95 9
11:12:16.3 12 26 11:44.530 11.242 72 99 10
11:16:56.8 13 28 4:40.525 28.233 61 107 10
11:22:19.2 14 30 5:22.374 24.568 62 107 10
11:44:05.6 15 37 21:46.412 6.062 77 100 12
11:48:17.6 16 39 4:11.994 31.429 56 106 9
11:52:46.4 17 41 4:28.775 29.467 59 107 10
11:57:37.5 18 42 4:51.155 27.202 59 108 10
12:02:30.1 19 44 4:52.574 27.070 56 107 10
12:07:25.9 20 46 4:55.742 26.780 57 110 11
12:13:18.7 21 48 5:52.822 22.448 75 100 11
12:17:25.6 22 50 4:06.902 32.078 59 108 10
12:21:43.0 23 51 4:17.447 30.764 61 108 9
12:26:14.5 24 53 4:31.482 29.173 58 108 10
12:30:44.6 25 55 4:30.103 29.322 61 108 10
12:35:19.9 26 56 4:35.268 28.772 62 107 9
12:40:03.1 27 58 4:43.268 27.959 62 107 10
12:45:42.7 28 60 5:39.597 23.322 72 99 12
12:48:58.7 29 61 3:15.978 40.413 53 102 11
12:52:18.4 30 62 3:19.688 39.662 51 104 9
12:55:45.6 31 63 3:27.169 38.230 55 102 10
12:59:13.0 32 65 3:27.417 38.184 54 101 10
13:02:38.4 33 66 3:25.449 38.550 57 104 10
13:06:10.3 34 67 3:31.847 37.385 55 104 11
13:09:42.2 35 68 3:31.933 37.370 51 101 11
13:13:17.3 36 70 3:35.093 36.821 56 105 11
13:18:17.3 37 72 4:59.946 26.405 73 99 11
13:21:59.3 38 73 3:42.004 35.675 55 101 10
13:25:38.4 39 74 3:39.104 36.147 56 104 11
13:29:21.5 40 75 3:43.131 35.495 57 104 11
13:33:08.5 41 77 3:47.038 34.884 56 105 9
13:36:56.3 42 78 3:47.719 34.780 56 103 9
13:40:43.5 43 80 3:47.280 34.847 52 105 9
13:45:29.6 44 81 4:46.015 27.691 70 99 10
13:48:51.5 45 82 3:21.901 39.227 54 102 11
13:52:19.4 46 84 3:27.966 38.083 53 99 11
13:55:59.3 47 85 3:39.902 36.016 54 103 11
13:59:45.3 48 86 3:45.946 35.053 55 104 11
14:03:28.6 49 87 3:43.365 35.458 57 102 11
14:08:21.8 50 89 4:53.165 27.016 76 100 11
14:12:02.1 51 91 3:40.324 35.947 56 104 11
14:15:50.3 52 92 3:48.194 34.707 56 104 10
14:19:51.0 53 94 4:00.639 32.912 56 105 11
14:23:52.5 54 95 4:01.595 32.782 55 106 11
14:27:53.1 55 97 4:00.558 32.923 54 107 12
14:31:50.0 56 98 3:56.855 33.438 54 106 12
14:35:40.5 57 100 3:50.514 34.358 51 106 10
14:39:35.6 58 101 3:55.162 33.679 54 106 10
14:43:30.8 59 103 3:55.186 33.675 60 106 10
14:48:11.3 60 105 4:40.520 28.233 64 99 9
14:52:17.9 61 106 4:06.557 32.122 59 102 10
14:56:34.9 62 108 4:16.983 30.819 56 105 10
15:00:58.5 63 109 4:23.643 30.041 58 107 11
15:05:16.4 64 110 4:17.848 30.716 56 106 10
15:10:18.9 65 112 5:02.486 26.183 75 99 10
15:14:00.2 66 113 3:41.329 35.784 53 105 11
15:17:45.7 67 115 3:45.532 35.117 55 103 10
15:21:45.3 68 116 3:59.580 33.058 62 108 11
15:25:50.6 69 117 4:05.344 32.281 57 107 9
15:31:03.4 70 119 5:12.726 25.326 76 101 10
15:36:24.2 71 120 5:20.832 24.686 55 101 10
15:39:41.9 72 121 3:17.665 40.068 55 104 10
15:43:14.8 73 122 3:32.962 37.190 59 101 8
15:48:04.1 74 123 4:49.258 27.380 72 99 7
15:51:49.2 75 124 3:45.088 35.186 55 105 9
15:55:29.2 76 126 3:40.052 35.991 60 105 8
15:59:23.4 77 127 3:54.217 33.815 52 101 9
16:03:14.5 78 128 3:51.105 34.270 54 105 8
16:07:13.1 79 129 3:58.573 33.197 57 102 9
121 - Fast 5 Frankston High - Middle
10:06:23.8 1 1 3:57.911 33.290 62 136 6
10:10:47.9 2 3 4:24.150 29.983 64 137 7
10:15:17.0 3 5 4:29.078 29.434 64 135 7
10:19:52.1 4 7 4:35.102 28.789 64 141 9
10:26:00.4 5 9 6:08.323 21.503 75 144 8
10:29:37.9 6 10 3:37.461 36.420 59 132 8
10:33:29.8 7 11 3:51.956 34.144 60 133 9
10:37:25.4 8 13 3:55.627 33.612 58 136 9
10:43:03.6 9 15 5:38.109 23.424 83 147 12
10:47:11.3 10 17 4:07.785 31.963 54 132 11
10:51:22.8 11 18 4:11.476 31.494 63 133 10
10:55:46.7 12 20 4:23.901 30.011 63 135 10
11:00:10.6 13 21 4:23.888 30.013 63 140 10
11:04:36.4 14 23 4:25.764 29.801 63 133 9
11:10:09.8 15 25 5:33.384 23.756 73 143 10
11:14:01.3 16 27 3:51.563 34.202 57 137 9
11:18:00.4 17 28 3:59.103 33.124 58 136 10
11:22:02.8 18 30 4:02.399 32.673 58 133 11
11:26:14.8 19 31 4:11.983 31.431 60 137 10
11:31:30.6 20 33 5:15.805 25.079 74 143 13
11:35:48.9 21 35 4:18.290 30.663 61 137 11
11:40:25.3 22 36 4:36.380 28.656 64 133 10
11:45:04.7 23 38 4:39.379 28.349 65 133 10
11:49:53.6 24 40 4:48.911 27.413 63 133 9
11:54:43.3 25 41 4:49.691 27.339 63 135 10
11:59:44.7 26 43 5:01.473 26.271 60 133 10
12:06:24.9 27 46 6:40.130 19.794 76 143 10
12:10:33.6 28 47 4:08.698 31.846 59 139 10
12:14:44.6 29 49 4:11.066 31.545 56 135 11
12:18:55.0 30 50 4:10.410 31.628 60 133 9
12:23:17.4 31 52 4:22.354 30.188 62 137 10
12:27:45.8 32 54 4:28.432 29.505 61 139 9
12:33:53.3 33 56 6:07.491 21.552 77 143 10
12:38:19.0 34 57 4:25.711 29.807 62 135 10
12:42:44.0 35 59 4:24.958 29.892 62 135 11
12:47:14.1 36 61 4:30.149 29.317 62 138 14
12:51:54.2 37 62 4:40.097 28.276 64 139 11
12:56:47.8 38 64 4:53.541 26.981 62 135 10
13:01:43.8 39 66 4:56.063 26.751 60 135 11
13:07:23.6 40 68 5:39.764 23.310 76 143 11
13:11:37.8 41 69 4:14.231 31.153 56 137 11
13:15:48.2 42 71 4:10.330 31.638 59 134 10
13:19:51.9 43 72 4:03.776 32.489 54 132 12
13:23:51.3 44 74 3:59.363 33.088 58 135 10
13:27:59.0 45 75 4:07.667 31.978 59 137 11
13:31:54.1 46 76 3:55.121 33.685 57 137 9
13:36:45.0 47 78 4:50.926 27.223 75 142 10
13:41:07.2 48 80 4:22.170 30.209 62 131 9
13:45:34.6 49 81 4:27.398 29.619 62 133 10
13:50:10.7 50 83 4:36.134 28.682 62 133 10
13:54:55.7 51 84 4:44.974 27.792 63 133 11
14:01:25.1 52 87 6:29.447 20.337 71 142 11
14:05:23.1 53 88 3:57.974 33.281 54 137 11
14:09:24.9 54 90 4:01.838 32.749 57 133 10
14:13:32.6 55 91 4:07.689 31.976 58 133 11
14:17:49.4 56 93 4:16.773 30.844 60 133 10
14:22:13.3 57 95 4:23.888 30.013 57 138 11
14:27:49.8 58 97 5:36.544 23.533 79 143 12
14:32:06.1 59 99 4:16.210 30.912 58 133 11
14:36:29.4 60 100 4:23.354 30.074 62 136 13
14:41:05.6 61 102 4:36.206 28.674 64 137 11
14:45:43.5 62 104 4:37.892 28.500 63 134 9
14:51:52.4 63 106 6:08.892 21.470 78 146 10
14:55:52.4 64 108 4:00.013 32.998 56 137 10
14:59:41.0 65 108 3:48.572 34.650 58 134 10
15:03:42.8 66 110 4:01.843 32.749 59 135 11
15:07:51.1 67 111 4:08.247 31.904 62 137 11
15:12:36.9 68 113 4:45.784 27.713 63 135 10
15:17:41.9 69 115 5:05.011 25.966 62 133 10
15:24:11.3 70 116 6:29.454 20.336 69 141 10
15:28:33.2 71 118 4:21.879 30.243 61 133 9
15:36:16.3 72 120 7:43.120 17.101 60 133 10
15:40:55.1 73 121 4:38.805 28.407 62 131 8
15:47:28.5 74 123 6:33.380 20.133 70 141 8
15:51:19.8 75 124 3:51.277 34.245 57 132 9
15:55:09.8 76 126 3:50.061 34.426 52 132 10
15:59:15.0 77 127 4:05.151 32.307 59 131 9
16:03:42.0 78 128 4:27.022 29.660 61 133 8
16:07:57.5 79 129 4:15.489 30.999 55 130 9
64 - Blue Steel Rode Rage - Comm
10:05:43.8 1 1 3:15.311 40.551 57 155 9
10:09:13.6 2 2 3:29.760 37.757 57 157 8
10:12:43.5 3 4 3:29.881 37.736 58 163 8
10:16:18.8 4 5 3:35.316 36.783 57 161 8
10:19:49.0 5 6 3:30.222 37.674 59 159 8
10:23:26.4 6 8 3:37.416 36.428 58 160 9
10:27:10.5 7 9 3:44.061 35.348 62 166 9
10:31:41.7 8 11 4:31.208 29.203 57 154 8
10:35:10.2 9 12 3:28.477 37.990 57 159 10
10:38:35.9 10 13 3:25.740 38.495 57 157 10
10:42:07.9 11 15 3:31.976 37.363 56 157 9
10:45:33.8 12 16 3:25.941 38.458 58 159 10
10:51:40.7 13 18 6:06.896 21.586 59 161 10
10:55:42.1 14 20 4:01.346 32.816 62 162 10
10:59:48.0 15 21 4:05.965 32.200 63 162 9
11:04:12.2 16 23 4:24.159 29.982 61 162 9
11:08:32.2 17 25 4:20.011 30.460 58 158 9
11:12:27.0 18 26 3:54.804 33.730 63 163 9
11:17:11.1 19 28 4:44.056 27.882 63 161 10
11:21:36.6 20 29 4:25.509 29.829 62 162 11
11:25:47.6 21 31 4:11.045 31.548 63 162 10
11:30:27.7 22 33 4:40.119 28.274 57 157 9
11:33:58.2 23 34 3:30.461 37.632 57 158 12
11:37:47.4 24 35 3:49.215 34.553 62 159 9
11:41:36.8 25 36 3:49.379 34.528 58 162 10
11:45:27.7 26 38 3:50.870 34.305 58 158 10
11:49:09.8 27 39 3:42.170 35.648 56 158 9
11:53:03.5 28 41 3:53.642 33.898 57 159 11
11:56:55.1 29 42 3:51.640 34.191 59 157 10
12:00:39.0 30 44 3:43.913 35.371 60 160 11
12:04:29.4 31 45 3:50.386 34.377 61 160 10
12:08:22.0 32 46 3:52.622 34.047 63 161 10
12:12:32.0 33 48 4:09.919 31.690 57 158 9
12:16:11.8 34 49 3:39.837 36.027 61 160 9
12:22:54.0 35 52 6:42.250 19.689 60 161 11
12:26:48.4 36 53 3:54.319 33.800 61 163 10
12:31:05.9 37 55 4:17.523 30.755 60 164 10
12:35:12.4 38 56 4:06.528 32.126 60 163 10
12:39:20.2 39 58 4:07.838 31.956 60 163 9
12:43:26.8 40 59 4:06.546 32.124 63 164 11
12:47:43.7 41 61 4:16.945 30.824 61 165 13
12:51:55.7 42 62 4:11.948 31.435 62 166 11
12:56:08.7 43 63 4:13.020 31.302 61 164 10
13:03:48.7 44 66 7:39.997 17.218 66 162 11
13:08:57.5 45 68 5:08.790 25.648 65 163 11
13:14:27.6 46 70 5:30.113 23.992 70 165 10
13:20:52.0 47 72 6:24.364 20.605 67 164 12
13:26:38.8 48 75 5:46.877 22.832 70 164 10
13:32:18.2 49 77 5:39.341 23.339 66 164 8
13:38:13.2 50 79 5:55.038 22.307 71 165 9
13:44:21.0 51 81 6:07.747 21.537 66 160 10
13:50:56.0 52 83 6:35.032 20.049 65 165 11
13:56:25.0 53 85 5:28.991 24.074 60 162 12
14:00:31.9 54 86 4:06.880 32.080 59 159 10
14:04:28.7 55 88 3:56.842 33.440 60 159 11
14:08:43.1 56 89 4:14.405 31.131 61 162 10
14:13:07.0 57 91 4:23.841 30.018 63 161 11
14:17:44.9 58 93 4:37.950 28.494 62 163 11
14:22:13.2 59 95 4:28.273 29.522 58 161 11
14:29:48.2 60 98 7:34.978 17.407 67 159 11
14:35:15.3 61 100 5:27.158 24.208 69 160 12
14:40:40.5 62 102 5:25.188 24.355 67 159 11
14:51:55.8 63 106 11:15.261 11.729 68 164 12
15:06:14.4 64 111 14:18.576 9.225 59 159 10
15:10:01.6 65 112 3:47.217 34.857 56 157 11
15:13:49.5 66 113 3:47.912 34.750 59 158 9
15:17:48.2 67 115 3:58.752 33.172 55 155 11
15:21:39.1 68 116 3:50.888 34.302 67 165 9
15:29:12.5 69 118 7:33.344 17.470 60 160 9
15:36:14.3 70 120 7:01.831 18.775 56 162 10
15:40:12.3 71 121 3:58.020 33.275 60 157 8
15:45:34.9 72 122 5:22.580 24.552 58 161 8
15:49:25.6 73 124 3:50.712 34.329 61 160 8
15:53:16.8 74 125 3:51.214 34.254 61 157 9
15:57:25.6 75 126 4:08.778 31.836 57 158 9
16:01:19.1 76 128 3:53.515 33.916 59 158 9
16:05:07.8 77 129 3:48.734 34.625 57 157 9
136 - Sola Fida C Hillcrest - Middle
10:06:48.2 1 1 4:18.706 30.614 62 141 7
10:11:23.5 2 3 4:35.284 28.770 66 145 7
10:16:35.7 3 5 5:12.233 25.366 65 144 7
10:21:43.1 4 7 5:07.440 25.761 64 144 9
10:27:52.4 5 9 6:09.284 21.447 83 154 10
10:32:17.9 6 11 4:25.471 29.834 62 146 10
10:36:38.2 7 13 4:20.284 30.428 62 145 10
10:41:05.7 8 14 4:27.502 29.607 65 144 10
10:45:17.7 9 16 4:12.034 31.424 62 145 11
10:49:41.5 10 18 4:23.759 30.027 64 145 11
10:55:19.2 11 20 5:37.747 23.450 84 154 10
11:00:02.4 12 21 4:43.209 27.965 64 140 9
11:04:38.1 13 23 4:35.717 28.725 63 142 9
11:09:18.3 14 25 4:40.113 28.274 67 147 9
11:14:05.4 15 27 4:47.116 27.585 61 141 10
11:20:25.0 16 29 6:19.583 20.865 80 154 9
11:24:17.8 17 30 3:52.853 34.013 59 142 10
11:28:09.1 18 32 3:51.328 34.237 58 140 10
11:31:59.7 19 33 3:50.585 34.347 55 144 9
11:35:52.6 20 35 3:52.874 34.010 59 146 11
11:41:36.2 21 36 5:43.616 23.049 81 154 10
11:46:53.6 22 38 5:17.377 24.955 63 146 9
11:51:18.7 23 40 4:25.139 29.871 60 144 10
11:57:38.0 24 42 6:19.267 20.882 83 156 10
12:02:35.0 25 44 4:57.004 26.666 58 147 11
12:06:47.3 26 46 4:12.250 31.397 60 140 12
12:10:59.7 27 47 4:12.422 31.376 59 146 10
12:14:44.4 28 49 3:44.719 35.244 56 146 11
12:20:49.7 29 51 6:05.354 21.678 84 154 9
12:25:48.6 30 53 4:58.889 26.498 61 142 10
12:30:50.0 31 55 5:01.340 26.283 62 146 10
12:35:35.0 32 56 4:44.978 27.792 61 147 10
12:40:13.0 33 58 4:38.035 28.486 63 147 10
12:44:58.3 34 60 4:45.299 27.760 61 144 12
12:51:47.0 35 62 6:48.679 19.380 84 155 10
12:56:07.8 36 63 4:20.866 30.360 58 140 10
13:00:18.1 37 65 4:10.284 31.644 59 140 11
13:04:30.3 38 67 4:12.152 31.410 56 139 10
13:08:42.6 39 68 4:12.286 31.393 59 139 10
13:13:01.4 40 70 4:18.818 30.601 62 141 10
13:17:18.1 41 71 4:16.708 30.852 59 140 11
13:21:33.1 42 73 4:15.058 31.052 60 143 12
13:26:08.2 43 74 4:35.092 28.790 60 140 11
13:32:04.6 44 76 5:56.401 22.222 81 154 9
13:36:30.9 45 78 4:26.314 29.739 61 141 11
13:41:09.5 46 80 4:38.539 28.434 60 141 9
13:45:48.3 47 81 4:38.784 28.409 60 141 9
13:50:25.0 48 83 4:36.764 28.616 64 142 12
13:55:38.8 49 84 5:13.745 25.243 66 145 11
14:00:57.6 50 86 5:18.836 24.840 68 145 10
14:06:12.9 51 89 5:15.332 25.116 62 140 11
14:12:11.9 52 91 5:58.953 22.064 82 153 10
14:16:22.7 53 92 4:10.766 31.583 57 141 12
14:20:30.7 54 94 4:08.021 31.933 61 139 10
14:24:42.5 55 96 4:11.809 31.452 58 139 10
14:28:59.1 56 97 4:16.591 30.866 61 142 11
14:33:10.4 57 99 4:11.342 31.511 61 140 11
14:37:34.9 58 101 4:24.446 29.949 61 140 11
14:42:03.0 59 102 4:28.152 29.535 63 143 11
14:46:17.8 60 104 4:14.770 31.087 62 141 9
14:50:35.8 61 106 4:18.041 30.693 60 141 10
14:56:20.9 62 108 5:45.021 22.955 81 155 10
15:00:37.8 63 109 4:16.908 30.828 61 145 10
15:05:27.5 64 110 4:49.739 27.335 58 141 10
15:09:55.6 65 112 4:28.108 29.540 59 139 11
15:15:53.1 66 114 5:57.506 22.153 73 149 10
15:19:55.1 67 115 4:01.949 32.734 72 147 10
15:23:55.4 68 116 4:00.334 32.954 59 137 10
15:27:55.7 69 118 4:00.332 32.954 59 139 9
15:36:05.5 70 120 8:09.764 16.171 68 148 9
15:42:01.4 71 122 5:55.895 22.254 80 152 9
15:46:27.6 72 123 4:26.226 29.749 60 142 8
15:50:51.8 73 124 4:24.183 29.979 60 138 9
15:55:09.9 74 126 4:18.069 30.689 57 146 10
15:59:49.8 75 127 4:39.908 28.295 60 141 9
16:04:31.9 76 129 4:42.167 28.068 59 144 9
126 - Kapow Woodleigh School - Vet
10:06:27.0 1 1 4:11.817 31.451 64 168 6
10:11:22.2 2 3 4:55.251 26.825 66 172 7
10:16:19.7 3 5 4:57.505 26.621 67 173 8
10:21:03.5 4 7 4:43.808 27.906 63 171 8
10:25:59.2 5 9 4:55.626 26.791 65 173 8
10:31:01.0 6 11 5:01.813 26.241 65 173 8
10:36:05.2 7 12 5:04.232 26.033 66 175 10
10:41:16.8 8 14 5:11.549 25.421 58 172 10
10:46:25.3 9 16 5:08.527 25.670 67 173 10
10:51:44.3 10 18 5:18.966 24.830 69 172 10
10:58:10.6 11 21 6:26.311 20.502 64 170 11
11:02:56.4 12 22 4:45.859 27.706 67 175 10
11:07:56.4 13 24 4:59.941 26.405 64 175 9
11:12:50.5 14 26 4:54.105 26.929 65 174 9
11:17:51.3 15 28 5:00.788 26.331 67 175 10
11:24:57.4 16 31 7:06.170 18.584 66 174 10
11:31:16.9 17 33 6:19.485 20.870 71 175 10
11:37:02.4 18 35 5:45.496 22.924 67 175 10
11:42:53.6 19 37 5:51.181 22.552 65 174 11
11:48:42.3 20 39 5:48.722 22.712 67 174 10
11:54:39.5 21 41 5:57.165 22.175 65 174 10
12:00:18.4 22 43 5:38.927 23.368 67 177 11
12:06:21.9 23 46 6:03.521 21.787 67 176 10
12:13:03.5 24 48 6:41.566 19.723 62 172 10
12:18:33.6 25 50 5:30.130 23.991 61 169 9
12:22:38.2 26 52 4:04.607 32.378 61 168 10
12:26:51.4 27 53 4:13.132 31.288 61 169 10
12:31:01.9 28 55 4:10.531 31.613 62 166 10
12:35:15.5 29 56 4:13.609 31.229 60 172 9
12:39:36.1 30 58 4:20.560 30.396 62 173 9
12:43:52.6 31 59 4:16.546 30.872 61 168 12
12:48:04.4 32 61 4:11.742 31.461 60 168 10
12:54:39.4 33 63 6:35.095 20.046 64 173 11
13:00:00.3 34 65 5:20.857 24.684 67 170 10
13:05:38.7 35 67 5:38.417 23.403 64 170 11
13:11:15.8 36 69 5:37.080 23.496 65 167 10
13:17:02.9 37 71 5:47.068 22.820 67 175 11
13:22:39.6 38 73 5:36.737 23.520 72 174 11
13:28:39.2 39 75 5:59.631 22.023 56 166 10
13:32:29.0 40 77 3:49.725 34.476 56 166 9
13:36:21.2 41 78 3:52.192 34.110 57 164 10
13:40:18.6 42 79 3:57.445 33.355 58 167 10
13:44:15.5 43 81 3:56.908 33.431 55 163 10
13:47:57.5 44 82 3:42.006 35.675 57 168 10
13:51:47.5 45 83 3:49.967 34.440 58 165 12
13:55:40.1 46 84 3:52.654 34.042 58 169 11
13:59:38.2 47 86 3:58.046 33.271 59 167 11
14:03:31.2 48 87 3:52.982 33.994 58 167 11
14:07:25.4 49 89 3:54.277 33.806 59 168 11
14:11:28.0 50 91 4:02.569 32.651 59 167 11
14:15:20.1 51 92 3:52.087 34.125 59 166 10
14:19:22.5 52 94 4:02.405 32.673 58 166 10
14:23:12.2 53 95 3:49.721 34.477 59 168 11
14:27:21.9 54 97 4:09.652 31.724 60 167 11
14:32:34.3 55 99 5:12.418 25.351 57 172 12
14:36:29.0 56 100 3:54.686 33.747 60 171 12
14:40:28.2 57 102 3:59.207 33.109 59 171 10
14:44:26.1 58 103 3:57.950 33.284 58 173 9
14:48:25.2 59 105 3:59.115 33.122 59 170 12
14:52:22.6 60 106 3:57.374 33.365 60 171 10
14:56:17.9 61 108 3:55.302 33.659 59 171 10
15:00:14.9 62 108 3:56.932 33.427 59 171 10
15:04:12.6 63 110 3:57.709 33.318 59 172 11
15:08:59.6 64 112 4:47.072 27.589 58 173 11
15:13:02.9 65 113 4:03.245 32.560 60 174 11
15:17:18.4 66 115 4:15.492 30.999 61 171 10
15:21:59.1 67 116 4:40.761 28.209 68 174 10
15:26:26.4 68 117 4:27.234 29.637 62 173 10
15:30:41.8 69 119 4:15.450 31.004 62 172 10
15:38:06.4 70 120 7:24.558 17.815 60 166 10
15:42:33.5 71 122 4:27.147 29.647 63 170 9
15:46:58.1 72 123 4:24.548 29.938 63 167 8
15:51:21.0 73 124 4:22.934 30.122 62 172 9
15:55:52.4 74 126 4:31.367 29.186 63 173 9
16:00:30.0 75 127 4:37.635 28.527 63 171 9
16:05:04.9 76 129 4:34.897 28.811 62 168 9
143 - Dark Knight Elizabeth Murdoch College - Comm
10:05:50.7 1 1 3:38.807 36.196 49 102 9
10:09:47.6 2 3 3:56.859 33.438 50 106 7
10:13:51.5 3 4 4:03.875 32.476 47 105 7
10:17:41.1 4 6 3:49.680 34.483 50 106 9
10:21:38.2 5 7 3:57.087 33.405 50 104 8
10:26:33.2 6 9 4:54.941 26.853 67 103 8
10:30:11.5 7 10 3:38.301 36.280 48 104 9
10:34:16.1 8 12 4:04.667 32.371 48 104 9
10:38:26.0 9 13 4:09.888 31.694 46 102 9
10:43:12.4 10 15 4:46.394 27.654 69 103 10
10:47:11.8 11 17 3:59.359 33.088 49 105 11
10:51:35.9 12 18 4:24.096 29.989 53 102 10
10:57:08.3 13 20 5:32.458 23.823 78 104 11
11:01:20.2 14 22 4:11.906 31.440 48 105 9
11:05:31.6 15 23 4:11.405 31.503 51 106 9
11:11:11.0 16 26 5:39.339 23.339 64 104 9
11:44:04.4 17 37 32:53.388 4.013 67 104 12
11:47:49.6 18 39 3:45.271 35.158 47 106 10
11:51:37.8 19 40 3:48.115 34.719 48 105 11
11:57:07.2 20 42 5:29.487 24.037 68 105 10
12:00:47.9 21 44 3:40.706 35.885 48 106 10
12:04:30.1 22 45 3:42.129 35.655 46 101 10
12:08:02.8 23 46 3:32.757 37.226 47 106 10
12:11:51.8 24 48 3:48.960 34.591 47 101 9
12:16:57.2 25 50 5:05.364 25.936 64 104 10
12:21:08.6 26 51 4:11.449 31.497 54 108 10
12:26:07.0 27 53 4:58.436 26.538 54 108 10
12:32:15.3 28 55 6:08.291 21.505 61 104 10
12:36:14.7 29 57 3:59.377 33.086 49 109 10
12:40:19.4 30 58 4:04.710 32.365 50 108 11
12:44:23.3 31 60 4:03.896 32.473 49 104 13
12:48:13.2 32 61 3:49.880 34.453 49 105 11
12:52:17.1 33 62 4:03.884 32.474 50 104 9
12:56:25.5 34 64 4:08.457 31.877 51 106 10
13:02:35.8 35 66 6:10.275 21.390 59 105 11
13:06:15.1 36 67 3:39.269 36.120 49 106 10
13:10:24.9 37 69 4:09.783 31.708 48 105 10
13:14:44.2 38 70 4:19.312 30.542 48 107 11
13:19:49.4 39 72 5:05.217 25.949 65 105 12
13:23:59.2 40 74 4:09.831 31.701 50 107 12
13:29:10.5 41 75 5:11.282 25.443 65 104 10
13:33:36.8 42 77 4:26.339 29.737 51 106 8
13:38:14.6 43 79 4:37.771 28.513 53 104 9
13:43:54.4 44 81 5:39.798 23.308 69 104 9
13:49:55.3 45 83 6:00.846 21.948 69 103 11
13:54:04.4 46 84 4:09.164 31.786 49 100 12
13:58:25.2 47 85 4:20.735 30.376 50 100 10
14:04:00.1 48 88 5:34.906 23.648 70 105 11
14:09:02.2 49 90 5:02.142 26.213 52 107 10
14:15:36.0 50 92 6:33.822 20.111 66 106 11
14:19:25.1 51 94 3:49.118 34.567 46 99 10
14:23:18.8 52 95 3:53.696 33.890 49 100 11
14:27:28.8 53 97 4:09.975 31.683 50 102 11
14:31:37.2 54 98 4:08.422 31.881 50 104 10
14:36:56.7 55 100 5:19.487 24.790 66 105 12
14:40:44.2 56 102 3:47.470 34.818 48 101 11
14:44:31.5 57 103 3:47.270 34.848 49 102 10
14:48:29.3 58 105 3:57.788 33.307 47 98 12
14:52:19.3 59 106 3:50.011 34.433 48 102 10
14:56:02.8 60 108 3:43.491 35.438 46 100 9
14:59:57.1 61 108 3:54.391 33.790 48 100 10
15:05:13.5 62 110 5:16.329 25.037 73 105 10
15:09:48.1 63 112 4:34.608 28.841 54 107 11
15:15:12.5 64 114 5:24.381 24.416 54 106 10
15:21:52.2 65 116 6:39.723 19.814 64 105 10
15:26:32.0 66 117 4:39.805 28.305 52 107 10
15:30:48.2 67 119 4:16.159 30.918 53 108 10
15:36:25.1 68 120 5:36.942 23.506 50 102 10
15:41:26.1 69 121 5:00.966 26.315 59 103 9
15:45:23.7 70 122 3:57.648 33.327 50 102 8
15:49:46.3 71 124 4:22.577 30.163 53 104 9
15:54:14.8 72 125 4:28.488 29.499 53 106 9
15:58:48.8 73 127 4:34.004 28.905 52 101 9
16:03:24.9 74 128 4:36.155 28.680 51 105 8
16:08:53.6 75 129 5:28.675 24.097 61 110 8
9 - Cassiopea SMS/BGS - Female
10:07:30.4 1 2 4:53.369 26.997 61 169 8
10:12:35.1 2 4 5:04.612 26.000 64 168 8
10:17:43.2 3 6 5:08.189 25.699 69 171 9
10:22:54.9 4 8 5:11.617 25.416 69 171 8
10:27:55.3 5 9 5:00.478 26.358 68 168 10
10:34:35.2 6 12 6:39.833 19.808 83 172 10
10:38:56.9 7 14 4:21.717 30.262 58 171 11
10:43:14.4 8 15 4:17.513 30.756 57 171 10
10:47:40.3 9 17 4:25.907 29.785 60 170 10
10:52:07.1 10 19 4:26.799 29.685 61 171 10
10:59:01.9 11 21 6:54.811 19.093 75 169 9
11:03:01.1 12 23 3:59.163 33.115 60 166 11
11:07:26.8 13 24 4:25.743 29.803 59 169 9
11:11:58.0 14 26 4:31.186 29.205 60 167 9
11:16:29.3 15 28 4:31.259 29.197 66 166 10
11:21:07.7 16 29 4:38.462 28.442 63 172 10
11:29:14.1 17 32 8:06.358 16.284 84 172 10
11:33:39.6 18 34 4:25.467 29.834 63 168 10
11:37:53.9 19 35 4:14.303 31.144 62 168 9
11:42:07.6 20 37 4:13.721 31.215 62 167 10
11:46:30.9 21 38 4:23.350 30.074 61 167 8
11:51:00.1 22 40 4:29.143 29.427 63 169 10
11:57:50.4 23 43 6:50.370 19.300 83 173 10
12:02:22.9 24 44 4:32.496 29.065 61 169 11
12:06:44.6 25 46 4:21.709 30.263 61 168 12
12:11:09.2 26 48 4:24.515 29.942 59 166 10
12:15:28.1 27 49 4:18.924 30.588 60 165 9
12:21:01.8 28 51 5:33.738 23.731 75 170 9
12:25:05.3 29 53 4:03.471 32.530 59 164 10
12:29:21.0 30 54 4:15.674 30.977 62 166 10
12:33:49.4 31 56 4:28.431 29.505 62 169 10
12:38:08.3 32 57 4:18.909 30.590 61 165 10
12:42:32.7 33 59 4:24.379 29.957 62 168 13
12:46:45.5 34 60 4:12.845 31.324 60 165 11
12:52:34.7 35 62 5:49.126 22.685 77 171 10
12:57:17.1 36 64 4:42.450 28.040 63 167 10
13:02:11.9 37 66 4:54.803 26.865 58 167 10
13:07:05.2 38 67 4:53.251 27.008 65 168 12
13:12:25.3 39 69 5:20.180 24.736 67 169 11
13:19:06.4 40 72 6:41.099 19.746 84 172 11
13:24:24.3 41 74 5:17.824 24.919 64 168 11
13:29:25.9 42 76 5:01.680 26.253 63 168 10
13:34:38.4 43 77 5:12.445 25.348 66 170 9
13:41:09.7 44 80 6:31.268 20.242 73 169 9
13:45:26.0 45 81 4:16.369 30.893 61 166 10
13:49:53.3 46 83 4:27.253 29.635 61 170 11
13:54:15.7 47 84 4:22.401 30.183 60 169 11
14:00:32.5 48 86 6:16.773 21.021 71 168 10
14:04:24.2 49 88 3:51.778 34.171 61 168 11
14:08:47.6 50 90 4:23.344 30.075 62 168 11
14:14:40.6 51 92 5:53.062 22.432 75 169 11
14:18:41.3 52 93 4:00.619 32.915 59 166 10
14:22:37.8 53 95 3:56.510 33.487 59 166 11
14:26:51.3 54 96 4:13.517 31.241 61 166 10
14:33:00.2 55 99 6:08.886 21.470 79 171 12
14:37:25.2 56 101 4:24.995 29.887 64 166 13
14:41:49.3 57 102 4:24.086 29.990 61 167 11
14:46:13.1 58 104 4:23.880 30.014 62 166 8
14:52:04.6 59 106 5:51.447 22.535 83 171 11
14:56:21.0 60 108 4:16.383 30.891 57 165 10
15:00:27.4 61 108 4:06.446 32.137 60 165 11
15:04:35.1 62 110 4:07.667 31.978 59 164 11
15:10:08.5 63 112 5:33.465 23.751 78 171 10
15:14:03.7 64 113 3:55.116 33.685 55 162 10
15:17:57.7 65 115 3:54.033 33.841 58 159 10
15:23:32.0 66 116 5:34.350 23.688 84 171 10
15:29:06.9 67 118 5:34.868 23.651 67 170 9
15:36:35.7 68 120 7:28.813 17.647 66 170 10
15:43:12.9 69 122 6:37.137 19.943 80 170 8
15:47:17.2 70 123 4:04.346 32.413 59 168 8
15:51:22.7 71 124 4:05.545 32.255 61 167 9
15:55:31.0 72 126 4:08.265 31.901 58 167 9
15:59:53.8 73 127 4:22.830 30.134 59 168 9
16:04:15.6 74 128 4:21.761 30.257 61 166 9
16:08:55.4 75 129 4:39.764 28.310 68 168 8
140 - Noahs ark Mt Eliza SC - Middle
10:05:45.5 1 1 3:28.516 37.983 53 127 9
10:09:24.4 2 2 3:38.957 36.171 51 124 8
10:12:59.3 3 4 3:34.902 36.854 51 122 7
10:16:38.1 4 5 3:38.731 36.209 53 128 7
10:20:28.2 5 7 3:50.151 34.412 56 129 8
10:27:28.8 6 9 7:00.580 18.831 76 133 9
10:32:05.8 7 11 4:37.034 28.589 52 130 9
10:36:32.8 8 13 4:26.939 29.670 56 132 10
10:41:18.6 9 14 4:45.799 27.712 54 131 10
10:48:21.0 10 17 7:02.397 18.750 77 133 10
10:51:55.0 11 18 3:34.064 36.998 50 125 10
10:55:35.1 12 20 3:40.068 35.989 56 124 10
10:59:15.3 13 21 3:40.158 35.974 54 124 9
11:02:59.2 14 23 3:43.916 35.370 49 127 10
11:06:44.5 15 24 3:45.297 35.154 51 123 9
11:12:10.7 16 26 5:26.179 24.281 84 135 10
11:16:32.4 17 28 4:21.733 30.260 58 125 10
11:21:06.1 18 29 4:33.685 28.938 58 131 9
11:25:36.7 19 31 4:30.656 29.262 52 130 10
11:34:43.9 20 34 9:07.190 14.474 79 133 10
11:38:31.6 21 36 3:47.712 34.781 53 125 11
11:42:29.1 22 37 3:57.462 33.353 53 122 11
11:46:21.2 23 38 3:52.141 34.117 54 125 9
11:50:20.1 24 40 3:58.880 33.155 54 125 10
11:54:16.3 25 41 3:56.162 33.536 53 124 11
11:58:19.8 26 43 4:03.531 32.522 57 126 10
12:02:27.2 27 44 4:07.362 32.018 59 124 11
12:06:14.9 28 46 3:47.730 34.778 54 123 10
12:10:07.3 29 47 3:52.406 34.078 49 125 10
12:14:13.4 30 49 4:06.114 32.180 57 127 9
12:21:30.8 31 51 7:17.417 18.106 84 134 9
12:25:55.8 32 53 4:24.923 29.895 54 126 11
12:30:21.6 33 55 4:25.800 29.797 56 125 11
12:34:51.0 34 56 4:29.436 29.395 58 123 10
12:39:37.0 35 58 4:45.986 27.694 62 124 9
12:44:21.4 36 60 4:44.389 27.849 56 125 13
12:49:05.0 37 61 4:43.613 27.925 58 128 11
12:53:53.0 38 63 4:47.994 27.501 52 127 10
12:58:34.6 39 64 4:41.652 28.120 57 124 11
13:03:23.9 40 66 4:49.219 27.384 60 127 9
13:08:20.2 41 68 4:56.373 26.723 53 125 11
13:13:29.8 42 70 5:09.600 25.581 59 126 11
13:18:24.7 43 72 4:54.841 26.862 57 97 11
13:25:21.6 44 74 6:56.928 18.996 75 106 10
13:29:22.3 45 75 4:00.746 32.898 49 104 11
13:33:37.6 46 77 4:15.222 31.032 54 107 8
13:37:56.8 47 79 4:19.228 30.552 53 105 10
13:42:12.0 48 80 4:15.216 31.033 55 105 10
13:46:39.4 49 82 4:27.360 29.623 54 104 9
13:51:14.8 50 83 4:35.383 28.760 52 105 11
13:55:35.4 51 84 4:20.608 30.390 56 108 13
14:00:31.3 52 86 4:55.957 26.761 54 109 10
14:07:26.3 53 89 6:54.977 19.085 74 100 11
14:12:31.2 54 91 5:04.878 25.978 55 105 11
14:17:23.0 55 93 4:51.810 27.141 54 106 11
14:22:09.8 56 95 4:46.791 27.616 54 107 11
14:27:14.0 57 97 5:04.188 26.037 60 104 10
14:32:17.8 58 99 5:03.838 26.067 55 105 11
14:37:23.0 59 101 5:05.201 25.950 58 105 13
14:42:35.2 60 102 5:12.231 25.366 58 104 10
14:50:21.9 61 105 7:46.668 16.971 80 113 10
14:55:26.2 62 107 5:04.269 26.030 56 116 11
15:00:12.3 63 108 4:46.128 27.680 62 115 9
15:04:55.3 64 110 4:43.023 27.984 59 113 10
15:09:38.8 65 112 4:43.462 27.940 58 115 11
15:15:48.6 66 114 6:09.812 21.416 71 105 9
15:20:56.5 67 116 5:07.863 25.726 46 100 9
15:28:09.4 68 118 7:12.923 18.294 82 103 10
15:38:50.4 69 121 10:40.990 12.356 70 119 10
15:44:00.7 70 122 5:10.291 25.524 48 112 9
15:50:11.5 71 124 6:10.808 21.359 51 112 9
15:57:08.0 72 126 6:56.504 19.015 64 120 8
16:00:42.1 73 127 3:34.158 36.982 47 113 9
16:04:25.9 74 129 3:43.774 35.393 47 115 9
133 - Overtaker Frankston PS - Junior
10:06:09.7 1 1 3:53.176 33.966 56 161 7
10:10:15.9 2 3 4:06.134 32.178 55 164 7
10:14:41.6 3 4 4:25.776 29.800 59 163 8
10:19:13.2 4 6 4:31.572 29.164 61 162 7
10:23:48.7 5 8 4:35.497 28.748 58 163 9
10:28:22.1 6 10 4:33.401 28.968 60 165 9
10:34:08.7 7 12 5:46.589 22.851 83 168 9
10:38:32.4 8 13 4:23.652 30.040 60 163 9
10:42:56.4 9 15 4:24.088 29.990 61 165 10
10:47:31.0 10 17 4:34.550 28.847 58 165 9
10:51:52.6 11 18 4:21.575 30.278 60 165 10
10:56:27.8 12 20 4:35.239 28.775 63 166 10
11:02:26.5 13 22 5:58.742 22.077 84 168 8
11:07:06.2 14 24 4:39.659 28.320 62 164 10
11:11:36.9 15 26 4:30.649 29.263 60 162 10
11:17:29.9 16 28 5:53.045 22.433 59 165 10
11:22:12.6 17 30 4:42.674 28.018 63 163 9
11:28:00.0 18 32 5:47.454 22.794 84 169 10
11:32:25.3 19 33 4:25.320 29.851 58 167 10
11:37:08.0 20 35 4:42.671 28.018 64 166 10
11:41:51.5 21 36 4:43.473 27.939 61 167 9
11:46:44.2 22 38 4:52.727 27.056 63 168 10
11:52:56.3 23 41 6:12.034 21.288 82 169 11
11:57:57.0 24 43 5:00.761 26.333 65 166 10
12:03:00.1 25 44 5:03.061 26.133 64 166 11
12:08:17.7 26 46 5:17.653 24.933 66 166 10
12:14:32.7 27 49 6:14.976 21.121 77 168 10
12:19:10.4 28 50 4:37.662 28.524 61 162 9
12:23:38.1 29 52 4:27.770 29.578 61 163 10
12:28:13.7 30 54 4:35.605 28.737 62 165 9
12:33:01.8 31 56 4:48.053 27.495 63 163 10
12:38:48.1 32 58 5:46.327 22.869 81 168 10
12:42:47.7 33 59 3:59.563 33.060 59 164 12
12:46:50.9 34 60 4:03.169 32.570 58 160 12
12:50:58.1 35 62 4:07.280 32.028 61 161 10
12:55:01.9 36 63 4:03.722 32.496 57 164 11
12:59:07.2 37 65 4:05.329 32.283 55 159 10
13:03:18.3 38 66 4:11.095 31.542 57 161 10
13:08:34.2 39 68 5:15.952 25.067 73 164 11
13:12:57.7 40 70 4:23.510 30.056 64 166 10
13:17:32.8 41 71 4:35.035 28.796 62 163 11
13:22:21.2 42 73 4:48.420 27.460 63 166 11
13:27:19.6 43 75 4:58.434 26.539 62 163 11
13:33:05.6 44 77 5:45.927 22.895 76 166 9
13:37:13.3 45 78 4:07.750 31.968 59 161 9
13:41:37.7 46 80 4:24.347 29.961 63 162 9
13:46:05.0 47 81 4:27.328 29.627 59 160 10
13:50:29.9 48 83 4:24.885 29.900 61 161 11
13:56:11.1 49 85 5:41.273 23.207 75 166 11
14:00:45.5 50 86 4:34.404 28.863 56 165 11
14:05:39.2 51 88 4:53.689 26.967 66 165 11
14:11:15.8 52 90 5:36.536 23.534 65 166 12
14:17:11.5 53 93 5:55.742 22.263 71 165 10
14:21:52.4 54 95 4:40.921 28.193 61 168 10
14:26:58.4 55 97 5:05.978 25.884 60 160 11
14:32:01.0 56 98 5:02.618 26.172 63 164 11
14:38:01.8 57 101 6:00.751 21.954 84 169 11
14:43:08.0 58 103 5:06.178 25.867 64 163 10
14:48:09.2 59 105 5:01.212 26.294 64 164 9
14:54:06.2 60 107 5:57.049 22.182 83 169 10
14:58:31.0 61 108 4:24.762 29.914 61 166 11
15:02:59.8 62 109 4:28.863 29.457 62 165 12
15:07:38.1 63 111 4:38.223 28.466 61 166 12
15:12:15.6 64 113 4:37.520 28.538 61 165 10
15:18:32.3 65 115 6:16.667 21.027 83 168 10
15:23:44.9 66 116 5:12.600 25.336 60 161 10
15:27:51.1 67 118 4:06.222 32.166 60 161 10
15:36:10.2 68 120 8:19.153 15.867 72 165 9
15:40:26.7 69 121 4:16.441 30.884 59 165 9
15:44:41.5 70 122 4:14.854 31.077 62 164 8
15:50:18.4 71 124 5:36.882 23.510 81 167 8
15:55:25.8 72 126 5:07.404 25.764 64 165 8
16:00:14.1 73 127 4:48.264 27.475 59 160 9
16:04:44.8 74 129 4:30.760 29.251 63 165 8
54 - Open Wizard Wonthaggi SC - Open
10:07:15.0 1 2 4:51.592 27.161 62 143 8
10:12:14.1 2 4 4:59.079 26.481 64 142 8
10:17:29.7 3 6 5:15.650 25.091 62 145 9
10:22:37.0 4 8 5:07.311 25.772 61 141 7
10:27:47.4 5 9 5:10.428 25.513 64 145 8
10:33:02.1 6 11 5:14.644 25.171 65 147 10
10:38:10.4 7 13 5:08.318 25.688 58 139 10
10:42:02.0 8 15 3:51.636 34.192 55 143 11
10:45:54.6 9 16 3:52.521 34.061 61 142 11
10:49:55.2 10 18 4:00.670 32.908 61 143 10
10:53:50.6 11 19 3:55.393 33.646 60 140 12
10:57:57.7 12 21 4:07.029 32.061 61 140 9
11:02:04.3 13 22 4:06.603 32.116 62 142 8
11:09:12.7 14 25 7:08.444 18.485 63 148 8
11:14:45.3 15 27 5:32.623 23.811 63 148 10
11:20:27.7 16 29 5:42.372 23.133 59 141 9
11:25:51.9 17 31 5:24.241 24.426 66 138 11
11:32:16.3 18 33 6:24.384 20.604 60 143 11
11:37:17.0 19 35 5:00.637 26.344 66 146 10
11:42:40.7 20 37 5:23.721 24.466 65 142 10
11:47:30.8 21 39 4:50.109 27.300 57 137 11
11:52:14.3 22 40 4:43.495 27.937 64 142 11
11:58:50.2 23 43 6:35.897 20.005 62 144 10
12:04:21.0 24 45 5:30.779 23.943 68 146 11
12:10:17.2 25 47 5:56.268 22.230 67 146 10
12:16:27.1 26 49 6:09.868 21.413 60 145 10
12:21:02.1 27 51 4:35.039 28.796 63 144 9
12:25:47.6 28 53 4:45.461 27.745 61 145 10
12:31:05.4 29 55 5:17.770 24.924 67 142 10
12:36:31.5 30 57 5:26.119 24.286 64 142 9
12:42:34.5 31 59 6:03.066 21.814 58 142 13
12:46:43.8 32 60 4:09.266 31.773 59 138 11
12:51:02.2 33 62 4:18.364 30.654 62 143 10
12:55:17.2 34 63 4:15.070 31.050 60 138 10
12:59:39.3 35 65 4:22.032 30.225 60 140 10
13:04:05.9 36 66 4:26.668 29.700 60 142 12
13:08:32.5 37 68 4:26.561 29.712 59 140 11
13:15:13.0 38 70 6:40.502 19.775 62 140 11
13:19:44.7 39 72 4:31.731 29.146 60 141 12
13:24:37.1 40 74 4:52.350 27.091 62 141 11
13:29:22.3 41 75 4:45.207 27.769 58 143 11
13:34:25.6 42 77 5:03.322 26.111 58 140 9
13:39:38.7 43 79 5:13.098 25.296 53 132 10
13:43:15.8 44 80 3:37.106 36.480 56 136 10
13:47:22.2 45 82 4:06.357 32.148 58 135 10
13:51:10.6 46 83 3:48.410 34.674 57 137 11
13:55:00.1 47 84 3:49.477 34.513 58 138 13
13:59:03.1 48 86 4:03.011 32.591 60 141 11
14:03:04.8 49 87 4:01.702 32.768 57 139 11
14:10:24.5 50 90 7:19.701 18.012 66 144 11
14:15:37.3 51 92 5:12.790 25.321 60 143 11
14:21:11.2 52 94 5:33.946 23.716 66 147 10
14:26:58.4 53 97 5:47.194 22.811 62 147 11
14:31:49.1 54 98 4:50.668 27.248 59 147 12
14:38:12.8 55 101 6:23.671 20.643 59 137 11
14:43:01.8 56 103 4:49.010 27.404 66 141 10
14:47:57.7 57 105 4:55.963 26.760 61 141 12
14:52:17.1 58 106 4:19.371 30.535 63 139 10
14:57:12.0 59 108 4:54.899 26.857 64 145 10
15:01:47.9 60 109 4:35.932 28.703 63 142 13
15:08:20.8 61 111 6:32.905 20.158 62 144 11
15:13:56.7 62 113 5:35.896 23.579 62 144 10
15:19:52.6 63 115 5:55.844 22.257 74 146 10
15:26:23.2 64 117 6:30.674 20.273 59 143 10
15:31:05.6 65 119 4:42.332 28.052 62 137 9
15:36:49.5 66 120 5:43.876 23.032 64 140 9
15:42:08.5 67 122 5:19.063 24.823 63 140 9
15:48:11.5 68 123 6:02.958 21.821 63 140 8
15:52:15.3 69 125 4:03.830 32.482 58 138 9
15:56:25.8 70 126 4:10.493 31.618 63 140 10
16:00:53.9 71 127 4:28.141 29.537 57 138 9
16:05:19.1 72 129 4:25.183 29.866 57 138 9
110 - Elmo Berwick PS - Junior
10:07:20.4 1 2 4:59.724 26.424 64 153 7
10:12:07.6 2 3 4:47.253 27.572 60 154 7
10:16:59.3 3 5 4:51.631 27.158 62 154 10
10:21:54.6 4 7 4:55.345 26.816 60 154 8
10:28:02.6 5 9 6:07.983 21.523 84 158 9
10:32:28.0 6 11 4:25.410 29.841 60 153 9
10:36:55.1 7 13 4:27.112 29.650 60 155 11
10:41:17.1 8 14 4:22.043 30.224 62 159 10
10:45:45.2 9 16 4:28.089 29.542 62 159 10
10:52:19.7 10 19 6:34.427 20.080 84 163 10
10:58:52.6 11 21 6:32.911 20.157 71 166 9
11:04:48.5 12 23 5:55.959 22.250 69 158 10
11:11:11.2 13 26 6:22.657 20.697 69 159 9
11:19:29.5 14 29 8:18.342 15.893 83 159 9
11:24:33.9 15 31 5:04.363 26.022 64 154 10
11:29:45.1 16 32 5:11.190 25.451 64 155 10
11:35:00.2 17 34 5:15.141 25.132 64 156 11
11:41:48.1 18 36 6:47.870 19.418 76 156 11
11:46:31.6 19 38 4:43.543 27.932 62 157 8
11:50:57.4 20 40 4:25.771 29.800 61 158 10
11:55:28.2 21 42 4:30.800 29.247 61 158 10
12:01:50.6 22 44 6:22.388 20.712 83 159 10
12:06:01.6 23 46 4:11.015 31.552 59 157 10
12:10:31.9 24 47 4:30.305 29.300 57 156 10
12:15:13.8 25 49 4:41.833 28.102 58 157 10
12:19:44.4 26 51 4:30.629 29.265 61 154 10
12:24:27.8 27 52 4:43.378 27.949 60 154 10
12:30:46.4 28 55 6:18.670 20.915 84 160 10
12:35:35.8 29 56 4:49.365 27.370 61 160 10
12:40:00.3 30 58 4:24.460 29.948 60 157 10
12:44:26.2 31 60 4:25.953 29.780 58 157 11
12:48:49.1 32 61 4:22.931 30.122 60 154 10
12:55:10.3 33 63 6:21.143 20.780 79 160 10
13:00:00.8 34 65 4:50.506 27.263 60 160 10
13:04:19.7 35 66 4:18.937 30.587 64 157 11
13:08:32.0 36 68 4:12.241 31.399 58 155 11
13:14:06.0 37 70 5:34.003 23.712 84 158 11
13:18:45.8 38 72 4:39.842 28.302 60 153 11
13:23:25.8 39 73 4:39.979 28.288 63 153 10
13:29:50.6 40 76 6:24.819 20.581 78 157 10
13:34:01.1 41 77 4:10.506 31.616 59 154 9
13:38:25.7 42 79 4:24.605 29.931 60 154 9
13:44:22.1 43 81 5:56.386 22.223 84 159 10
13:49:44.6 44 83 5:22.486 24.559 62 156 11
13:54:43.8 45 84 4:59.242 26.467 61 159 12
13:59:51.7 46 86 5:07.818 25.729 63 155 11
14:06:32.9 47 89 6:41.203 19.741 84 158 10
14:11:23.7 48 91 4:50.803 27.235 58 152 11
14:16:11.2 49 92 4:47.555 27.543 61 156 10
14:21:19.1 50 94 5:07.935 25.720 62 156 12
14:28:25.7 51 97 7:06.601 18.565 74 155 13
14:32:56.8 52 99 4:31.086 29.216 58 153 12
14:37:26.2 53 101 4:29.403 29.398 62 153 13
14:41:57.2 54 102 4:30.915 29.234 61 155 10
14:48:16.8 55 105 6:19.670 20.860 79 157 11
14:53:05.7 56 106 4:48.854 27.419 59 155 10
14:57:50.2 57 108 4:44.553 27.833 66 157 11
15:02:27.6 58 109 4:37.382 28.553 63 154 11
15:07:54.9 59 111 5:27.316 24.197 61 155 12
15:14:23.8 60 114 6:28.832 20.369 84 158 10
15:20:00.4 61 115 5:36.673 23.524 78 157 10
15:25:01.4 62 117 5:00.949 26.317 60 155 10
15:29:46.8 63 118 4:45.370 27.753 64 154 10
15:36:27.6 64 120 6:40.837 19.759 62 150 10
15:43:18.9 65 122 6:51.280 19.257 84 158 8
15:47:54.6 66 123 4:35.734 28.723 67 152 8
15:52:02.3 67 125 4:07.709 31.973 60 149 9
15:56:14.3 68 126 4:12.028 31.425 62 161 9
16:00:33.5 69 127 4:19.201 30.555 57 156 9
16:04:49.7 70 129 4:16.204 30.913 61 154 8
129 - Eat It Woodleigh School - Junior
10:06:21.3 1 1 3:49.057 34.577 56 171 7
10:10:21.5 2 3 4:00.211 32.971 58 171 7
10:14:19.2 3 4 3:57.704 33.319 57 169 8
10:18:14.7 4 6 3:55.491 33.632 55 167 8
10:22:09.9 5 7 3:55.153 33.680 57 168 9
10:26:02.0 6 9 3:52.145 34.117 57 170 8
10:30:01.6 7 10 3:59.577 33.058 53 166 8
10:36:48.6 8 13 6:47.042 19.457 61 171 10
10:42:05.0 9 15 5:16.402 25.031 62 173 11
10:47:21.3 10 17 5:16.238 25.044 63 170 10
10:52:53.1 11 19 5:31.806 23.869 63 171 10
10:58:32.2 12 21 5:39.165 23.351 67 173 8
11:04:10.7 13 23 5:38.461 23.400 67 174 9
11:10:10.2 14 25 5:59.470 22.032 62 176 10
11:15:16.3 15 27 5:06.156 25.869 64 177 10
11:20:23.4 16 29 5:07.059 25.793 64 174 9
11:25:33.4 17 31 5:10.052 25.544 62 174 11
11:30:56.0 18 33 5:22.550 24.554 62 172 10
11:36:06.5 19 35 5:10.488 25.508 64 176 11
11:43:19.6 20 37 7:13.082 18.288 61 173 10
11:47:57.2 21 39 4:37.618 28.528 58 170 10
11:52:30.7 22 41 4:33.559 28.952 60 169 10
11:57:11.3 23 42 4:40.608 28.224 58 170 10
12:01:53.6 24 44 4:42.219 28.063 63 175 11
12:06:46.4 25 46 4:52.855 27.044 64 176 12
12:11:33.0 26 48 4:46.573 27.637 60 167 10
12:16:32.1 27 49 4:59.126 26.477 55 167 11
12:22:52.9 28 52 6:20.821 20.797 60 174 11
12:27:33.1 29 54 4:40.203 28.265 61 173 10
12:32:24.8 30 55 4:51.711 27.150 61 172 10
12:37:20.6 31 57 4:55.714 26.783 62 175 9
12:42:14.4 32 59 4:53.807 26.956 62 173 12
12:47:12.7 33 61 4:58.324 26.548 63 175 13
12:52:46.5 34 62 5:33.817 23.726 58 174 10
12:57:31.6 35 64 4:45.109 27.779 63 172 11
13:02:23.1 36 66 4:51.492 27.171 61 177 10
13:07:29.1 37 68 5:06.004 25.882 63 174 11
13:12:38.0 38 70 5:08.893 25.640 66 177 11
13:17:48.4 39 71 5:10.437 25.512 62 174 11
13:22:52.2 40 73 5:03.743 26.075 56 166 11
13:26:49.1 41 75 3:56.897 33.432 56 172 10
13:30:47.4 42 76 3:58.336 33.230 57 169 10
13:34:42.7 43 77 3:55.258 33.665 56 169 9
13:38:38.5 44 79 3:55.856 33.580 56 170 9
13:42:35.1 45 80 3:56.590 33.476 57 167 10
13:46:40.2 46 82 4:05.096 32.314 56 168 9
13:50:49.4 47 83 4:09.197 31.782 58 168 11
13:58:39.4 48 86 7:49.997 16.851 63 173 11
14:04:14.4 49 88 5:34.997 23.642 64 174 11
14:10:14.6 50 90 6:00.229 21.986 68 174 11
14:17:05.8 51 93 6:51.206 19.260 65 174 10
14:23:00.3 52 95 5:54.504 22.341 68 176 11
14:29:01.4 53 97 6:01.013 21.938 66 177 11
14:34:40.9 54 99 5:39.512 23.328 62 173 11
14:40:33.2 55 102 5:52.344 22.478 62 169 10
14:45:46.2 56 104 5:12.971 25.306 67 175 10
14:51:03.1 57 106 5:16.950 24.988 61 172 10
14:56:24.5 58 108 5:21.408 24.642 64 175 10
15:02:01.8 59 109 5:37.239 23.485 72 177 11
15:09:39.7 60 112 7:37.913 17.296 61 174 11
15:14:37.5 61 114 4:57.776 26.597 62 173 10
15:19:53.9 62 115 5:16.467 25.026 69 172 10
15:26:42.9 63 117 6:48.955 19.366 62 173 10
15:31:42.4 64 119 4:59.551 26.440 64 173 10
15:37:27.6 65 120 5:45.102 22.950 64 172 9
15:42:37.9 66 122 5:10.333 25.521 64 171 8
15:49:00.5 67 124 6:22.638 20.698 63 174 9
15:54:23.9 68 125 5:23.411 24.489 66 176 9
15:59:43.1 69 127 5:19.182 24.813 61 170 9
16:04:56.4 70 129 5:13.284 25.281 61 173 9
117 - Bert Weeroona C - Middle
10:07:22.4 1 2 4:46.988 27.597 64 111 7
10:12:00.8 2 3 4:38.464 28.442 62 109 7
10:16:26.8 3 5 4:25.949 29.780 63 109 8
10:20:48.7 4 7 4:21.946 30.235 63 112 7
10:25:22.5 5 9 4:33.726 28.934 64 112 7
10:30:03.1 6 10 4:40.644 28.221 64 113 8
10:36:40.3 7 13 6:37.216 19.939 80 110 10
10:40:58.9 8 14 4:18.613 30.625 61 112 10
10:45:15.0 9 16 4:16.087 30.927 60 115 11
10:49:40.9 10 18 4:25.935 29.782 60 109 11
10:54:02.4 11 19 4:21.489 30.288 59 114 11
10:58:45.7 12 21 4:43.269 27.959 63 116 11
11:03:32.8 13 23 4:47.052 27.591 62 115 10
11:10:02.9 14 25 6:30.135 20.301 83 111 10
11:15:58.6 15 27 5:55.749 22.263 62 117 10
11:21:41.9 16 29 5:43.247 23.074 68 117 11
11:30:32.3 17 33 8:50.438 14.931 79 108 9
11:35:43.4 18 35 5:11.122 25.456 64 113 11
11:40:26.5 19 36 4:43.014 27.984 52 115 10
11:44:54.1 20 38 4:27.669 29.589 62 113 11
11:49:40.3 21 39 4:46.156 27.677 59 120 10
11:55:05.6 22 41 5:25.358 24.342 64 121 10
12:06:14.7 23 46 11:09.043 11.838 80 108 10
12:12:45.8 24 48 6:31.111 20.250 64 116 9
12:18:56.5 25 50 6:10.740 21.363 68 116 9
12:25:17.0 26 53 6:20.436 20.818 62 111 10
12:32:14.7 27 55 6:57.695 18.961 71 116 10
12:41:33.0 28 59 9:18.346 14.185 82 110 10
12:46:41.4 29 60 5:08.348 25.685 60 115 11
12:51:36.8 30 62 4:55.408 26.810 61 115 10
12:56:07.8 31 63 4:31.001 29.225 57 114 10
13:00:34.8 32 65 4:27.006 29.662 57 113 10
13:05:09.9 33 67 4:35.124 28.787 59 115 11
13:09:50.5 34 68 4:40.588 28.226 58 115 11
13:16:34.9 35 71 6:44.430 19.583 83 110 11
13:22:06.2 36 73 5:31.329 23.904 59 115 11
13:26:42.4 37 75 4:36.118 28.683 60 114 10
13:31:33.2 38 76 4:50.873 27.228 60 113 9
13:36:32.7 39 78 4:59.477 26.446 61 118 11
13:44:57.9 40 81 8:25.206 15.677 83 109 11
13:48:27.9 41 82 3:29.946 37.724 55 106 10
13:51:57.7 42 84 3:29.850 37.741 53 109 11
13:55:34.6 43 84 3:36.834 36.526 55 108 13
13:59:21.7 44 86 3:47.150 34.867 58 111 11
14:03:09.4 45 87 3:47.729 34.778 56 112 10
14:07:11.3 46 89 4:01.842 32.749 57 111 11
14:12:42.4 47 91 5:31.158 23.916 79 107 11
14:17:02.6 48 93 4:20.217 30.436 60 110 10
14:21:31.9 49 94 4:29.218 29.419 61 113 10
14:27:35.7 50 97 6:03.867 21.766 72 106 10
14:31:44.9 51 98 4:09.137 31.790 55 112 10
14:36:04.1 52 100 4:19.181 30.558 60 111 10
14:42:05.3 53 102 6:01.247 21.924 81 106 11
14:47:30.0 54 104 5:24.711 24.391 62 114 8
14:52:35.3 55 106 5:05.313 25.941 62 116 11
14:58:02.2 56 108 5:26.879 24.229 65 116 11
15:04:33.1 57 110 6:30.869 20.263 71 107 11
15:08:46.1 58 111 4:13.022 31.302 60 107 10
15:12:40.3 59 113 3:54.167 33.822 58 108 10
15:16:49.8 60 114 4:09.582 31.733 54 113 10
15:22:48.9 61 116 5:59.032 22.059 81 109 10
15:32:40.9 62 119 9:51.980 13.379 83 110 8
15:39:45.8 63 121 7:04.924 18.639 84 109 10
15:46:07.4 64 123 6:21.603 20.755 78 107 8
15:49:54.2 65 124 3:46.804 34.920 55 113 8
15:53:55.1 66 125 4:00.899 32.877 50 112 9
15:57:24.9 67 126 3:29.788 37.752 56 110 9
16:01:30.9 68 128 4:06.052 32.188 56 113 10
16:05:40.8 69 129 4:09.864 31.697 54 111 9
89 - Andromeda SMS/BGS - Junior
10:07:53.6 1 2 5:25.095 24.362 70 170 8
10:13:41.1 2 4 5:47.504 22.791 72 167 7
10:19:43.6 3 6 6:02.478 21.850 69 167 9
10:27:00.5 4 9 7:16.860 18.129 84 170 8
10:32:10.6 5 11 5:10.137 25.537 68 166 8
10:37:26.6 6 13 5:15.942 25.068 67 169 9
10:42:29.8 7 15 5:03.196 26.122 67 167 9
10:48:51.9 8 17 6:22.194 20.722 79 168 10
10:53:21.0 9 19 4:29.042 29.438 65 167 10
10:58:09.8 10 21 4:48.791 27.425 68 168 11
11:03:06.3 11 23 4:56.494 26.712 70 169 10
11:08:09.8 12 24 5:03.498 26.096 67 167 9
11:13:01.8 13 26 4:52.067 27.117 61 168 10
11:19:17.5 14 29 6:15.620 21.085 71 166 10
11:24:05.1 15 30 4:47.633 27.535 67 169 10
11:31:11.2 16 33 7:06.096 18.587 83 171 10
11:36:07.5 17 35 4:56.329 26.727 66 169 11
11:41:25.9 18 36 5:18.426 24.872 66 169 10
11:47:57.5 19 39 6:31.594 20.225 77 169 10
11:52:17.9 20 40 4:20.373 30.418 66 167 10
11:56:54.9 21 42 4:36.986 28.594 65 166 10
12:01:28.9 22 44 4:34.041 28.901 68 170 11
12:06:11.5 23 46 4:42.560 28.029 66 167 10
12:11:58.2 24 48 5:46.698 22.844 73 167 9
12:16:32.0 25 49 4:33.787 28.928 65 166 11
12:21:22.5 26 51 4:50.470 27.266 69 167 10
12:26:19.0 27 53 4:56.506 26.711 67 166 10
12:33:09.9 28 56 6:50.909 19.274 81 169 10
12:39:11.0 29 58 6:01.123 21.932 69 169 11
12:44:55.7 30 60 5:44.727 22.975 72 170 12
12:51:50.2 31 62 6:54.499 19.107 80 168 10
12:56:57.8 32 64 5:07.598 25.748 64 165 10
13:02:08.8 33 66 5:11.016 25.465 65 164 10
13:08:11.3 34 68 6:02.433 21.852 71 164 11
13:13:12.0 35 70 5:00.748 26.334 70 169 11
13:18:08.1 36 71 4:56.075 26.750 66 167 11
13:22:59.3 37 73 4:51.222 27.196 66 167 12
13:28:08.7 38 75 5:09.406 25.597 67 168 10
13:33:59.1 39 77 5:50.392 22.603 84 171 9
13:39:19.2 40 79 5:20.062 24.745 69 169 11
13:45:06.1 41 81 5:46.913 22.830 73 168 10
13:50:50.9 42 83 5:44.826 22.968 67 167 11
13:56:50.3 43 85 5:59.397 22.037 73 167 11
14:01:28.7 44 87 4:38.367 28.452 65 169 11
14:06:17.0 45 89 4:48.377 27.464 64 167 10
14:11:01.7 46 90 4:44.603 27.828 65 169 10
14:15:59.2 47 92 4:57.570 26.616 67 165 11
14:20:56.2 48 94 4:57.012 26.666 66 167 11
14:26:37.3 49 96 5:41.069 23.221 73 167 12
14:31:22.0 50 98 4:44.680 27.821 71 171 11
14:36:45.5 51 100 5:23.539 24.479 70 171 11
14:41:47.5 52 102 5:01.964 26.228 71 170 11
14:48:10.8 53 105 6:23.340 20.661 72 166 9
14:52:44.2 54 106 4:33.372 28.972 64 165 10
14:57:15.1 55 108 4:30.926 29.233 66 169 10
15:01:58.2 56 109 4:43.057 27.980 70 170 12
15:07:58.8 57 111 6:00.660 21.960 79 168 12
15:12:43.7 58 113 4:44.848 27.804 63 162 10
15:17:41.1 59 115 4:57.398 26.631 71 169 10
15:23:44.7 60 116 6:03.570 21.784 79 168 10
15:29:09.3 61 118 5:24.634 24.397 66 167 9
15:36:24.4 62 120 7:15.087 18.203 63 161 10
15:42:11.7 63 122 5:47.365 22.800 78 168 8
15:47:03.0 64 123 4:51.268 27.191 69 166 9
15:51:53.9 65 125 4:50.902 27.226 67 166 9
15:56:51.9 66 126 4:58.032 26.574 66 166 9
16:01:45.3 67 128 4:53.314 27.002 66 166 9
16:06:29.9 68 129 4:44.667 27.822 63 166 8
106 - Gecko 2 Gecko R Seymour - Vet
10:07:19.8 1 2 5:04.040 26.049 64 161 7
10:14:09.2 2 4 6:49.361 19.347 78 163 7
10:18:55.4 3 6 4:46.165 27.676 66 160 9
10:23:49.2 4 8 4:53.863 26.951 66 160 9
10:28:40.2 5 10 4:50.987 27.218 66 161 8
10:35:00.4 6 12 6:20.220 20.830 82 165 11
10:40:05.2 7 14 5:04.712 25.992 65 162 10
10:45:14.2 8 16 5:09.084 25.624 66 162 11
10:50:22.0 9 18 5:07.763 25.734 66 162 10
10:55:43.3 10 20 5:21.335 24.647 68 162 10
11:00:56.1 11 22 5:12.720 25.326 68 162 10
11:07:38.2 12 24 6:42.120 19.696 80 165 9
11:12:28.8 13 26 4:50.653 27.249 63 154 9
11:17:48.8 14 28 5:19.962 24.753 67 155 10
11:22:57.7 15 30 5:08.883 25.641 66 157 9
11:28:18.5 16 32 5:20.831 24.686 66 156 10
11:33:35.2 17 34 5:16.744 25.004 68 157 10
11:40:19.4 18 36 6:44.139 19.597 83 166 10
11:45:58.4 19 38 5:39.009 23.362 63 155 10
11:51:00.2 20 40 5:01.766 26.246 62 153 10
11:55:58.2 21 42 4:58.044 26.573 62 153 10
12:00:47.3 22 44 4:49.081 27.397 63 154 10
12:05:41.8 23 45 4:54.556 26.888 65 154 10
12:10:42.7 24 47 5:00.834 26.327 61 154 10
12:17:14.1 25 50 6:31.437 20.233 76 162 9
12:21:32.7 26 51 4:18.573 30.630 64 153 10
12:26:09.4 27 53 4:36.673 28.626 64 153 11
12:31:02.6 28 55 4:53.252 27.007 63 153 10
12:35:56.7 29 57 4:54.105 26.929 63 153 9
12:41:01.5 30 58 5:04.802 25.984 67 155 10
12:46:04.1 31 60 5:02.624 26.171 63 153 12
12:52:27.0 32 62 6:22.825 20.688 78 164 11
12:57:33.2 33 64 5:06.282 25.859 66 159 11
13:02:19.1 34 66 4:45.828 27.709 62 159 10
13:07:00.7 35 67 4:41.592 28.126 65 159 11
13:11:59.8 36 69 4:59.152 26.475 64 160 10
13:16:59.7 37 71 4:59.841 26.414 67 161 10
13:22:01.6 38 73 5:01.942 26.230 65 158 11
13:28:29.0 39 75 6:27.355 20.446 81 164 9
13:33:46.4 40 77 5:17.449 24.949 65 161 9
13:38:58.5 41 79 5:12.073 25.379 65 161 10
13:44:08.7 42 81 5:10.192 25.533 64 160 9
13:49:24.4 43 83 5:15.763 25.082 64 160 11
13:54:51.2 44 84 5:26.743 24.239 67 161 11
14:02:02.3 45 87 7:11.128 18.370 82 165 11
14:07:13.6 46 89 5:11.335 25.439 63 154 11
14:12:36.5 47 91 5:22.838 24.532 64 154 11
14:17:57.4 48 93 5:20.891 24.681 64 156 11
14:23:38.4 49 95 5:41.043 23.223 66 154 11
14:29:18.1 50 97 5:39.712 23.314 67 155 11
14:34:54.9 51 100 5:36.768 23.518 66 158 11
14:41:57.0 52 102 7:02.106 18.763 79 163 10
14:47:05.4 53 104 5:08.366 25.684 63 153 8
14:51:48.3 54 106 4:42.925 27.993 61 157 11
14:56:36.5 55 108 4:48.214 27.480 61 159 10
15:01:24.9 56 109 4:48.408 27.461 63 152 10
15:06:28.4 57 111 5:03.439 26.101 64 153 11
15:11:40.6 58 113 5:12.240 25.365 65 156 10
15:18:27.4 59 115 6:46.833 19.467 80 163 10
15:23:20.7 60 116 4:53.267 27.006 67 156 10
15:29:05.2 61 118 5:44.552 22.986 66 156 9
15:38:26.0 62 120 9:20.770 14.123 81 165 10
15:43:38.9 63 122 5:12.847 25.316 67 157 9
15:48:45.7 64 123 5:06.882 25.808 66 157 8
15:53:51.3 65 125 5:05.606 25.916 68 158 9
15:58:47.9 66 127 4:56.589 26.704 64 157 9
16:03:49.9 67 128 5:02.002 26.225 66 159 9
16:08:58.1 68 129 5:08.153 25.702 69 159 8
137 - Sola Fida B Hillcrest - Middle
10:06:47.6 1 1 4:16.519 30.875 60 134 7
10:10:54.0 2 3 4:06.377 32.146 61 138 7
10:15:11.2 3 5 4:17.217 30.791 60 134 7
10:19:35.4 4 6 4:24.197 29.978 62 137 8
10:23:59.6 5 8 4:24.121 29.986 60 130 8
10:28:25.0 6 10 4:25.427 29.839 61 135 11
10:35:11.8 7 12 6:46.806 19.469 80 143 11
10:40:03.9 8 14 4:52.134 27.111 60 132 10
10:44:36.7 9 16 4:32.787 29.034 64 132 9
10:49:37.4 10 18 5:00.728 26.336 64 131 11
10:54:47.2 11 19 5:09.738 25.570 62 130 10
11:01:37.8 12 22 6:50.578 19.290 84 148 9
11:06:16.2 13 24 4:38.471 28.441 61 134 9
11:11:01.2 14 25 4:45.012 27.788 62 136 10
11:15:58.2 15 27 4:56.962 26.670 63 132 10
11:20:40.0 16 29 4:41.805 28.105 61 136 10
11:27:13.2 17 31 6:33.165 20.144 84 146 10
11:33:03.1 18 34 5:49.901 22.635 68 137 11
11:39:05.5 19 36 6:02.402 21.854 66 140 11
11:47:39.7 20 39 8:34.201 15.403 83 150 10
11:51:54.3 21 40 4:14.655 31.101 62 130 11
11:56:17.3 22 42 4:22.946 30.120 62 131 10
12:00:44.3 23 44 4:27.001 29.663 62 131 10
12:12:14.1 24 48 11:29.870 11.480 78 146 10
12:18:12.7 25 50 5:58.507 22.092 69 139 9
12:24:44.3 26 53 6:31.633 20.223 68 142 9
12:32:42.5 27 55 7:58.223 16.561 83 148 10
12:37:13.7 28 57 4:31.234 29.200 60 132 10
12:41:51.4 29 59 4:37.673 28.523 63 136 11
12:46:38.2 30 60 4:46.821 27.613 63 136 11
12:51:31.7 31 62 4:53.445 26.990 64 138 9
12:56:29.8 32 64 4:58.128 26.566 61 140 10
13:01:40.2 33 65 5:10.406 25.515 62 137 12
13:08:03.0 34 68 6:22.816 20.689 84 146 13
13:13:23.3 35 70 5:20.254 24.730 63 136 11
13:18:54.3 36 72 5:30.974 23.929 67 138 11
13:26:32.9 37 74 7:38.597 17.270 84 147 10
13:31:45.6 38 76 5:12.727 25.326 66 132 8
13:36:30.1 39 78 4:44.548 27.834 62 132 11
13:41:13.7 40 80 4:43.552 27.931 62 131 10
13:48:25.7 41 82 7:11.990 18.334 83 147 11
13:52:47.2 42 84 4:21.558 30.280 59 131 11
13:56:56.4 43 85 4:09.155 31.787 60 136 12
14:01:06.1 44 87 4:09.693 31.719 60 132 11
14:05:36.5 45 88 4:30.468 29.283 59 130 11
14:10:04.5 46 90 4:27.913 29.562 62 133 11
14:15:00.8 47 92 4:56.362 26.724 63 131 11
14:20:00.7 48 94 4:59.923 26.407 64 132 11
14:26:01.7 49 96 6:01.001 21.939 83 146 11
14:30:32.9 50 98 4:31.195 29.204 65 134 12
14:35:12.2 51 100 4:39.286 28.358 60 130 13
14:39:52.7 52 101 4:40.442 28.241 63 132 10
14:44:47.2 53 103 4:54.496 26.893 65 133 10
14:51:41.9 54 106 6:54.752 19.096 84 148 11
14:58:15.4 55 108 6:33.485 20.128 73 137 11
15:05:00.9 56 110 6:45.475 19.533 70 137 10
15:11:53.7 57 113 6:52.797 19.186 71 136 11
15:20:55.6 58 116 9:01.928 14.614 84 148 9
15:27:59.8 59 118 7:04.159 18.672 70 137 9
15:38:17.1 60 120 10:17.379 12.828 84 148 10
15:43:36.4 61 122 5:19.308 24.804 77 142 9
15:47:33.0 62 123 3:56.585 33.476 59 134 8
15:51:23.4 63 124 3:50.357 34.381 59 130 9
15:55:13.8 64 126 3:50.414 34.373 57 128 10
15:59:11.6 65 127 3:57.761 33.311 58 131 8
16:03:14.2 66 128 4:02.667 32.637 58 134 8
16:07:23.5 67 129 4:09.238 31.777 61 131 9
2 - Red Rocket Tooradin PS - Junior
10:07:48.9 1 2 5:08.025 25.712 72 174 8
10:12:52.9 2 4 5:04.030 26.050 70 171 7
10:18:03.3 3 6 5:10.380 25.517 71 171 9
10:23:16.0 4 8 5:12.757 25.323 65 171 8
10:28:55.8 5 10 5:39.794 23.308 75 171 9
10:34:52.4 6 12 5:56.575 22.211 68 175 10
10:39:43.9 7 14 4:51.503 27.170 72 174 10
10:44:44.1 8 16 5:00.148 26.387 70 175 10
10:49:48.4 9 18 5:04.328 26.025 71 177 9
10:54:52.3 10 20 5:03.911 26.060 73 175 10
11:00:03.8 11 21 5:11.556 25.421 71 176 9
11:05:21.6 12 23 5:17.784 24.923 71 175 9
11:11:31.3 13 26 6:09.641 21.426 65 177 10
11:16:26.6 14 27 4:55.294 26.821 72 174 10
11:21:34.4 15 29 5:07.808 25.730 67 173 11
11:26:46.7 16 31 5:12.284 25.362 69 176 10
11:32:25.1 17 33 5:38.400 23.404 74 175 10
11:38:12.1 18 36 5:47.029 22.822 69 175 11
11:43:00.1 19 37 4:48.005 27.500 70 174 11
11:47:55.7 20 39 4:55.593 26.794 72 172 10
11:52:52.8 21 41 4:57.070 26.660 71 173 11
11:57:55.8 22 43 5:03.052 26.134 69 173 10
12:02:58.8 23 44 5:02.967 26.141 72 176 11
12:08:15.1 24 46 5:16.349 25.036 75 172 10
12:13:39.7 25 48 5:24.600 24.399 67 173 9
12:19:05.1 26 50 5:25.327 24.345 73 178 10
12:24:18.6 27 52 5:13.505 25.263 71 177 9
12:31:01.4 28 55 6:42.795 19.663 73 178 10
12:37:13.9 29 57 6:12.514 21.261 77 178 10
12:42:53.0 30 59 5:39.171 23.351 76 180 11
12:49:50.9 31 61 6:57.840 18.955 75 179 10
12:58:30.1 32 64 8:39.227 15.253 77 179 11
13:05:41.5 33 67 7:11.442 18.357 77 179 11
13:13:03.1 34 70 7:21.518 17.938 79 179 10
13:19:24.1 35 72 6:21.070 20.784 72 175 11
13:24:27.9 36 74 5:03.770 26.072 71 175 11
13:30:36.5 37 76 6:08.579 21.488 74 173 11
13:35:54.7 38 78 5:18.184 24.891 71 175 10
13:41:31.3 39 80 5:36.628 23.527 75 177 10
13:47:00.6 40 82 5:29.354 24.047 71 177 10
13:53:10.4 41 84 6:09.709 21.422 76 177 11
13:59:16.0 42 86 6:05.636 21.661 66 176 11
14:04:10.4 43 88 4:54.452 26.897 71 172 11
14:09:12.7 44 90 5:02.208 26.207 69 175 10
14:14:23.9 45 92 5:11.228 25.448 65 175 10
14:19:21.7 46 94 4:57.848 26.591 66 174 10
14:24:31.7 47 96 5:09.932 25.554 71 176 10
14:30:41.2 48 98 6:09.545 21.432 65 176 13
14:36:18.4 49 100 5:37.239 23.485 72 174 12
14:42:05.7 50 102 5:47.281 22.806 73 175 11
14:48:30.1 51 105 6:24.359 20.606 75 178 12
14:55:00.4 52 107 6:30.361 20.289 70 174 10
15:00:11.5 53 108 5:11.050 25.462 71 177 9
15:05:37.3 54 110 5:25.831 24.307 55 179 10
15:10:59.9 55 112 5:22.546 24.555 71 175 11
15:18:15.8 56 115 7:15.930 18.168 76 179 10
15:24:57.9 57 117 6:42.125 19.695 76 177 10
15:38:40.3 58 120 13:42.332 9.631 76 176 10
15:45:14.0 59 122 6:33.761 20.114 77 178 8
15:51:01.3 60 124 5:47.228 22.809 68 174 9
15:55:48.9 61 126 4:47.637 27.535 70 175 9
16:00:49.5 62 127 5:00.660 26.342 69 172 9
16:05:54.7 63 129 5:05.183 25.952 70 174 8
63 - Old Mozzies Tooradin PS - Comm
10:08:19.8 1 2 5:24.559 24.402 68 173 8
10:14:35.6 2 4 6:15.803 21.075 71 174 7
10:20:55.3 3 7 6:19.613 20.863 73 174 8
10:28:16.7 4 9 7:21.461 17.940 67 170 9
10:33:05.3 5 11 4:48.632 27.440 66 171 10
10:37:50.4 6 13 4:45.023 27.787 62 173 10
10:42:40.1 7 15 4:49.743 27.335 66 172 9
10:47:46.9 8 17 5:06.800 25.815 65 173 10
10:52:37.6 9 19 4:50.700 27.245 60 172 10
10:57:18.0 10 20 4:40.392 28.246 64 173 9
11:02:00.4 11 22 4:42.371 28.048 64 173 8
11:06:38.9 12 24 4:38.501 28.438 63 172 10
11:11:22.5 13 26 4:43.642 27.923 61 173 10
11:16:05.3 14 27 4:42.751 28.011 64 172 10
11:20:26.1 15 29 4:20.788 30.369 61 169 9
11:27:41.1 16 32 7:15.002 18.207 72 175 10
11:33:57.8 17 34 6:16.708 21.024 70 176 12
11:40:19.5 18 36 6:21.700 20.749 73 173 10
11:46:58.8 19 38 6:39.346 19.832 73 176 9
11:53:33.4 20 41 6:34.617 20.070 72 175 10
12:00:05.7 21 43 6:32.225 20.192 72 175 10
12:08:25.4 22 47 8:19.786 15.847 67 168 10
12:13:47.8 23 48 5:22.396 24.566 67 170 11
12:19:47.5 24 51 5:59.700 22.018 72 170 10
12:25:35.5 25 53 5:47.929 22.763 71 169 9
12:31:38.2 26 55 6:02.774 21.832 71 171 10
12:40:47.2 27 58 9:08.961 14.427 73 173 10
12:46:30.2 28 60 5:43.008 23.090 69 169 12
12:52:12.3 29 62 5:42.059 23.154 68 173 10
12:57:55.7 30 64 5:43.462 23.059 67 173 11
13:03:58.2 31 66 6:02.456 21.851 71 173 10
13:09:57.7 32 69 5:59.521 22.029 68 173 11
13:15:50.4 33 71 5:52.720 22.454 71 173 10
13:21:43.4 34 73 5:53.006 22.436 68 172 11
13:27:39.4 35 75 5:55.944 22.251 70 172 11
13:33:43.8 36 77 6:04.436 21.732 69 173 9
13:39:39.7 37 79 5:55.931 22.252 70 173 10
13:45:32.5 38 81 5:52.726 22.454 71 173 10
13:51:30.4 39 83 5:57.882 22.130 72 174 12
13:57:51.6 40 85 6:21.285 20.772 72 174 11
14:04:09.7 41 88 6:18.056 20.949 72 173 11
14:11:42.9 42 91 7:33.222 17.475 64 171 11
14:17:05.5 43 93 5:22.610 24.550 68 174 10
14:22:40.0 44 95 5:34.447 23.681 70 171 11
14:28:27.6 45 97 5:47.607 22.784 72 172 13
14:34:43.4 46 99 6:15.810 21.074 68 173 11
14:41:35.2 47 102 6:51.836 19.231 76 174 10
14:48:29.7 48 105 6:54.525 19.106 71 175 12
14:53:54.5 49 107 5:24.713 24.391 68 172 9
15:00:22.0 50 108 6:27.540 20.437 62 171 11
15:05:37.3 51 110 5:15.289 25.120 61 170 10
15:11:21.6 52 112 5:44.274 23.005 72 175 11
15:17:03.1 53 115 5:41.492 23.192 69 174 10
15:24:56.0 54 117 7:52.938 16.746 69 170 10
15:30:52.5 55 119 5:56.484 22.217 72 172 10
15:38:05.6 56 120 7:13.144 18.285 70 173 10
15:44:22.6 57 122 6:17.018 21.007 72 173 9
15:50:51.0 58 124 6:28.385 20.392 70 173 9
15:57:04.0 59 126 6:13.001 21.233 70 172 8
16:02:57.9 60 128 5:53.837 22.383 68 172 9
16:09:02.6 61 129 6:04.767 21.712 73 170 8
125 - Eye of the Storm Banyan Fields PS - Comm
10:07:08.0 1 2 4:50.236 27.288 74 167 8
10:12:09.2 2 4 5:01.166 26.298 72 167 7
10:17:12.4 3 5 5:03.260 26.116 74 168 9
10:22:18.6 4 7 5:06.160 25.869 73 168 8
10:28:21.8 5 10 6:03.223 21.805 82 170 9
10:33:21.4 6 11 4:59.609 26.434 71 159 10
10:38:25.6 7 13 5:04.147 26.040 72 167 9
10:43:18.9 8 15 4:53.367 26.997 75 168 9
10:50:11.6 9 18 6:52.689 19.191 84 168 11
10:56:03.7 10 20 5:52.101 22.494 80 169 10
11:03:17.5 11 23 7:13.782 18.258 82 169 10
11:08:38.8 12 25 5:21.254 24.653 78 169 10
11:15:43.6 13 27 7:04.813 18.643 84 169 10
11:21:49.9 14 29 6:06.346 21.619 79 169 11
11:28:52.6 15 32 7:02.705 18.736 83 170 10
11:34:18.8 16 34 5:26.210 24.279 76 170 12
11:39:40.4 17 36 5:21.611 24.626 74 169 10
11:44:50.8 18 38 5:10.331 25.521 74 169 10
11:49:46.3 19 39 4:55.563 26.796 70 168 10
11:55:46.6 20 42 6:00.278 21.983 83 170 10
12:01:12.4 21 44 5:25.824 24.308 75 167 11
12:06:30.5 22 46 5:18.101 24.898 74 165 10
12:11:54.0 23 48 5:23.413 24.489 72 169 9
12:17:12.4 24 50 5:18.446 24.871 74 162 8
12:23:31.9 25 52 6:19.498 20.870 83 169 10
12:29:57.2 26 54 6:25.288 20.556 80 170 10
12:36:08.1 27 57 6:10.925 21.352 78 169 10
12:44:09.5 28 60 8:01.417 16.451 79 168 12
12:49:43.4 29 61 5:33.880 23.721 82 170 11
12:56:43.4 30 64 7:00.008 18.857 80 169 10
13:02:15.1 31 66 5:31.657 23.880 75 168 10
13:08:58.9 32 68 6:43.811 19.613 84 168 11
13:14:23.1 33 70 5:24.215 24.428 73 169 12
13:19:40.0 34 72 5:16.906 24.992 75 168 12
13:24:46.2 35 74 5:06.177 25.867 73 169 12
13:30:00.9 36 76 5:14.703 25.167 73 169 10
13:36:43.6 37 78 6:42.747 19.665 83 170 10
13:43:05.2 38 80 6:21.569 20.756 77 170 10
13:49:14.5 39 83 6:09.264 21.448 80 170 11
13:55:17.8 40 84 6:03.350 21.797 76 169 11
14:02:29.3 41 87 7:11.525 18.354 84 169 11
14:08:00.8 42 89 5:31.444 23.895 74 168 12
14:13:26.5 43 91 5:25.702 24.317 73 168 12
14:18:42.4 44 93 5:15.866 25.074 70 168 10
14:24:05.6 45 95 5:23.271 24.500 72 169 10
14:29:34.9 46 98 5:29.274 24.053 79 170 12
14:35:10.2 47 100 5:35.316 23.620 73 168 13
14:41:30.5 48 102 6:20.290 20.826 84 169 9
14:47:31.6 49 104 6:01.125 21.931 82 168 8
14:54:09.4 50 107 6:37.803 19.909 84 169 10
15:02:03.7 51 109 7:54.254 16.700 80 169 11
15:08:14.9 52 111 6:11.253 21.333 82 168 11
15:15:50.7 53 114 7:35.736 17.378 78 168 10
15:21:38.2 54 116 5:47.573 22.787 81 168 9
15:30:05.9 55 119 8:27.689 15.600 84 170 10
15:37:34.1 56 120 7:28.176 17.672 79 169 9
15:44:02.3 57 122 6:28.161 20.404 82 169 9
15:50:26.5 58 124 6:24.263 20.611 74 169 7
15:56:42.3 59 126 6:15.715 21.080 77 167 8
16:02:54.5 60 128 6:12.213 21.278 78 166 9
16:09:27.2 61 129 6:32.699 20.168 83 163 8
3 - Flamin Mozies Tooradin PS - Junior
10:08:16.7 1 2 5:22.913 24.527 74 170 8
10:13:53.0 2 4 5:36.254 23.554 72 168 7
10:19:42.6 3 6 5:49.574 22.656 73 171 9
10:26:29.1 4 9 6:46.568 19.480 69 171 8
10:32:15.0 5 11 5:45.898 22.897 74 170 10
10:38:13.8 6 13 5:58.807 22.073 75 173 9
10:46:43.9 7 16 8:30.039 15.528 79 171 10
10:55:15.1 8 20 8:31.217 15.492 82 176 10
11:04:43.0 9 23 9:27.934 13.945 84 175 10
11:11:30.8 10 26 6:47.808 19.421 65 166 10
11:16:18.1 11 27 4:47.235 27.573 75 167 10
11:21:30.9 12 29 5:12.816 25.318 71 166 10
11:26:29.3 13 31 4:58.414 26.540 66 168 10
11:31:39.4 14 33 5:10.072 25.542 74 170 11
11:37:05.4 15 35 5:26.057 24.290 69 168 10
11:42:28.8 16 37 5:23.364 24.493 68 167 11
11:47:55.0 17 39 5:26.185 24.281 72 165 10
11:52:49.4 18 41 4:54.467 26.896 70 167 11
11:57:55.8 19 43 5:06.399 25.849 67 172 10
12:02:49.4 20 44 4:53.603 26.975 71 166 10
12:08:24.4 21 47 5:34.914 23.648 70 167 10
12:13:45.7 22 48 5:21.353 24.646 69 162 10
12:18:49.8 23 50 5:04.117 26.043 70 170 10
12:26:57.3 24 53 8:07.507 16.246 75 174 10
12:32:56.9 25 55 5:59.518 22.029 67 169 10
12:39:14.5 26 58 6:17.643 20.972 74 172 10
12:45:39.8 27 60 6:25.257 20.558 75 173 11
12:52:18.8 28 62 6:39.071 19.846 72 172 9
12:59:07.2 29 65 6:48.413 19.392 72 173 10
13:06:31.8 30 67 7:24.548 17.816 74 171 10
13:12:18.0 31 69 5:46.181 22.878 74 169 10
13:18:18.1 32 72 6:00.142 21.991 77 171 10
13:24:51.0 33 74 6:32.908 20.157 77 171 10
13:31:57.7 34 76 7:06.644 18.563 80 168 9
13:39:56.2 35 79 7:58.520 16.551 77 167 10
13:47:26.0 36 82 7:29.837 17.606 74 168 10
13:55:28.9 37 84 8:02.913 16.400 80 175 12
14:02:36.3 38 87 7:07.340 18.533 72 164 11
14:08:12.7 39 89 5:36.423 23.542 69 163 10
14:13:59.4 40 92 5:46.674 22.846 71 166 10
14:20:14.9 41 94 6:15.545 21.089 76 168 11
14:26:42.8 42 96 6:27.866 20.419 76 172 11
14:33:02.4 43 99 6:19.638 20.862 72 167 11
14:39:37.6 44 101 6:35.219 20.040 74 168 10
14:46:07.2 45 104 6:29.573 20.330 80 169 9
14:53:20.2 46 107 7:12.960 18.293 76 169 10
15:00:20.0 47 108 6:59.810 18.866 73 171 11
15:06:36.7 48 111 6:16.699 21.025 76 173 10
15:13:24.6 49 113 6:47.906 19.416 77 172 12
15:22:10.6 50 116 8:45.970 15.058 83 173 10
15:31:03.0 51 119 8:52.414 14.876 71 172 10
15:40:15.7 52 121 9:12.761 14.328 81 172 9
15:47:20.4 53 123 7:04.670 18.650 72 163 8
15:52:03.7 54 125 4:43.253 27.961 68 161 8
15:57:01.0 55 126 4:57.308 26.639 68 164 8
16:01:50.0 56 128 4:49.050 27.400 71 165 9
16:06:55.5 57 129 5:05.536 25.922 66 168 9
130 - PCS Tigers Pakenham consolidated - Junior
10:07:01.2 1 1 4:39.101 28.377 69 168 7
10:12:04.6 2 3 5:03.342 26.109 71 168 7
10:17:15.2 3 5 5:10.673 25.493 70 167 9
10:22:34.1 4 8 5:18.818 24.842 68 169 7
10:29:31.3 5 10 6:57.192 18.984 84 171 9
10:34:29.6 6 12 4:58.373 26.544 69 169 10
10:39:43.1 7 14 5:13.481 25.265 70 170 10
10:44:59.3 8 16 5:16.180 25.049 70 166 10
10:52:34.4 9 19 7:35.097 17.403 83 172 10
10:58:22.5 10 21 5:48.162 22.748 70 168 11
11:04:03.0 11 23 5:40.449 23.263 73 163 9
11:12:08.1 12 26 8:05.110 16.326 83 172 10
11:18:16.6 13 28 6:08.487 21.493 72 173 10
11:26:08.5 14 31 7:51.947 16.782 84 172 11
11:32:14.3 15 33 6:05.789 21.652 74 168 11
11:39:41.1 16 36 7:26.737 17.729 83 172 10
11:46:12.5 17 38 6:31.413 20.234 75 170 9
11:54:38.9 18 41 8:26.458 15.638 84 172 10
12:00:28.2 19 44 5:49.280 22.675 70 170 11
12:06:30.8 20 46 6:02.571 21.844 70 174 10
12:14:10.9 21 49 7:40.121 17.213 82 172 9
12:19:20.2 22 51 5:09.247 25.611 67 171 10
12:24:49.6 23 53 5:29.432 24.041 70 171 9
12:31:33.6 24 55 6:43.977 19.605 83 171 10
12:36:49.6 25 57 5:16.040 25.060 72 170 10
12:42:27.4 26 59 5:37.845 23.443 70 168 11
12:49:48.0 27 61 7:20.524 17.979 83 172 10
12:56:29.9 28 64 6:41.883 19.707 71 169 10
13:04:42.7 29 67 8:12.829 16.070 83 173 11
13:11:14.1 30 69 6:31.440 20.233 69 166 10
13:19:11.1 31 72 7:56.953 16.605 84 172 11
13:24:58.6 32 74 5:47.562 22.787 73 171 11
13:32:06.5 33 76 7:07.890 18.509 82 170 9
13:37:53.7 34 79 5:47.133 22.815 72 164 9
13:43:53.5 35 81 5:59.836 22.010 70 164 9
13:51:26.1 36 83 7:32.556 17.501 78 169 12
13:56:39.7 37 85 5:13.649 25.251 70 168 12
14:02:17.0 38 87 5:37.345 23.477 71 169 11
14:09:30.3 39 90 7:13.300 18.278 77 169 11
14:16:42.5 40 93 7:12.197 18.325 73 172 11
14:25:42.6 41 96 9:00.065 14.665 83 170 11
14:31:32.6 42 98 5:50.015 22.628 77 172 11
14:37:52.9 43 101 6:20.232 20.829 75 174 11
14:45:21.4 44 104 7:28.540 17.657 84 172 10
14:51:16.9 45 106 5:55.475 22.280 70 170 11
14:58:55.1 46 108 7:38.182 17.286 82 170 10
15:04:38.7 47 110 5:43.679 23.045 74 169 10
15:11:51.9 48 113 7:13.193 18.283 83 170 11
15:18:41.8 49 115 6:49.888 19.322 73 171 11
15:24:50.2 50 117 6:08.344 21.502 71 173 9
15:33:31.3 51 119 8:41.170 15.197 84 171 10
15:40:07.4 52 121 6:36.060 19.997 74 167 8
15:47:38.9 53 123 7:31.473 17.543 83 170 8
15:52:43.7 54 125 5:04.823 25.982 67 163 9
15:58:03.7 55 127 5:20.006 24.750 69 166 9
16:03:32.8 56 128 5:29.104 24.065 66 168 9
16:09:23.5 57 129 5:50.683 22.584 70 165 8
102 - Emerald Velocity TomKat HPV - Comm
10:06:19.9 1 1 4:07.201 32.039 71 176 7
10:11:32.7 2 3 5:12.769 25.322 73 178 7
10:17:09.4 3 5 5:36.694 23.523 73 180 9
10:23:16.3 4 8 6:06.894 21.587 76 181 8
10:29:00.8 5 10 5:44.511 22.989 79 181 9
10:36:39.3 6 13 7:38.509 17.273 83 180 10
10:41:44.9 7 15 5:05.629 25.914 77 180 11
10:47:07.1 8 17 5:22.154 24.585 72 178 10
10:52:37.6 9 19 5:30.475 23.966 72 175 10
10:59:22.0 10 21 6:44.469 19.581 83 180 10
11:05:36.3 11 23 6:14.299 21.160 78 180 9
11:13:13.6 12 26 7:37.231 17.322 84 180 10
11:18:42.8 13 28 5:29.243 24.055 76 180 10
11:25:37.1 14 31 6:54.318 19.116 81 177 10
11:31:06.4 15 33 5:29.254 24.054 74 181 10
11:38:32.5 16 36 7:26.126 17.753 82 179 11
11:44:41.6 17 38 6:09.056 21.460 77 183 10
11:53:30.8 18 41 8:49.240 14.965 84 180 11
11:59:17.8 19 43 5:46.985 22.825 74 180 10
12:07:04.9 20 46 7:47.139 16.954 78 180 10
12:12:49.8 21 48 5:44.875 22.965 76 179 9
12:19:02.2 22 50 6:12.448 21.265 78 182 11
12:25:11.7 23 53 6:09.485 21.435 75 181 9
12:32:26.6 24 55 7:14.889 18.212 83 179 10
12:37:37.2 25 57 5:10.629 25.497 73 180 9
12:45:16.5 26 60 7:39.298 17.244 78 177 11
12:50:20.0 27 62 5:03.471 26.098 70 172 11
12:54:49.4 28 63 4:29.338 29.405 65 174 11
13:00:24.0 29 65 5:34.621 23.669 73 178 11
13:05:45.3 30 67 5:21.305 24.649 71 178 11
13:10:40.5 31 69 4:55.249 26.825 74 179 11
13:17:01.5 32 71 6:20.961 20.790 83 178 10
13:22:35.2 33 73 5:33.731 23.732 75 178 11
13:30:21.1 34 76 7:45.881 17.000 84 179 10
13:35:44.3 35 78 5:23.203 24.505 74 177 9
13:41:23.3 36 80 5:39.040 23.360 77 177 10
13:47:49.4 37 82 6:26.092 20.513 82 178 10
13:53:56.8 38 84 6:07.389 21.558 77 175 12
14:01:39.8 39 87 7:42.969 17.107 83 178 11
14:07:21.6 40 89 5:41.829 23.169 76 179 10
14:14:30.0 41 92 7:08.421 18.486 82 177 10
14:20:31.4 42 94 6:01.350 21.918 77 180 10
14:29:39.2 43 98 9:07.804 14.458 84 177 12
14:36:10.8 44 100 6:31.638 20.223 79 179 11
14:45:24.3 45 104 9:13.500 14.309 83 178 10
14:52:54.2 46 106 7:29.866 17.605 78 182 11
15:00:55.1 47 109 8:00.919 16.468 80 182 11
15:11:24.3 48 112 10:29.167 12.588 74 175 11
15:16:57.7 49 114 5:33.413 23.754 76 176 10
15:22:13.1 50 116 5:15.351 25.115 79 181 10
15:29:01.7 51 118 6:48.604 19.383 84 178 9
15:36:44.6 52 120 7:42.989 17.106 76 182 9
15:44:26.4 53 122 7:41.779 17.151 84 178 9
15:51:09.4 54 124 6:42.968 19.654 84 177 9
15:57:34.2 55 126 6:24.777 20.583 79 177 8
16:04:26.3 56 129 6:52.143 19.217 71 177 9
26 - Luigi Kooweerup SC - Middle
10:07:12.1 1 2 4:49.795 27.330 66 141 7
10:12:35.7 2 4 5:23.619 24.473 68 140 8
10:18:12.4 3 6 5:36.641 23.527 67 143 8
10:24:34.3 4 8 6:21.884 20.739 71 141 8
10:30:33.1 5 10 5:58.864 22.070 72 141 9
10:36:27.8 6 13 5:54.713 22.328 68 139 10
10:42:45.1 7 15 6:17.242 20.994 71 144 9
10:49:12.3 8 17 6:27.234 20.453 66 139 11
10:55:01.9 9 20 5:49.598 22.655 73 143 10
11:02:16.2 10 22 7:14.265 18.238 73 143 9
11:08:33.0 11 25 6:16.812 21.018 71 144 9
11:15:02.3 12 27 6:29.340 20.342 73 144 10
11:21:06.7 13 29 6:04.366 21.736 71 143 10
11:28:12.6 14 32 7:05.874 18.597 68 142 11
11:33:36.4 15 34 5:23.798 24.460 70 142 10
11:39:22.6 16 36 5:46.211 22.876 69 143 11
11:45:20.0 17 38 5:57.413 22.159 73 142 9
11:51:56.4 18 40 6:36.356 19.982 68 144 11
11:57:35.6 19 42 5:39.202 23.349 69 139 10
12:02:53.8 20 44 5:18.257 24.886 64 140 10
12:08:15.2 21 46 5:21.355 24.646 68 144 10
12:13:39.9 22 48 5:24.704 24.391 67 143 9
12:19:31.2 23 51 5:51.366 22.541 71 143 9
12:26:25.6 24 53 6:54.328 19.115 69 138 11
12:32:47.7 25 55 6:22.131 20.726 72 138 10
12:39:08.0 26 58 6:20.256 20.828 76 142 11
12:46:31.4 27 60 7:23.466 17.859 72 144 12
12:52:52.8 28 62 6:21.359 20.768 70 143 11
12:59:17.5 29 65 6:24.713 20.587 69 143 11
13:06:06.8 30 67 6:49.298 19.350 68 137 11
13:12:23.4 31 69 6:16.659 21.027 68 138 11
13:18:32.2 32 72 6:08.746 21.478 69 137 11
13:24:56.4 33 74 6:24.230 20.613 73 138 11
13:31:41.1 34 76 6:44.643 19.573 61 136 8
13:37:11.5 35 78 5:30.450 23.967 68 140 9
13:43:14.0 36 80 6:02.443 21.852 71 142 10
13:49:59.2 37 83 6:45.272 19.542 73 141 11
13:56:53.9 38 85 6:54.640 19.101 67 142 12
14:02:36.3 39 87 5:42.442 23.128 66 143 11
14:08:12.6 40 89 5:36.334 23.548 62 139 10
14:13:59.8 41 92 5:47.167 22.813 67 141 10
14:21:28.8 42 94 7:28.984 17.640 72 139 10
14:28:14.4 43 97 6:45.629 19.525 72 138 10
14:34:54.6 44 100 6:40.170 19.792 74 139 11
14:43:29.6 45 103 8:34.990 15.379 77 142 10
14:50:46.0 46 106 7:16.439 18.147 71 141 10
14:57:58.0 47 108 7:11.966 18.335 76 145 11
15:05:35.4 48 110 7:37.366 17.317 70 139 10
15:11:24.8 49 112 5:49.396 22.668 70 140 11
15:17:42.8 50 115 6:18.081 20.948 71 140 10
15:24:51.3 51 117 7:08.490 18.484 70 140 9
15:36:44.5 52 120 11:53.204 11.105 73 139 9
15:44:46.3 53 122 8:01.811 16.438 76 139 8
15:51:47.9 54 124 7:01.521 18.789 76 138 9
15:59:04.3 55 127 7:16.454 18.146 70 143 9
16:05:06.8 56 129 6:02.494 21.849 66 141 9
53 - Mario Kooweerup SC - Open
10:07:24.8 1 2 4:57.701 26.604 70 148 8
10:12:53.9 2 4 5:29.032 24.071 68 148 7
10:18:47.4 3 6 5:53.478 22.406 68 148 9
10:24:27.9 4 8 5:40.518 23.259 67 149 8
10:30:40.3 5 10 6:12.462 21.264 70 149 8
10:37:06.7 6 13 6:26.349 20.500 73 148 11
10:43:33.0 7 15 6:26.278 20.503 76 149 11
10:53:01.7 8 19 9:28.768 13.925 71 149 11
10:59:43.2 9 21 6:41.483 19.727 76 151 10
11:06:01.4 10 24 6:18.172 20.943 68 149 9
11:11:33.5 11 26 5:32.109 23.848 68 149 10
11:17:20.4 12 28 5:46.888 22.832 68 151 10
11:23:04.9 13 30 5:44.524 22.988 69 150 10
11:28:57.9 14 32 5:52.953 22.439 70 151 10
11:35:01.3 15 34 6:03.483 21.789 72 150 11
11:41:05.0 16 36 6:03.696 21.776 72 150 10
11:48:54.7 17 39 7:49.631 16.864 72 149 10
11:56:19.3 18 42 7:24.679 17.811 78 152 10
12:04:14.2 19 45 7:54.899 16.677 75 148 10
12:11:31.8 20 48 7:17.539 18.101 71 149 10
12:17:12.7 21 50 5:40.958 23.229 68 150 8
12:22:39.7 22 52 5:26.926 24.226 73 150 10
12:29:01.4 23 54 6:21.753 20.746 70 148 10
12:34:55.4 24 56 5:54.021 22.372 70 151 10
12:40:46.5 25 58 5:51.036 22.562 70 148 10
12:46:24.4 26 60 5:37.942 23.436 69 147 12
12:53:28.7 27 63 7:04.258 18.668 71 148 11
12:59:32.9 28 65 6:04.265 21.742 71 151 11
13:06:07.8 29 67 6:34.872 20.057 71 149 11
13:12:40.6 30 70 6:32.787 20.164 77 151 10
13:19:14.5 31 72 6:33.929 20.105 73 150 11
13:26:10.4 32 74 6:55.878 19.044 69 149 11
13:31:41.2 33 76 5:30.767 23.944 65 149 8
13:37:39.2 34 78 5:58.034 22.121 72 151 9
13:43:51.3 35 81 6:12.061 21.287 73 150 9
13:52:12.9 36 84 8:21.614 15.789 70 149 11<